Date StartTime U_cm/s V_cm/s W_cm/s Ustd_cm/s Vstd_cm/s Wstd_cm/s Uvar_(cm/s)^2 Vvar_(cm/s)^2 Wvar_(cm/s)^2 KE_(m/s)^2 TurbulentKE_(m/s)^2 HorizWindSpeed_cm/s FrictionSpeec_cm/s DragCoef SpeedOfSound_m/s SonicTemperature_C Pressure_mb 
09/05/2013  00:00:00      -81.239      -35.437      -12.325       13.946       19.363       11.929      194.487      374.933      142.289        0.436        0.036       88.631        4.650        0.003      344.777       21.838      861.305
09/05/2013  00:01:00      -95.057      -52.311       -8.934       22.020       15.140       11.219      484.864      229.217      125.873        0.635        0.042      108.501        6.191        0.003      344.709       21.722      861.311
09/05/2013  00:02:00     -148.848      -56.099      -16.603       34.332       24.580       12.934     1178.666      604.191      167.282        1.376        0.098      159.069        8.532        0.003      344.662       21.639      861.319
09/05/2013  00:03:00     -144.186      -37.758       -4.464       43.837       35.962       27.788     1921.652     1293.292      772.180        1.311        0.199      149.048       22.949        0.024      344.588       21.514      861.314
09/05/2013  00:04:00     -159.683        2.356      -13.823       45.004       32.867       21.621     2025.321     1080.246      467.455        1.463        0.179      159.701       22.176        0.019      344.741       21.775      861.303
09/05/2013  00:05:00     -173.748       43.632      -16.050       45.209       33.040       22.075     2043.842     1091.646      487.313        1.799        0.181      179.142       11.290        0.004      344.753       21.794      861.285
09/05/2013  00:06:00     -131.980       25.759      -15.212       31.713       29.582       23.562     1005.742      875.117      555.191        1.037        0.122      134.471       11.865        0.008      344.678       21.667      861.279
09/05/2013  00:07:00     -130.840        9.050      -17.228       30.231       23.802       16.041      913.898      566.517      257.306        0.962        0.087      131.153        9.421        0.005      344.611       21.553      861.276
09/05/2013  00:08:00      -90.101       14.584      -12.252       35.461       32.207       20.222     1257.498     1037.313      408.949        0.559        0.135       91.274       17.638        0.037      344.519       21.394      861.278
09/05/2013  00:09:00     -166.341       54.627      -19.157       48.131       35.383       19.399     2316.632     1251.939      376.306        1.748        0.197      175.081       15.960        0.008      344.723       21.745      861.287
09/05/2013  00:10:00     -154.350       40.421      -17.858       32.546       41.538       25.411     1059.213     1725.383      645.701        1.460        0.172      159.555       18.364        0.013      344.654       21.625      861.295
09/05/2013  00:11:00     -133.828      -11.366      -16.222       28.034       37.114       21.273      785.930     1377.428      452.537        1.046        0.131      134.310       16.534        0.015      344.593       21.522      861.308
09/05/2013  00:12:00      -99.793       -4.669      -15.456       33.663       30.853       21.847     1133.168      951.904      477.300        0.639        0.128       99.902       15.831        0.025      344.588       21.513      861.326
09/05/2013  00:13:00     -104.333       35.574       -2.485       29.348       33.562       22.215      861.279     1126.394      493.486        0.732        0.124      110.231       14.258        0.017      344.670       21.654      861.348
09/05/2013  00:14:00     -107.794       33.220       -7.483       29.590       26.358       19.311      875.569      694.737      372.906        0.736        0.097      112.797        9.348        0.007      344.898       22.043      861.358
09/05/2013  00:15:00     -113.340       41.311      -16.675       26.856       30.148       18.208      721.265      908.909      331.531        0.840        0.098      120.634       11.193        0.009      344.957       22.145      861.372
09/05/2013  00:16:00     -126.043      -32.844       -9.163       26.036       29.599       17.861      677.856      876.093      319.005        0.946        0.094      130.252       10.794        0.007      344.573       21.487      861.368
09/05/2013  00:17:00     -108.622       37.543      -12.626       38.426       36.296       20.808     1476.534     1317.385      432.979        0.830        0.161      114.927       19.587        0.029      344.767       21.820      861.359
09/05/2013  00:18:00      -99.304       74.548      -17.664       31.985       41.426       22.260     1023.032     1716.151      495.518        0.948        0.162      124.172       20.440        0.027      345.164       22.499      861.354
09/05/2013  00:19:00     -104.581       67.544      -20.085       24.758       39.074       19.144      612.942     1526.781      366.493        0.920        0.125      124.497       20.999        0.028      345.183       22.532      861.350
09/05/2013  00:20:00      -90.463       -5.016      -10.465       27.055       21.204       13.563      731.997      449.621      183.953        0.484        0.068       90.602       11.676        0.017      344.748       21.787      861.344
09/05/2013  00:21:00      -56.618       -6.974      -10.060       11.628       13.586       11.308      135.206      184.568      127.867        0.190        0.022       57.046        6.603        0.013      344.607       21.547      861.328
09/05/2013  00:22:00      -38.293        0.538       -3.932       17.061       13.977        8.087      291.065      195.346       65.399        0.102        0.028       38.297        7.601        0.039      344.666       21.647      861.310
09/05/2013  00:23:00        3.719      101.536      -16.568       15.836       32.656       14.381      250.789     1066.423      206.810        0.606        0.076      101.604       15.641        0.024      345.219       22.593      861.303
09/05/2013  00:24:00      -38.350       19.735       -6.241       29.108       36.430        9.466      847.289     1327.148       89.610        0.208        0.113       43.130       12.059        0.078      344.824       21.917      861.292
09/05/2013  00:25:00      -74.521        0.786       -6.987       18.266        9.276        9.641      333.657       86.044       92.945        0.306        0.026       74.525       11.188        0.023      344.446       21.270      861.293
09/05/2013  00:26:00      -25.769        3.565       -4.793       13.481       10.795        7.068      181.740      116.542       49.956        0.052        0.017       26.014        2.751        0.011      344.742       21.777      861.304
09/05/2013  00:27:00      -48.428        4.935       -7.787       22.940       13.898        7.038      526.247      193.151       49.533        0.160        0.038       48.679        3.285        0.005      344.795       21.868      861.326
09/05/2013  00:28:00     -102.578       -3.240      -13.363       27.762       32.445       15.052      770.726     1052.701      226.556        0.638        0.102      102.629       12.214        0.014      344.658       21.632      861.337
09/05/2013  00:29:00      -71.501        9.749      -11.217       24.680       19.719       12.291      609.091      388.825      151.061        0.324        0.057       72.162       10.936        0.023      344.694       21.695      861.343
09/05/2013  00:30:00     -112.014       11.002      -16.402       33.236       25.733       17.623     1104.621      662.202      310.566        0.751        0.104      112.553       14.779        0.017      344.441       21.261      861.347
09/05/2013  00:31:00      -98.610       42.682       -7.642       33.254       28.451       24.045     1105.826      809.431      578.185        0.705        0.125      107.451       13.749        0.016      344.883       22.018      861.338
09/05/2013  00:32:00     -108.861       73.684      -16.073       38.190       27.437       22.273     1458.448      752.789      496.069        1.012        0.135      131.454       20.208        0.024      345.104       22.396      861.322
09/05/2013  00:33:00     -102.670       68.523       -7.337       47.726       46.902       27.820     2277.777     2199.824      773.969        1.027        0.263      123.436       27.576        0.050      345.843       23.666      861.301
09/05/2013  00:34:00     -129.490      -10.650      -11.402       39.464       52.399       24.483     1557.377     2745.656      599.422        1.096        0.245      129.927       25.776        0.039      344.955       22.142      861.307
09/05/2013  00:35:00     -124.808      -36.769       -6.509       34.574       24.320       16.084     1195.336      591.485      258.704        0.951        0.102      130.112       13.494        0.011      344.543       21.437      861.335
09/05/2013  00:36:00     -141.884      -17.203       -6.153       35.022       46.929       15.087     1226.554     2202.353      227.629        1.206        0.183      142.923       11.056        0.006      344.420       21.225      861.355
09/05/2013  00:37:00     -177.916       58.364      -10.747       36.741       29.029       16.199     1349.871      842.705      262.395        1.881        0.123      187.244        7.870        0.002      344.574       21.489      861.359
09/05/2013  00:38:00     -152.290       62.355      -12.014       39.813       25.650       20.726     1585.038      657.925      429.574        1.495        0.134      164.562       15.136        0.008      344.793       21.863      861.316
09/05/2013  00:39:00      -89.043      114.735      -15.058       48.112       71.208       26.296     2314.796     5070.518      691.470        1.470        0.404      145.233       29.673        0.042      345.008       22.231      861.277
09/05/2013  00:40:00      -68.545      210.845      -24.934       47.974       64.049       24.190     2301.514     4102.218      585.166        2.838        0.349      221.707       26.258        0.014      345.679       23.379      861.227
09/05/2013  00:41:00     -116.143       63.820      -23.029       35.216       51.365       24.116     1240.193     2638.393      581.601        1.128        0.223      132.522       18.738        0.020      344.904       22.055      861.203
09/05/2013  00:42:00     -104.379      126.500      -25.228       41.087       47.904       24.215     1688.165     2294.750      586.386        1.605        0.228      164.004       21.675        0.017      345.341       22.801      861.195
09/05/2013  00:43:00      -75.572       95.964      -19.277       46.012       38.065       21.963     2117.083     1448.914      482.375        0.967        0.202      122.148       26.570        0.047      345.381       22.871      861.197
09/05/2013  00:44:00      -68.889       -4.066       -6.628       30.082       40.062       19.959      904.924     1604.941      398.342        0.386        0.145       69.009        4.975        0.005      345.089       22.370      861.207
09/05/2013  00:45:00     -114.424      -32.370       -6.965       30.700       32.190       15.895      942.481     1036.200      252.639        0.821        0.112      118.914        8.229        0.005      344.836       21.937      861.223
09/05/2013  00:46:00     -110.309        2.334       -4.677       31.584       24.693       17.752      997.565      609.740      315.142        0.706        0.096      110.333       17.799        0.026      345.013       22.241      861.225
09/05/2013  00:47:00      -35.547       31.258        3.041       34.571       22.286       16.553     1195.162      496.677      274.009        0.211        0.098       47.336       16.736        0.125      344.909       22.062      861.219
09/05/2013  00:48:00     -122.184       -8.570       -5.912       95.311       34.105       22.627     9084.225     1163.121      511.959        1.290        0.538      122.484       38.983        0.101      344.876       22.004      861.209
09/05/2013  00:49:00     -219.211       27.469      -18.245       42.559       44.634       25.864     1811.288     1992.172      668.957        2.681        0.224      220.926       12.691        0.003      344.689       21.684      861.217
09/05/2013  00:50:00     -104.874      -31.411      -11.352       47.147       33.795       23.081     2222.807     1142.105      532.747        0.801        0.195      109.477       27.093        0.061      344.614       21.557      861.214
09/05/2013  00:51:00      -29.457       -6.735        0.855       29.849       15.513       11.609      890.991      240.659      134.776        0.109        0.063       30.217       12.753        0.178      344.633       21.590      861.204
09/05/2013  00:52:00      -58.435       -9.745       -1.307       32.382       25.796       16.700     1048.598      665.441      278.892        0.275        0.100       59.242       15.124        0.065      344.751       21.793      861.209
09/05/2013  00:53:00     -135.111        2.482       -8.365       56.136       35.947       22.546     3151.270     1292.177      508.307        1.164        0.248      135.134       27.585        0.042      344.616       21.561      861.226
09/05/2013  00:54:00     -137.899        3.757      -10.226       41.742       44.954       21.204     1742.372     2020.867      449.626        1.167        0.211      137.951       19.057        0.019      344.509       21.378      861.249
09/05/2013  00:55:00     -133.904        7.583       -9.587       55.641       42.192       28.512     3095.957     1780.160      812.959        1.188        0.284      134.118       24.259        0.033      344.492       21.349      861.251
09/05/2013  00:56:00     -125.057       98.451      -13.788       46.021       52.304       35.712     2117.964     2735.729     1275.332        1.582        0.306      159.160       32.138        0.041      344.685       21.678      861.230
09/05/2013  00:57:00      -64.272      194.616      -17.628       45.721       31.062       18.718     2090.372      964.877      350.364        2.286        0.170      204.955       19.082        0.009      345.338       22.794      861.194
09/05/2013  00:58:00      -11.965      222.030      -26.467       38.601       50.294       26.046     1490.038     2529.483      678.371        2.742        0.235      222.352       24.816        0.012      345.308       22.742      861.166
09/05/2013  00:59:00      107.383       91.099       -0.820       59.089       49.216       47.510     3491.505     2422.183     2257.216        1.400        0.409      140.819       38.385        0.074      344.918       22.078      861.119
09/05/2013  01:00:00      124.250       85.107        9.299       59.668       55.704       47.632     3560.272     3102.941     2268.843        1.585        0.447      150.603       38.960        0.067      345.519       23.107      861.120
09/05/2013  01:01:00       30.246      103.093      -12.798       46.742       37.520       24.830     2184.810     1407.729      616.540        0.796        0.210      107.438       24.171        0.051      345.601       23.248      861.171
09/05/2013  01:02:00       34.726       60.568        0.102       23.264       34.229       19.696      541.207     1171.625      387.937        0.349        0.105       69.817       17.003        0.059      345.474       23.031      861.198
09/05/2013  01:03:00       24.884       21.680        2.839       24.810       33.973       15.599      615.527     1154.163      243.334        0.155        0.101       33.004       13.856        0.176      345.011       22.238      861.205
09/05/2013  01:04:00      -22.228      -20.732       -3.694       18.929       20.606        9.836      358.291      424.593       96.743        0.091        0.044       30.396        6.451        0.045      344.784       21.848      861.210
09/05/2013  01:05:00       -8.725      -31.024        0.713       15.751       17.629        9.854      248.098      310.785       97.097        0.085        0.033       32.228       11.252        0.122      345.038       22.283      861.207
09/05/2013  01:06:00       -9.054      -25.674       10.750       28.820       16.170       13.747      830.616      261.459      188.974        0.107        0.064       27.224       10.854        0.159      345.245       22.637      861.203
09/05/2013  01:07:00      -49.465      -11.829       -3.003       17.175       24.516        8.562      294.989      601.043       73.301        0.178        0.048       50.860        6.829        0.018      344.826       21.921      861.191
09/05/2013  01:08:00      -59.208       16.866      -10.593       11.370       18.216        7.426      129.286      331.817       55.153        0.221        0.026       61.563        3.453        0.003      344.745       21.782      861.167
09/05/2013  01:09:00      -52.267      -19.998       -7.009        7.308        7.702        7.009       53.411       59.323       49.126        0.167        0.008       55.963        2.865        0.003      344.871       21.997      861.159
09/05/2013  01:10:00      -39.922      -24.878      -10.629        9.256       13.124        5.819       85.675      172.247       33.857        0.131        0.015       47.039        4.348        0.009      344.863       21.985      861.164
09/05/2013  01:11:00      -38.525      -54.092       -6.324       14.244       14.239        7.983      202.904      202.742       63.725        0.246        0.023       66.409        3.752        0.003      345.173       22.514      861.181
09/05/2013  01:12:00      -44.949      -19.822        7.595       43.168       21.105       19.584     1863.445      445.404      383.545        0.258        0.135       49.126       23.604        0.231      344.903       22.052      861.209
09/05/2013  01:13:00     -151.947      -55.216      -10.487       37.941       25.310       14.247     1439.512      640.597      202.965        1.426        0.114      161.668       10.666        0.004      344.539       21.431      861.239
09/05/2013  01:14:00      -91.141      -71.035        6.518       50.510       31.378       24.334     2551.283      984.596      592.137        0.876        0.206      115.554       20.235        0.031      344.534       21.420      861.262
09/05/2013  01:15:00      -48.790      -33.298        3.800       38.128       32.199       20.659     1453.741     1036.786      426.782        0.321        0.146       59.070       13.584        0.053      344.524       21.402      861.271
09/05/2013  01:16:00     -111.086      -72.819      -13.195       37.070       32.338       20.495     1374.177     1045.719      420.040        1.033        0.142      132.826       18.107        0.019      344.521       21.398      861.254
09/05/2013  01:17:00      -62.506      -41.026       -1.987       32.816       26.213       18.561     1076.869      687.128      344.510        0.385        0.105       74.767       19.408        0.067      344.421       21.228      861.237
09/05/2013  01:18:00      -64.692      -38.431        2.764       25.511       20.666       11.355      650.814      427.072      128.942        0.344        0.060       75.246       13.765        0.033      344.511       21.382      861.222
09/05/2013  01:19:00      -27.250      -55.282        4.503       23.154       20.848       12.864      536.097      434.621      165.482        0.248        0.057       61.633       10.910        0.031      344.663       21.641      861.211
09/05/2013  01:20:00       -2.662      -25.579       -7.449       20.533       26.810       14.650      421.587      718.771      214.612        0.104        0.068       25.717       13.626        0.281      344.759       21.806      861.195
09/05/2013  01:21:00      -24.217       -6.643       -5.145       17.587        9.456        6.809      309.299       89.413       46.369        0.055        0.022       25.112        7.626        0.092      344.563       21.470      861.189
09/05/2013  01:22:00      -36.641       -4.442       -3.621       13.812        9.396        7.507      190.777       88.290       56.351        0.086        0.017       36.909        6.769        0.034      344.424       21.232      861.182
09/05/2013  01:23:00      -25.013       -8.865        0.754       20.516       15.508       12.349      420.899      240.493      152.495        0.076        0.041       26.538        9.497        0.128      344.375       21.149      861.181
09/05/2013  01:24:00      -42.776        0.824       -3.277       14.602       11.537        8.873      213.230      133.105       78.725        0.113        0.021       42.784        6.702        0.025      344.471       21.313      861.179
09/05/2013  01:25:00      -36.167       -0.006       -4.647       11.165       10.263        6.524      124.649      105.339       42.566        0.080        0.014       36.167        6.714        0.034      344.471       21.314      861.185
09/05/2013  01:26:00      -61.569       48.391       -3.508       23.656       30.638       16.575      559.618      938.671      274.727        0.396        0.089       78.310       15.313        0.038      344.259       20.950      861.201
09/05/2013  01:27:00      -80.404       57.751      -10.360       24.734       29.143       18.743      611.755      849.337      351.291        0.586        0.091       98.995       13.911        0.020      344.138       20.744      861.214
09/05/2013  01:28:00      -83.965      101.819      -17.765       19.913       27.243       19.086      396.533      742.199      364.287        0.962        0.075      131.975       14.008        0.011      344.189       20.831      861.211
09/05/2013  01:29:00      -76.664       94.900      -16.789       18.093       18.885       12.124      327.361      356.636      147.001        0.800        0.042      121.997       10.220        0.007      344.266       20.963      861.198
09/05/2013  01:30:00      -54.344       35.100        3.980       42.574       33.847       26.769     1812.517     1145.606      716.599        0.394        0.184       64.694       24.709        0.146      344.166       20.792      861.193
09/05/2013  01:31:00      -37.006       -7.021       -5.500       16.814       21.804        7.768      282.714      475.435       60.347        0.113        0.041       37.666        4.742        0.016      344.339       21.087      861.190
09/05/2013  01:32:00       -1.506      -70.602       -5.176       15.629       22.422       13.016      244.250      502.755      169.411        0.296        0.046       70.618       11.681        0.027      344.415       21.218      861.181
09/05/2013  01:33:00      -13.569      -67.970      -13.181       26.809       23.562       15.081      718.705      555.159      227.433        0.324        0.075       69.311        8.907        0.017      344.425       21.233      861.180
09/05/2013  01:34:00      -44.858      -45.359       -4.804       30.467       14.380       12.316      928.232      206.792      151.692        0.269        0.064       63.794        3.346        0.003      344.420       21.226      861.183
09/05/2013  01:35:00      -26.077      -57.618        4.299       36.801       36.278       12.779     1354.326     1316.062      163.302        0.343        0.142       63.244       13.209        0.044      344.544       21.437      861.196
09/05/2013  01:36:00      -77.355      -65.500       -5.638       29.550       31.732       18.680      873.177     1006.939      348.946        0.627        0.111      101.361       13.346        0.017      344.615       21.559      861.205
09/05/2013  01:37:00      -94.202      -46.860       -7.050       24.338       22.918       14.716      592.357      525.250      216.552        0.623        0.067      105.213       13.672        0.017      344.715       21.730      861.216
09/05/2013  01:38:00      -82.753       -9.791       -7.315       16.190       18.954        9.470      262.126      359.260       89.674        0.385        0.036       83.330        6.963        0.007      344.552       21.452      861.208
09/05/2013  01:39:00      -66.763       39.459       -9.423       23.244       18.013       11.679      540.305      324.475      136.401        0.355        0.050       77.552       10.161        0.017      344.567       21.476      861.186
09/05/2013  01:40:00      -34.542       92.185      -10.858       21.912       23.618       10.224      480.142      557.829      104.526        0.548        0.057       98.444       10.483        0.011      344.421       21.226      861.140
09/05/2013  01:41:00      -17.378      126.179      -12.842       23.383       17.506       14.395      546.784      306.459      207.203        0.872        0.053      127.370       10.090        0.006      344.516       21.390      861.093
09/05/2013  01:42:00       12.554       78.683       -2.679       20.788       19.059       17.370      432.135      363.263      301.724        0.373        0.055       79.679       14.141        0.031      344.367       21.135      861.071
09/05/2013  01:43:00       11.317        4.531        9.002       19.547       27.638       18.770      382.069      763.879      352.314        0.086        0.075       12.190       16.152        1.756      344.120       20.712      861.082
09/05/2013  01:44:00       -1.059      -27.599       -0.930       13.625       18.549       12.078      185.642      344.054      145.871        0.072        0.034       27.619        9.752        0.125      344.157       20.775      861.121
09/05/2013  01:45:00      -32.962      -12.448       -2.534       37.814       29.486       17.211     1429.922      869.426      296.233        0.192        0.130       35.234        6.365        0.033      344.093       20.668      861.175
09/05/2013  01:46:00      -70.711      -56.674        7.611       45.116       36.117       26.816     2035.464     1304.434      719.086        0.616        0.203       90.620       19.665        0.047      344.044       20.583      861.229
09/05/2013  01:47:00     -131.143      -92.625        1.591       49.659       43.333       26.879     2465.981     1877.753      722.497        1.542        0.253      160.555       20.176        0.016      344.121       20.714      861.260
09/05/2013  01:48:00      -91.225      -90.982        1.868       68.572       46.909       26.342     4702.147     2200.415      693.903        1.210        0.380      128.840       24.317        0.036      344.127       20.726      861.277
09/05/2013  01:49:00     -130.113      -89.700       -2.299       38.263       45.738       31.110     1464.082     2091.995      967.828        1.475        0.226      158.037       20.936        0.018      344.061       20.612      861.276
09/05/2013  01:50:00      -96.977      -39.116       -6.180       43.143       36.213       18.581     1861.286     1311.353      345.244        0.724        0.176      104.569       20.823        0.040      343.985       20.482      861.249
09/05/2013  01:51:00      -98.179        4.014       -9.740       26.475       37.200       15.798      700.902     1383.828      249.582        0.604        0.117       98.261       12.222        0.015      343.971       20.459      861.203
09/05/2013  01:52:00     -134.534       26.778      -11.711       34.335       21.463       18.022     1178.870      460.668      324.804        1.046        0.098      137.173       16.559        0.015      343.868       20.283      861.178
09/05/2013  01:53:00     -131.264       11.481      -12.683       27.076       28.309       13.449      733.106      801.388      180.885        0.962        0.086      131.765       10.795        0.007      343.775       20.124      861.174
09/05/2013  01:54:00      -91.048        5.534       -1.483       56.206       22.902       18.973     3159.114      524.485      359.961        0.618        0.202       91.216       24.542        0.072      343.777       20.127      861.178
09/05/2013  01:55:00     -119.406       21.635       -9.443       27.915       24.625       13.781      779.273      606.412      189.914        0.820        0.079      121.350        7.926        0.004      343.794       20.156      861.197
09/05/2013  01:56:00      -87.668       13.657       -2.924       28.209       18.401       12.158      795.758      338.611      147.819        0.458        0.064       88.726       11.509        0.017      343.946       20.416      861.193
09/05/2013  01:57:00      -54.101       -4.457       -0.146       17.795       15.307       10.302      316.668      234.297      106.126        0.180        0.033       54.285        7.234        0.018      343.911       20.355      861.201
09/05/2013  01:58:00       -6.065       11.938        1.124        8.448       12.355        8.038       71.364      152.647       64.612        0.023        0.014       13.391        3.776        0.080      343.914       20.361      861.205
09/05/2013  01:59:00        9.470       29.092        0.002       15.309        8.325       11.125      234.374       69.312      123.764        0.068        0.021       30.594        6.371        0.043      343.904       20.345      861.215
09/05/2013  02:00:00      -14.218       59.903      -11.540       11.891       15.188        6.877      141.399      230.681       47.292        0.217        0.021       61.567        4.721        0.006      343.977       20.470      861.225
09/05/2013  02:01:00      -38.032       37.594      -10.098       13.234       27.920        6.993      175.134      779.518       48.897        0.198        0.050       53.477        7.756        0.021      343.928       20.385      861.234
09/05/2013  02:02:00      -41.370       50.780      -10.574       16.593       28.825       11.445      275.331      830.892      130.990        0.282        0.062       65.499       12.734        0.038      343.793       20.154      861.234
09/05/2013  02:03:00      -30.038      145.859      -20.147       19.742       47.703       14.913      389.759     2275.569      222.386        1.273        0.144      148.920       15.679        0.011      343.708       20.009      861.211
09/05/2013  02:04:00      -62.738      103.651      -11.867       28.055       45.928       14.700      787.101     2109.368      216.087        0.897        0.156      121.159       17.739        0.021      343.636       19.887      861.191
09/05/2013  02:05:00      -79.948       27.876      -17.212       29.262       25.078       15.421      856.290      628.903      237.811        0.459        0.086       84.669       15.962        0.036      343.599       19.823      861.187
09/05/2013  02:06:00     -153.772      -42.961      -14.689       53.005       29.462       17.910     2809.479      867.988      320.760        1.485        0.200      159.661       17.257        0.012      343.508       19.669      861.210
09/05/2013  02:07:00     -146.168      -48.677       -2.661       51.830       37.936       30.081     2686.395     1439.177      904.842        1.438        0.252      154.060       30.551        0.039      343.485       19.630      861.256
09/05/2013  02:08:00     -148.239      -71.984       -8.232       50.624       40.918       26.439     2562.836     1674.272      699.024        1.608        0.247      164.792       24.734        0.023      343.521       19.689      861.286
09/05/2013  02:09:00      -21.253      -53.604       16.186       64.551       45.482       28.402     4166.836     2068.632      806.680        0.531        0.352       57.664       34.402        0.356      343.493       19.644      861.311
09/05/2013  02:10:00      -62.291      -79.270       -2.098       52.892       32.312       18.644     2797.521     1044.045      347.605        0.718        0.209      100.816       11.346        0.013      343.596       19.819      861.319
09/05/2013  02:11:00      -39.369      -38.273        8.559       57.871       24.424       26.908     3349.055      596.512      724.064        0.388        0.233       54.906       16.087        0.086      343.535       19.714      861.326
09/05/2013  02:12:00     -107.913      -79.883        2.398       48.542       34.782       23.824     2356.322     1209.798      567.573        1.108        0.207      134.263       23.475        0.031      343.426       19.528      861.338
09/05/2013  02:13:00     -116.582      -40.755       -6.350       16.034       16.397       15.113      257.089      268.861      228.398        0.802        0.038      123.500        5.837        0.002      343.434       19.542      861.324
09/05/2013  02:14:00      -79.675      -16.002      -12.100       14.982       18.560       12.972      224.466      344.457      168.275        0.374        0.037       81.266       12.510        0.024      343.425       19.527      861.312
09/05/2013  02:15:00      -65.865      -12.012       -6.016       11.183       12.774        9.981      125.055      163.167       99.615        0.245        0.019       66.951        5.448        0.007      343.437       19.547      861.309
09/05/2013  02:16:00      -86.432       41.520      -10.794       22.561       25.568       14.314      509.006      653.726      204.880        0.534        0.068       95.888        8.612        0.008      343.582       19.796      861.283
09/05/2013  02:17:00      -38.447       55.544       -9.950       20.730       23.038       15.743      429.713      530.772      247.852        0.294        0.060       67.552        8.727        0.017      343.582       19.794      861.246
09/05/2013  02:18:00      -26.583       44.663        2.441       24.956       24.056       19.913      622.782      578.682      396.519        0.215        0.080       51.975       11.716        0.051      343.591       19.809      861.242
09/05/2013  02:19:00      -44.700      -35.430        2.842       26.523       17.226       12.685      703.496      296.725      160.910        0.221        0.058       57.039       12.850        0.051      343.585       19.799      861.265
09/05/2013  02:20:00     -138.236      -50.768      -12.521       23.616       25.610       13.312      557.713      655.867      177.211        1.162        0.070      147.264        6.785        0.002      343.319       19.345      861.279
09/05/2013  02:21:00     -162.587      -49.684       -6.887       37.035       31.423       18.125     1371.574      987.418      328.515        1.582        0.134      170.009       11.721        0.005      343.231       19.197      861.277
09/05/2013  02:22:00     -174.037      -78.628       -1.155       40.693       37.671       25.262     1655.883     1419.077      638.164        2.009        0.186      190.974       23.840        0.016      343.193       19.131      861.278
09/05/2013  02:23:00     -178.867      -54.056      -14.792       43.070       41.927       20.807     1855.065     1757.912      432.934        1.959        0.202      186.857       19.339        0.011      343.150       19.058      861.265
09/05/2013  02:24:00     -191.931      -44.847      -19.051       31.259       32.501       23.202      977.133     1056.344      538.334        2.089        0.129      197.101       11.798        0.004      343.180       19.111      861.255
09/05/2013  02:25:00     -150.373       10.507      -23.567       36.525       44.966       24.378     1334.042     2021.944      594.263        1.361        0.198      150.740        8.584        0.003      343.257       19.241      861.255
09/05/2013  02:26:00      -89.331        8.140      -10.525       29.028       27.752       19.190      842.637      770.158      368.241        0.507        0.099       89.701       13.961        0.024      343.395       19.477      861.257
09/05/2013  02:27:00      -68.318      -26.982      -10.289       19.487       22.411       13.903      379.747      502.255      193.299        0.329        0.054       73.453        7.552        0.011      343.578       19.788      861.248
09/05/2013  02:28:00      -32.658      -27.450       -0.057       34.380       21.524       15.904     1181.983      463.279      252.935        0.186        0.095       42.662       16.747        0.154      343.467       19.597      861.239
09/05/2013  02:29:00      -44.309       11.127       -6.320       28.422       17.357        8.958      807.798      301.251       80.237        0.166        0.059       45.685       12.022        0.069      344.063       20.616      861.216
09/05/2013  02:30:00      -60.873       35.777       -6.796       20.263       19.584        7.577      410.601      383.515       57.413        0.294        0.043       70.608        8.958        0.016      344.427       21.237      861.191
09/05/2013  02:31:00     -156.832      -42.292      -15.991       56.171       29.213       21.446     3155.169      853.415      459.948        1.555        0.223      162.435       19.595        0.015      343.259       19.243      861.157
09/05/2013  02:32:00     -140.545      -49.035       -7.493       46.933       44.293       24.500     2202.747     1961.836      600.273        1.349        0.238      148.853       13.978        0.009      343.074       18.930      861.131
09/05/2013  02:33:00      -74.198       15.103       -5.704       39.853       43.051       26.016     1588.253     1853.346      676.811        0.494        0.206       75.719       20.290        0.072      343.326       19.358      861.119
09/05/2013  02:34:00      -97.248       60.785      -14.487       38.533       28.669       26.023     1484.819      821.927      677.174        0.817        0.149      114.683       24.802        0.047      343.829       20.216      861.091
09/05/2013  02:35:00      -51.190       13.895        0.042       39.030       21.242       16.552     1523.321      451.208      273.981        0.253        0.112       53.043       14.926        0.079      343.898       20.334      861.084
09/05/2013  02:36:00      -16.480       -9.925       -6.936       35.778       24.194       18.885     1280.041      585.332      356.652        0.132        0.111       19.238       18.528        0.928      343.393       19.472      861.097
09/05/2013  02:37:00      -54.164      -48.064       -3.346       34.027       19.583       15.531     1157.833      383.488      241.209        0.352        0.089       72.415       14.934        0.043      343.231       19.198      861.104
09/05/2013  02:38:00     -153.683      -61.640      -13.649       35.133       35.335       19.574     1234.360     1248.527      383.143        1.523        0.143      165.584       12.733        0.006      343.321       19.350      861.108
09/05/2013  02:39:00     -199.581      -81.239      -11.344       48.430       32.792       25.391     2345.473     1075.333      644.704        2.531        0.203      215.482       24.581        0.013      343.208       19.154      861.113
09/05/2013  02:40:00     -172.166      -52.196        0.077       57.280       41.312       29.424     3280.963     1706.647      865.754        1.911        0.293      179.904       30.313        0.028      343.298       19.310      861.114
09/05/2013  02:41:00     -108.102      -72.103       12.062      101.050       54.256       41.420    10211.108     2943.729     1715.605        1.595        0.744      129.941       45.794        0.124      343.319       19.346      861.145
09/05/2013  02:42:00     -181.733     -148.226       -4.156       79.160       73.347       45.750     6266.369     5379.854     2093.083        3.437        0.687      234.517       40.303        0.030      343.680       19.959      861.137
09/05/2013  02:43:00      -71.107      -64.506        2.472       60.540       52.638       31.272     3665.059     2770.754      977.926        0.832        0.371       96.006       29.491        0.094      343.722       20.033      861.121
09/05/2013  02:44:00      -17.247     -102.880        2.893       27.775       57.765       19.447      771.444     3336.748      378.189        0.769        0.224      104.316       10.783        0.011      343.770       20.114      861.118
09/05/2013  02:45:00      -45.918      -46.047        4.803       24.669       45.568       23.514      608.540     2076.414      552.918        0.374        0.162       65.029       14.518        0.050      343.939       20.404      861.104
09/05/2013  02:46:00      -12.901      -56.226       -3.970       22.147       28.914       20.749      490.504      836.011      430.517        0.255        0.088       57.687       13.797        0.057      343.824       20.209      861.098
09/05/2013  02:47:00      -24.703      -52.426        0.964       36.688       29.832       26.046     1346.016      889.923      678.391        0.314        0.146       57.954       20.383        0.124      343.764       20.105      861.106
09/05/2013  02:48:00      -66.715       10.941        3.852       34.940       22.229       11.728     1220.801      494.141      137.544        0.322        0.093       67.606        5.402        0.006      343.627       19.872      861.123
09/05/2013  02:49:00      -58.164       41.838       -7.871       22.749       37.306       14.903      517.522     1391.731      222.113        0.366        0.107       71.648       12.259        0.029      343.337       19.377      861.130
09/05/2013  02:50:00      -54.282       -5.622       -2.425       27.212       21.427        9.443      740.475      459.121       89.176        0.214        0.064       54.572        6.018        0.012      343.341       19.386      861.127
09/05/2013  02:51:00      -47.911       -3.842       -8.179       22.801       11.538       10.001      519.878      133.128      100.019        0.156        0.038       48.065        3.270        0.005      343.445       19.562      861.134
09/05/2013  02:52:00      -16.904       29.915       -9.459        7.394        8.141        5.140       54.674       66.274       26.415        0.071        0.007       34.360        2.496        0.005      343.572       19.778      861.129
09/05/2013  02:53:00      -22.429       49.641       -7.595       13.590       19.470        7.880      184.680      379.079       62.091        0.183        0.031       54.473        9.319        0.029      343.632       19.880      861.128
09/05/2013  02:54:00      -37.069       76.148      -10.491       22.289       13.555        8.642      496.819      183.729       74.687        0.402        0.038       84.692        9.349        0.012      343.635       19.886      861.129
09/05/2013  02:55:00      -70.030       44.895       -7.449       22.895       28.734       10.938      524.183      825.664      119.646        0.422        0.073       83.185       13.192        0.025      343.582       19.795      861.142
09/05/2013  02:56:00      -38.041      -17.145       -5.664       14.425       14.824       12.304      208.095      219.762      151.396        0.118        0.029       41.726        5.483        0.017      343.257       19.240      861.164
09/05/2013  02:57:00      -45.636       37.212      -14.097        9.441       25.723        8.140       89.134      661.651       66.255        0.224        0.041       58.885       11.858        0.041      343.546       19.732      861.167
09/05/2013  02:58:00      -54.869       60.936      -16.050       13.708       16.520        7.787      187.900      272.924       60.639        0.375        0.026       81.999        6.579        0.006      343.840       20.235      861.138
09/05/2013  02:59:00      -53.823       19.791       -4.098       14.900       14.912        7.193      222.022      222.367       51.742        0.190        0.025       57.346        3.122        0.003      343.676       19.956      861.112
09/05/2013  03:00:00      -58.782       22.270       -5.299       14.634       14.906        9.070      214.158      222.202       82.262        0.225        0.026       62.859        7.008        0.012      343.462       19.590      861.100
09/05/2013  03:01:00      -72.781       30.145      -15.184       39.571       40.101       15.638     1565.829     1608.050      244.545        0.493        0.171       78.776       18.487        0.055      343.424       19.525      861.098
09/05/2013  03:02:00      -67.350       68.865      -23.568       31.175       29.700       11.877      971.869      882.081      141.053        0.591        0.100       96.324       13.946        0.021      343.665       19.937      861.089
09/05/2013  03:03:00      -16.643       30.622       -0.627       17.861        8.989        8.436      319.028       80.801       71.159        0.084        0.024       34.852        9.118        0.068      344.093       20.670      861.073
09/05/2013  03:04:00      -49.849       38.031       -5.923       22.749       13.118        9.159      517.497      172.086       83.886        0.237        0.039       62.700       11.634        0.034      344.089       20.661      861.055
09/05/2013  03:05:00     -120.366       -9.843      -15.210       18.742       32.883       10.948      351.257     1081.314      119.864        0.818        0.078      120.768        7.068        0.003      343.185       19.120      861.043
09/05/2013  03:06:00      -54.827      -27.105       -8.216       32.359       17.966       19.253     1047.120      322.783      370.679        0.277        0.087       61.161       13.100        0.046      343.090       18.957      861.050
09/05/2013  03:07:00     -105.853      -49.451       -9.020       29.980       24.913       17.800      898.822      620.679      316.845        0.778        0.092      116.834       14.660        0.016      343.144       19.050      861.065
09/05/2013  03:08:00      -95.599       -1.078       -3.425       25.879       33.620       19.860      669.729     1130.275      394.419        0.567        0.110       95.605       13.727        0.021      343.096       18.968      861.070
09/05/2013  03:09:00      -89.011       35.112       -6.676       32.062       23.815       19.340     1027.996      567.149      374.031        0.558        0.098       95.686        6.834        0.005      343.196       19.138      861.056
09/05/2013  03:10:00      -95.932       20.425       -7.635       40.367       34.463       20.033     1629.496     1187.674      401.318        0.645        0.161       98.082       22.431        0.052      343.373       19.440      861.054
09/05/2013  03:11:00      -76.286        1.933       -4.339       37.434       31.599       11.653     1401.331      998.501      135.792        0.419        0.127       76.311        7.914        0.011      343.427       19.530      861.071
09/05/2013  03:12:00        2.239      -42.847       -3.977       42.756       17.336       12.565     1828.074      300.542      157.892        0.207        0.114       42.906       14.220        0.110      343.322       19.352      861.105
09/05/2013  03:13:00       24.693      -33.118       -2.272       18.769       26.066       22.266      352.287      679.446      495.766        0.162        0.076       41.310       17.507        0.180      343.301       19.316      861.140
09/05/2013  03:14:00        0.728      -42.327       -0.824       19.401       35.498       18.511      376.413     1260.125      342.667        0.189        0.099       42.333       16.761        0.157      343.324       19.354      861.180
09/05/2013  03:15:00        0.674       -0.011       35.150       29.624       38.778       28.736      877.561     1503.744      825.785        0.222        0.160        0.674       25.271     1407.038      343.159       19.075      861.185
09/05/2013  03:16:00       17.112       -7.962       19.762       33.082       28.388       20.875     1094.448      805.866      435.761        0.154        0.117       18.873       24.314        1.660      343.095       18.965      861.147
09/05/2013  03:17:00       46.210      -29.439        0.294       29.208       20.676       21.781      853.120      427.493      474.417        0.238        0.088       54.791        9.294        0.029      342.938       18.698      861.128
09/05/2013  03:18:00       29.619      -16.765       -4.650       22.731       18.411       16.114      516.693      338.973      259.648        0.115        0.056       34.034        8.167        0.058      343.189       19.125      861.134
09/05/2013  03:19:00       -4.716      -12.268        2.862        9.186        9.266       12.325       84.386       85.852      151.895        0.025        0.016       13.143        8.509        0.419      343.146       19.053      861.147
09/05/2013  03:20:00      -11.982      -13.551       -4.172       17.491        8.982        9.960      305.943       80.668       99.203        0.042        0.024       18.089        6.106        0.114      343.245       19.222      861.154
09/05/2013  03:21:00      -27.085      -29.248       -5.492       16.599       31.388       18.699      275.512      985.211      349.660        0.161        0.081       39.863       18.830        0.223      343.012       18.824      861.130
09/05/2013  03:22:00       -3.837       10.668       11.368       13.918       15.391       11.961      193.717      236.879      143.068        0.042        0.029       11.337        9.345        0.679      342.991       18.789      861.100
09/05/2013  03:23:00       46.780       43.636      -19.156       16.145       27.149       20.376      260.675      737.051      415.194        0.294        0.071       63.972       11.889        0.035      343.089       18.955      861.082
09/05/2013  03:24:00       69.868       56.541       20.372       24.762       20.515       30.892      613.139      420.854      954.297        0.524        0.099       89.880       13.033        0.021      343.022       18.841      861.073
09/05/2013  03:25:00       57.793       30.653       20.649       31.838       28.612       25.630     1013.676      818.655      656.914        0.360        0.124       65.419       12.273        0.035      343.068       18.919      861.071
09/05/2013  03:26:00        2.075       -0.848       10.159       25.340       15.980       13.553      642.109      255.371      183.686        0.059        0.054        2.242        7.904       12.430      342.987       18.781      861.062
09/05/2013  03:27:00      -23.131       72.579      -12.075       28.393       47.072       20.287      806.175     2215.786      411.580        0.469        0.172       76.176       25.350        0.111      342.960       18.736      861.063
09/05/2013  03:28:00      -63.336       87.927      -19.017       23.694       48.931       12.532      561.407     2394.220      157.043        0.761        0.156      108.363       10.206        0.009      342.835       18.522      861.071
09/05/2013  03:29:00      -62.414       -5.142       -9.835       20.540       38.326       14.213      421.884     1468.891      202.015        0.306        0.105       62.625        8.671        0.019      342.672       18.246      861.088
09/05/2013  03:30:00      -73.546      -46.887       -7.039       31.379       17.911       14.892      984.611      320.797      221.767        0.459        0.076       87.221       16.239        0.035      342.749       18.376      861.130
09/05/2013  03:31:00      -32.856      -28.414        0.889       29.532       23.196       14.524      872.166      538.033      210.934        0.175        0.081       43.438       13.819        0.101      342.814       18.485      861.161
09/05/2013  03:32:00      -30.024      -12.806       -3.652        8.453       19.711        7.549       71.447      388.536       56.988        0.080        0.026       32.642        7.162        0.048      342.837       18.527      861.170
09/05/2013  03:33:00      -44.970       39.761       -7.608       15.864       10.071        6.419      251.661      101.422       41.198        0.203        0.020       60.027        5.688        0.009      343.122       19.012      861.141
09/05/2013  03:34:00      -40.811       82.057      -13.051       12.832       22.716        9.671      164.654      516.036       93.521        0.467        0.039       91.646       10.255        0.013      343.146       19.052      861.103
09/05/2013  03:35:00      -44.998       89.518      -15.804       17.206       25.992       13.874      296.055      675.594      192.491        0.573        0.058      100.192        6.553        0.004      343.218       19.174      861.081
09/05/2013  03:36:00      -69.331       33.937      -13.720       16.218       54.077       13.877      263.033     2924.369      192.558        0.476        0.169       77.191       17.044        0.049      343.178       19.108      861.098
09/05/2013  03:37:00      -56.660      -45.524        1.687       39.236       21.745       16.220     1539.481      472.864      263.094        0.378        0.114       72.682       20.964        0.083      342.834       18.520      861.123
09/05/2013  03:38:00      -53.010      -36.364       -2.459       31.269       25.641       14.686      977.778      657.485      215.678        0.299        0.093       64.284        8.482        0.017      342.744       18.368      861.148
09/05/2013  03:39:00      -60.939      -48.910        3.296       38.613       33.237       16.820     1490.990     1104.725      282.926        0.450        0.144       78.139       17.393        0.050      342.750       18.378      861.168
09/05/2013  03:40:00      -23.614      -62.647        2.587       36.107       31.168       19.728     1303.732      971.466      389.195        0.358        0.133       66.949       11.199        0.028      342.900       18.634      861.192
09/05/2013  03:41:00      -77.667       -8.566       -4.629       22.526       22.196       18.328      507.438      492.672      335.933        0.373        0.067       78.138       15.295        0.038      342.925       18.675      861.178
09/05/2013  03:42:00      -86.782       22.583       -1.462       23.323       17.387       14.250      543.943      302.319      203.074        0.455        0.052       89.672       11.918        0.018      342.875       18.591      861.133
09/05/2013  03:43:00      -86.330       11.362       -5.592       25.852       14.173       11.529      668.350      200.864      132.913        0.431        0.050       87.075        9.886        0.013      342.891       18.617      861.098
09/05/2013  03:44:00      -75.323      -14.607       -7.651       19.344       32.565       14.312      374.187     1060.483      204.836        0.379        0.082       76.726       10.735        0.020      342.889       18.614      861.090
09/05/2013  03:45:00      -59.499      -35.189       -5.740       18.106       16.872       14.572      327.830      284.673      212.354        0.282        0.041       69.126        9.544        0.019      342.760       18.396      861.116
09/05/2013  03:46:00      -38.643       12.841        2.703       29.610       33.162       20.661      876.763     1099.719      426.877        0.203        0.120       40.721       18.127        0.198      342.762       18.397      861.132
09/05/2013  03:47:00      -51.814       31.884       -1.029       22.111       26.733       15.922      488.897      714.669      253.510        0.258        0.073       60.838        8.536        0.020      342.870       18.582      861.141
09/05/2013  03:48:00      -59.650       45.953      -10.995       37.294       41.528       17.787     1390.815     1724.607      316.375        0.461        0.172       75.298       19.803        0.069      343.002       18.806      861.153
09/05/2013  03:49:00      -32.858      -20.697        0.946       20.525       28.868       13.189      421.279      833.368      173.958        0.147        0.071       38.833        4.334        0.012      342.907       18.644      861.164
09/05/2013  03:50:00      -68.504       21.609       -0.027       26.820       25.453       21.785      719.326      647.862      474.576        0.350        0.092       71.832       15.412        0.046      342.788       18.441      861.163
09/05/2013  03:51:00      -96.673       11.958       -8.114       25.526       23.596       13.963      651.579      556.753      194.975        0.548        0.070       97.410       11.137        0.013      342.817       18.493      861.149
09/05/2013  03:52:00      -60.162      -12.344       -1.843       27.527       31.053       18.071      757.759      964.278      326.575        0.291        0.102       61.415       17.358        0.080      342.643       18.197      861.147
09/05/2013  03:53:00      -99.537      -15.437      -10.649       29.697       31.187       15.544      881.916      972.651      241.611        0.618        0.105      100.727       16.338        0.026      342.582       18.093      861.148
09/05/2013  03:54:00     -103.136        4.129      -21.028       33.053       21.681       15.281     1092.516      470.058      233.520        0.645        0.090      103.219       17.273        0.028      342.461       17.888      861.146
09/05/2013  03:55:00      -99.139      -18.898      -10.452       27.433       21.324       16.623      752.579      454.726      276.328        0.589        0.074      100.924       16.375        0.026      342.507       17.966      861.151
09/05/2013  03:56:00     -112.659      -42.015      -12.038       20.329       18.922       17.767      413.252      358.032      315.662        0.784        0.054      120.239       10.899        0.008      342.425       17.828      861.157
09/05/2013  03:57:00     -104.642      -26.341       -5.441       36.108       21.309       17.044     1303.754      454.061      290.482        0.686        0.102      107.906       17.633        0.027      342.403       17.788      861.170
09/05/2013  03:58:00     -100.346      -47.791      -12.031       36.715       21.047       14.949     1347.983      442.972      223.464        0.726        0.101      111.146        9.052        0.007      342.378       17.748      861.186
09/05/2013  03:59:00     -112.502      -28.855       -8.097       31.764       29.533       17.526     1008.952      872.190      307.161        0.787        0.109      116.143       16.029        0.019      342.346       17.691      861.206
09/05/2013  04:00:00      -70.261      -32.170       -2.115       35.808       18.278       16.032     1282.238      334.085      257.016        0.392        0.094       77.275       19.941        0.067      342.369       17.731      861.211
09/05/2013  04:01:00       32.559      -42.960      -17.778       28.998       25.967       21.741      840.875      674.289      472.687        0.260        0.099       53.904       10.245        0.036      342.277       17.575      861.221
09/05/2013  04:02:00       44.408      -95.477      -15.195       29.301       29.418       22.096      858.552      865.427      488.221        0.677        0.111      105.299       13.139        0.016      342.384       17.757      861.251
09/05/2013  04:03:00       58.299      -50.049        8.565       37.748       52.393       31.225     1424.921     2744.999      974.982        0.556        0.257       76.835       35.931        0.219      342.572       18.074      861.279
09/05/2013  04:04:00      -25.240      -41.659        0.799       57.725       32.685       16.113     3332.176     1068.331      259.627        0.352        0.233       48.709       23.897        0.241      342.686       18.270      861.294
09/05/2013  04:05:00     -118.646      -37.174      -10.909       29.596       22.635       18.364      875.922      512.324      337.235        0.865        0.086      124.333       18.402        0.022      342.751       18.378      861.275
09/05/2013  04:06:00     -126.593      -35.245       -8.977       28.531       19.742       17.248      814.034      389.732      297.503        0.942        0.075      131.407       14.653        0.012      342.777       18.424      861.268
09/05/2013  04:07:00     -135.208      -25.698       -9.282       23.093       23.616       15.227      533.281      557.710      231.847        1.018        0.066      137.629       11.213        0.007      342.723       18.332      861.274
09/05/2013  04:08:00     -146.479      -49.373        2.878       21.869       14.632       13.996      478.267      214.106      195.900        1.239        0.044      154.576       12.444        0.006      342.544       18.028      861.269
09/05/2013  04:09:00      -60.967      -49.950       -0.665       38.502       25.984       17.738     1482.404      675.158      314.640        0.434        0.124       78.816       14.461        0.034      342.541       18.023      861.264
09/05/2013  04:10:00      -41.485      -24.506        1.832       22.685       17.486       16.510      514.589      305.763      272.574        0.171        0.055       48.182       14.298        0.088      342.552       18.040      861.255
09/05/2013  04:11:00      -28.307        1.884        2.693       14.911       10.855        9.490      222.346      117.830       90.069        0.062        0.022       28.370        8.212        0.084      342.517       17.982      861.241
09/05/2013  04:12:00        7.721       19.542        7.715       25.498       22.231       18.668      650.166      494.232      348.486        0.100        0.075       21.012       11.962        0.324      342.437       17.847      861.220
09/05/2013  04:13:00       56.177       40.296        6.295       28.173       32.559       19.715      793.705     1060.065      388.697        0.353        0.112       69.135       21.762        0.099      342.138       17.337      861.208
09/05/2013  04:14:00       12.375       13.963       17.813       21.463       21.343       10.844      460.643      455.513      117.583        0.085        0.052       18.658        6.888        0.136      342.192       17.428      861.204
09/05/2013  04:15:00       -7.561      -27.458      -14.210       32.028       33.096       21.210     1025.765     1095.326      449.844        0.179        0.129       28.480       19.734        0.480      342.221       17.479      861.195
09/05/2013  04:16:00      -15.830        9.403       -4.551       11.459       10.446       13.054      131.309      109.112      170.414        0.039        0.021       18.412        7.765        0.178      342.293       17.601      861.190
09/05/2013  04:17:00      -46.193       14.392       -3.632       26.993       14.111        8.669      728.635      199.122       75.148        0.168        0.050       48.383       12.067        0.062      342.370       17.731      861.204
09/05/2013  04:18:00      -85.748       18.654      -11.631        6.475       10.281        6.105       41.922      105.689       37.270        0.401        0.009       87.754        2.985        0.001      342.375       17.742      861.232
09/05/2013  04:19:00      -77.137        2.716       -9.050        7.660        6.818        5.707       58.681       46.479       32.572        0.309        0.007       77.185        3.805        0.002      342.414       17.807      861.243
09/05/2013  04:20:00      -60.741       -1.591      -10.482        9.893        9.484        7.018       97.864       89.955       49.259        0.202        0.012       60.761        3.640        0.004      342.344       17.684      861.221
09/05/2013  04:21:00      -43.512      -11.979       -6.276       17.794        8.439        6.492      316.624       71.210       42.144        0.125        0.021       45.131        6.112        0.018      342.384       17.758      861.185
09/05/2013  04:22:00      -18.420       20.413       -3.643       22.988       23.228       12.471      528.430      539.518      155.524        0.100        0.061       27.495       13.287        0.234      342.543       18.027      861.157
09/05/2013  04:23:00      -21.042       24.635       -1.316       16.558       33.208       16.241      274.159     1102.742      263.760        0.135        0.082       32.398       10.253        0.100      342.448       17.865      861.158
09/05/2013  04:24:00       24.602      -46.818      -11.635       17.971       26.072       22.197      322.968      679.760      492.704        0.221        0.075       52.888       13.294        0.063      342.310       17.629      861.186
09/05/2013  04:25:00       -8.388      -72.758      -15.297       24.432       27.488       14.724      596.931      755.563      216.810        0.358        0.078       73.240        6.984        0.009      342.389       17.763      861.243
09/05/2013  04:26:00      -10.024      -27.200        3.731       28.144       33.033       26.817      792.083     1091.152      719.176        0.173        0.130       28.988       17.357        0.359      342.304       17.620      861.286
09/05/2013  04:27:00      -36.935       -3.338        1.221       44.003       27.167       21.535     1936.245      738.021      463.751        0.226        0.157       37.085       22.306        0.362      342.343       17.686      861.277
09/05/2013  04:28:00      -66.872       27.055       -8.641       19.619       19.990       13.391      384.893      399.592      179.332        0.312        0.048       72.137        8.849        0.015      342.275       17.571      861.228
09/05/2013  04:29:00      -49.076       21.534       -4.918       29.516       22.989       13.721      871.222      528.478      188.272        0.224        0.079       53.592       15.747        0.086      342.170       17.393      861.202
09/05/2013  04:30:00      -69.979      -21.217       -8.802       19.770       35.109        9.741      390.848     1232.628       94.880        0.357        0.086       73.125        7.574        0.011      342.247       17.524      861.218
09/05/2013  04:31:00      -68.485      -30.508       -6.603       20.367       17.884       17.589      414.832      319.830      309.364        0.335        0.052       74.973       15.472        0.043      342.285       17.587      861.241
09/05/2013  04:32:00     -103.553      -43.538       -0.529       39.977       19.714       12.792     1598.128      388.634      163.636        0.738        0.108      112.334       13.982        0.015      342.260       17.546      861.248
09/05/2013  04:33:00     -134.978      -27.953      -11.947       16.515       22.905       13.102      272.752      524.646      171.654        1.006        0.048      137.842        7.611        0.003      342.204       17.450      861.243
09/05/2013  04:34:00     -116.677      -53.122       -7.995       25.044       17.816       11.268      627.221      317.402      126.971        0.879        0.054      128.201       10.646        0.007      342.169       17.390      861.234
09/05/2013  04:35:00     -106.325      -43.636      -11.061       14.997       16.529       12.606      224.896      273.202      158.923        0.699        0.033      114.931        7.465        0.004      342.064       17.211      861.227
09/05/2013  04:36:00      -85.481      -18.098       -5.373       31.181       31.045       15.037      972.275      963.817      226.113        0.491        0.108       87.375       13.012        0.022      342.006       17.113      861.210
09/05/2013  04:37:00      -81.918      -28.029      -11.762       23.946       29.409       12.673      573.425      864.877      160.614        0.462        0.080       86.581       12.687        0.021      341.918       16.964      861.188
09/05/2013  04:38:00      -93.899      -10.977       -9.984       28.812       29.480       17.642      830.124      869.062      311.225        0.552        0.101       94.539       13.912        0.022      341.940       17.001      861.172
09/05/2013  04:39:00     -120.684      -24.937      -17.520       31.464       33.470       19.974      989.964     1120.233      398.952        0.900        0.125      123.233       16.437        0.018      341.929       16.983      861.162
09/05/2013  04:40:00     -155.973      -48.431       -8.650       40.187       37.355       25.647     1615.009     1395.387      657.772        1.521        0.183      163.319       16.194        0.010      341.962       17.039      861.150
09/05/2013  04:41:00     -107.017      -29.840       -0.821       48.569       54.762       33.037     2358.990     2998.822     1091.436        0.940        0.322      111.099       25.696        0.053      341.894       16.922      861.152
09/05/2013  04:42:00     -149.727      -14.468      -11.518       40.847       34.033       22.883     1668.484     1158.268      523.644        1.305        0.168      150.425       23.629        0.025      341.972       17.056      861.160
09/05/2013  04:43:00      -93.874        8.856        0.398       41.678       38.587       30.246     1737.054     1488.959      914.806        0.651        0.207       94.290       26.041        0.076      341.968       17.050      861.168
09/05/2013  04:44:00     -101.779       20.506        9.339       74.205       37.067       38.578     5506.436     1373.938     1488.295        0.962        0.418      103.824       37.182        0.128      342.014       17.127      861.174
09/05/2013  04:45:00      -90.829       18.795       -5.975       61.358       43.287       32.370     3764.743     1873.738     1047.791        0.766        0.334       92.753       31.399        0.115      341.969       17.050      861.168
09/05/2013  04:46:00      -70.500      -23.275        1.590       54.358       51.055       23.522     2954.745     2606.567      553.285        0.581        0.306       74.242       16.150        0.047      341.911       16.951      861.173
09/05/2013  04:47:00     -134.217       -8.663       -4.913       52.382       47.405       26.156     2743.822     2247.228      684.146        1.189        0.284      134.496       27.365        0.041      341.879       16.899      861.181
09/05/2013  04:48:00     -104.869       -5.567       -5.948       51.120       44.142       22.571     2613.206     1948.500      509.458        0.807        0.254      105.017       27.923        0.071      341.839       16.829      861.183
09/05/2013  04:49:00      -84.607      -19.341       -0.879       44.729       45.151       23.221     2000.656     2038.603      539.199        0.605        0.229       86.789       24.763        0.081      341.802       16.768      861.156
09/05/2013  04:50:00     -100.728      -28.513       -0.916       33.682       38.213       17.013     1134.473     1460.197      289.445        0.692        0.144      104.686       12.271        0.014      341.865       16.874      861.140
09/05/2013  04:51:00      -98.537      -53.120       -8.858       22.528       21.673       18.096      507.518      469.715      327.468        0.696        0.065      111.943       10.411        0.009      341.942       17.004      861.141
09/05/2013  04:52:00      -95.329      -39.325       -1.518       26.748       33.420       21.392      715.474     1116.889      457.607        0.646        0.114      103.122       15.462        0.022      341.963       17.040      861.119
09/05/2013  04:53:00      -75.646      -25.124        1.493       33.601       24.555       17.829     1129.013      602.938      317.881        0.420        0.102       79.710       18.397        0.053      342.042       17.175      861.100
09/05/2013  04:54:00      -80.078       -1.177        1.955       61.095       28.632       24.463     3732.628      819.798      598.430        0.578        0.258       80.087       27.297        0.116      341.960       17.037      861.092
09/05/2013  04:55:00       16.018        2.372        5.372       19.074       30.514       18.412      363.805      931.121      339.007        0.096        0.082       16.193       11.864        0.537      341.852       16.851      861.070
09/05/2013  04:56:00      -59.480       10.347      -10.042       43.135       32.066       19.417     1860.629     1028.254      377.010        0.351        0.163       60.373       19.418        0.103      342.092       17.259      861.061
09/05/2013  04:57:00     -133.588       33.548       -4.202       66.866       44.947       32.442     4471.018     2020.233     1052.487        1.326        0.377      137.737       28.541        0.043      342.239       17.508      861.065
09/05/2013  04:58:00     -168.820       11.697      -18.276       47.691       46.451       27.400     2274.420     2157.655      750.733        1.708        0.259      169.225       16.810        0.010      342.195       17.434      861.068
09/05/2013  04:59:00     -151.827      -14.032      -10.024       58.523       52.119       28.049     3424.988     2716.343      786.754        1.514        0.346      152.474       29.678        0.038      342.149       17.357      861.077
09/05/2013  05:00:00     -133.623      -30.156       -3.235       47.389       45.841       24.825     2245.681     2101.381      616.301        1.187        0.248      136.984       23.325        0.029      341.997       17.099      861.111
09/05/2013  05:01:00     -116.787       13.684       -6.880       52.981       46.232       30.515     2807.008     2137.391      931.160        0.987        0.294      117.586       25.827        0.048      341.972       17.056      861.125
09/05/2013  05:02:00     -124.377       -3.151       -8.175       43.244       37.355       25.523     1870.050     1395.382      651.427        0.973        0.196      124.417       25.908        0.043      341.982       17.072      861.101
09/05/2013  05:03:00      -71.596        5.916      -11.291       30.359       30.181       16.552      921.659      910.863      273.974        0.370        0.105       71.840       12.502        0.030      341.984       17.077      861.067
09/05/2013  05:04:00      -75.512       24.930       -7.346       38.659       30.891       20.379     1494.503      954.229      415.307        0.462        0.143       79.521       15.499        0.038      341.985       17.078      861.050
09/05/2013  05:05:00      -68.210      -16.743       -2.990       42.131       24.297       19.481     1775.039      590.366      379.498        0.384        0.137       70.234       20.186        0.083      341.967       17.048      861.029
09/05/2013  05:06:00      -57.822      -36.869       -2.845       20.354       22.356       20.503      414.298      499.808      420.385        0.302        0.067       68.577       14.231        0.043      342.022       17.140      861.034
09/05/2013  05:07:00      -77.876      -31.979      -16.509       16.616       20.047       13.123      276.101      401.874      172.208        0.410        0.043       84.186        9.928        0.014      342.094       17.261      861.049
09/05/2013  05:08:00      -73.864      -24.710       -3.497       17.931       21.784       13.019      321.508      474.542      169.503        0.352        0.048       77.887        9.099        0.014      342.087       17.250      861.052
09/05/2013  05:09:00      -68.494      -47.313       -8.263       15.147       12.453        9.165      229.427      155.070       84.000        0.373        0.023       83.247        5.418        0.004      342.128       17.322      861.064
09/05/2013  05:10:00      -47.660      -41.859        2.012       24.575       19.122       16.283      603.950      365.637      265.151        0.263        0.062       63.432       15.038        0.056      342.153       17.365      861.086
09/05/2013  05:11:00      -96.901      -44.080        6.075       46.269       30.526       25.193     2140.781      931.836      634.695        0.754        0.185      106.456       24.632        0.054      342.103       17.279      861.107
09/05/2013  05:12:00      -87.621      -54.938        9.245       57.597       36.802       26.744     3317.362     1354.413      715.247        0.808        0.269      103.420       26.221        0.064      342.111       17.293      861.115
09/05/2013  05:13:00     -129.579      -69.185       -5.888       32.075       34.520       20.191     1028.820     1191.651      407.685        1.212        0.131      146.892       15.315        0.011      342.133       17.330      861.103
09/05/2013  05:14:00     -120.540      -38.401       -4.813       34.185       37.996       21.986     1168.613     1443.723      483.391        0.956        0.155      126.509       11.648        0.008      342.054       17.195      861.066
09/05/2013  05:15:00      -70.152       -8.761       -7.035       38.826       18.037       14.802     1507.497      325.340      219.086        0.355        0.103       70.697       16.429        0.054      341.846       16.842      861.033
09/05/2013  05:16:00      -46.954       47.984      -13.363       30.665       48.918       18.524      940.357     2393.009      343.156        0.418        0.184       67.135       22.656        0.114      341.936       16.994      861.008
09/05/2013  05:17:00      -55.133       35.243       -9.602       26.942       41.281       17.126      725.859     1704.144      293.315        0.355        0.136       65.434       16.768        0.066      342.025       17.147      860.995
09/05/2013  05:18:00      -86.775      -39.573       -9.459       26.957       27.968       18.668      726.704      782.205      348.481        0.552        0.093       95.373       11.182        0.014      342.018       17.134      861.010
09/05/2013  05:19:00     -106.014      -28.337       -3.095       59.134       31.200       23.194     3496.879      973.432      537.953        0.853        0.250      109.736       26.207        0.057      341.901       16.936      861.023
09/05/2013  05:20:00     -171.290      -42.459      -10.513       58.901       52.525       26.495     3469.279     2758.881      701.971        1.909        0.347      176.474       26.544        0.023      341.897       16.927      861.033
09/05/2013  05:21:00     -173.598        4.336      -16.072       64.104       44.537       34.334     4109.284     1983.554     1178.818        1.884        0.364      173.652       32.976        0.036      341.813       16.784      861.025
09/05/2013  05:22:00     -157.185       49.587      -15.877       60.367       39.734       30.423     3644.178     1578.826      925.556        1.678        0.307      164.821       27.937        0.029      341.868       16.879      860.999
09/05/2013  05:23:00     -137.282       29.194      -22.468       49.928       44.208       23.922     2492.854     1954.360      572.285        1.261        0.251      140.352       17.783        0.016      341.961       17.037      860.984
09/05/2013  05:24:00      -72.141       -2.791       -6.502       41.245       28.764       19.883     1701.186      827.391      395.320        0.409        0.146       72.195       16.785        0.054      342.000       17.104      860.977
09/05/2013  05:25:00        2.892        1.219        4.931       16.879       10.792       10.137      284.915      116.463      102.755        0.027        0.025        3.138        5.048        2.588      341.940       17.001      860.977
09/05/2013  05:26:00       -8.109       15.222       -3.234       12.904       18.468        5.573      166.500      341.076       31.058        0.042        0.027       17.248        5.323        0.095      342.099       17.272      860.964
09/05/2013  05:27:00      -21.255       -9.574       -2.986       11.776       16.084        6.329      138.679      258.685       40.054        0.049        0.022       23.311        2.938        0.016      342.080       17.239      860.961
09/05/2013  05:28:00      -24.947      -23.852       -8.163       29.649       14.463       12.265      879.093      209.165      150.427        0.125        0.062       34.515        9.468        0.075      341.979       17.069      860.967
09/05/2013  05:29:00       -3.043       -3.692        7.010        7.009       10.083       10.882       49.128      101.674      118.416        0.017        0.013        4.784        6.977        2.127      341.798       16.761      860.970
09/05/2013  05:30:00      -13.368      -15.263       -7.778       18.788       10.416       10.749      352.998      108.485      115.550        0.052        0.029       20.290        8.688        0.183      341.743       16.668      860.962
09/05/2013  05:31:00      -54.032      -21.143       -5.593       17.259       18.654        9.680      297.875      347.974       93.696        0.207        0.037       58.021        8.012        0.019      341.880       16.900      860.954
09/05/2013  05:32:00      -80.896      -28.795      -10.453       12.364        8.164        8.627      152.868       66.649       74.422        0.389        0.015       85.868        5.639        0.004      341.762       16.699      860.943
09/05/2013  05:33:00      -86.587      -22.665      -12.889       13.260       16.128       10.654      175.840      260.110      113.507        0.436        0.027       89.504        8.125        0.008      341.872       16.885      860.954
09/05/2013  05:34:00      -73.966      -31.838      -11.186       19.944       18.365       16.007      397.769      337.292      256.228        0.380        0.050       80.527        8.737        0.012      341.830       16.815      860.969
09/05/2013  05:35:00      -69.714      -20.416       -5.352       27.193       17.533       13.672      739.457      307.405      186.937        0.327        0.062       72.642        9.952        0.019      341.786       16.740      860.977
09/05/2013  05:36:00      -84.685       -1.353      -12.309       25.051       22.847       14.607      627.554      521.968      213.373        0.434        0.068       84.695       13.923        0.027      341.741       16.664      860.963
09/05/2013  05:37:00     -104.032       15.037      -22.827       32.745       22.658       13.196     1072.256      513.362      174.141        0.666        0.088      105.114        7.454        0.005      341.816       16.792      860.953
09/05/2013  05:38:00      -64.418        5.822      -10.425       24.563       18.743       12.899      603.324      351.287      166.387        0.271        0.056       64.681       12.127        0.035      341.803       16.770      860.939
09/05/2013  05:39:00      -86.655      -41.503       -3.880       38.368       28.852       19.036     1472.069      832.445      362.354        0.596        0.133       96.081       16.287        0.029      341.750       16.679      860.957
09/05/2013  05:40:00     -151.009      -55.267       -8.676       37.149       28.676       23.259     1380.055      822.318      540.985        1.434        0.137      160.805       16.687        0.011      341.710       16.611      860.976
09/05/2013  05:41:00     -131.264      -16.420       -4.865       38.740       36.109       21.439     1500.811     1303.873      459.615        1.039        0.163      132.287       14.216        0.012      341.644       16.500      860.986
09/05/2013  05:42:00     -140.986      -28.081       -8.590       64.977       32.883       29.022     4222.023     1081.316      842.291        1.344        0.307      143.756       35.044        0.059      341.651       16.512      860.991
09/05/2013  05:43:00     -127.700      -31.147       -4.100       64.707       49.296       33.714     4186.977     2430.119     1136.653        1.252        0.388      131.444       34.352        0.068      341.697       16.590      861.005
09/05/2013  05:44:00     -114.380      -24.726       -8.159       49.803       35.772       25.010     2480.343     1279.656      625.520        0.907        0.219      117.022       25.630        0.048      341.704       16.602      861.029
09/05/2013  05:45:00      -96.895      -54.195      -10.380       37.744       24.981       21.581     1424.621      624.051      465.756        0.747        0.126      111.021       20.997        0.036      341.676       16.553      861.040
09/05/2013  05:46:00      -62.711      -74.929       -5.161       54.022       29.853       19.972     2918.389      891.177      398.893        0.689        0.210       97.708       18.537        0.036      341.769       16.712      861.046
09/05/2013  05:47:00      -30.663      -99.899        0.356       31.968       34.137       21.601     1021.962     1165.351      466.615        0.679        0.133      104.499       20.495        0.038      341.980       17.070      861.080
09/05/2013  05:48:00       -1.077      -30.482       -0.595       27.146       39.864       22.807      736.888     1589.174      520.159        0.189        0.142       30.501       14.927        0.239      341.914       16.956      861.076
09/05/2013  05:49:00      -98.169      -17.517      -15.452       20.918       21.423       13.639      437.568      458.949      186.015        0.563        0.054       99.719       12.260        0.015      342.074       17.229      861.033
09/05/2013  05:50:00      -74.979       -6.688       -3.695       27.766       22.478       20.011      770.940      505.238      400.460        0.368        0.084       75.276       14.991        0.040      342.142       17.345      860.997
09/05/2013  05:51:00      -63.313      -12.785       -8.108       42.807       16.388       17.571     1832.450      268.571      308.745        0.332        0.120       64.590       22.082        0.117      342.169       17.390      860.975
09/05/2013  05:52:00        3.085      -85.921        8.967       53.986       69.075       36.708     2914.477     4771.289     1347.487        0.825        0.452       85.976       34.511        0.161      341.906       16.943      861.019
09/05/2013  05:53:00      -64.232      -43.851        1.078       60.442       51.960       22.178     3653.238     2699.893      491.845        0.645        0.342       77.773       23.666        0.093      341.716       16.622      861.040
09/05/2013  05:54:00      -59.657        2.691       -8.407       40.538       33.569       17.660     1643.310     1126.846      311.863        0.336        0.154       59.717       21.320        0.127      341.816       16.791      861.010
09/05/2013  05:55:00     -117.722      -32.690      -12.057       40.640       28.765       19.811     1651.586      827.450      392.493        0.897        0.144      122.177       26.045        0.045      341.853       16.853      861.005
09/05/2013  05:56:00     -100.751      -88.760        3.585       92.309       79.218       45.984     8520.980     6275.567     2114.488        1.747        0.846      134.273       39.675        0.087      341.726       16.638      861.060
09/05/2013  05:57:00     -192.943     -136.336        2.275       93.266       66.695       48.800     8698.492     4448.267     2381.433        3.567        0.776      236.251       48.972        0.043      341.725       16.633      861.082
09/05/2013  05:58:00     -151.063      -54.107       -0.161       53.400       48.217       27.180     2851.508     2324.841      738.759        1.583        0.296      160.461       25.299        0.025      341.812       16.784      861.066
09/05/2013  05:59:00     -102.703        2.869        2.847       58.543       42.692       34.302     3427.278     1822.638     1176.641        0.849        0.321      102.743       36.642        0.127      341.783       16.735      861.074
09/05/2013  06:00:00     -115.559      -84.381       -0.470       69.887       63.331       33.032     4884.147     4010.837     1091.080        1.523        0.499      143.087       30.994        0.047      341.813       16.785      861.119
09/05/2013  06:01:00     -169.878      -63.796       -3.791       63.476       53.210       43.739     4029.176     2831.347     1913.113        2.086        0.439      181.462       43.028        0.056      341.806       16.772      861.134
09/05/2013  06:02:00     -105.283      -39.727       -1.218       76.181       40.796       27.503     5803.572     1664.347      756.403        1.044        0.411      112.528       37.483        0.111      341.788       16.743      861.109
09/05/2013  06:03:00     -183.967      -52.357      -16.525       36.389       31.845       22.259     1324.193     1014.096      495.445        1.985        0.142      191.273       16.727        0.008      341.716       16.621      861.110
09/05/2013  06:04:00     -175.731      -21.335      -18.528       27.358       27.371       20.700      748.470      749.197      428.477        1.680        0.096      177.022       13.637        0.006      341.704       16.601      861.103
09/05/2013  06:05:00     -127.823      -31.317       -8.001       39.107       30.964       22.772     1529.324      958.787      518.561        1.019        0.150      131.603       20.203        0.024      341.647       16.504      861.110
09/05/2013  06:06:00      -30.825       -7.334      -18.313       30.009       24.596       17.840      900.538      604.982      318.257        0.158        0.091       31.686       10.465        0.109      341.621       16.461      861.127
09/05/2013  06:07:00     -121.899      -17.641      -24.118       38.212       34.057       29.566     1460.148     1159.902      874.177        0.962        0.175      123.169       27.338        0.049      341.556       16.349      861.121
09/05/2013  06:08:00      -71.332      -45.709        5.429       61.379       56.741       27.567     3767.340     3219.511      759.938        0.748        0.387       84.721       34.212        0.163      341.622       16.462      861.108
09/05/2013  06:09:00      -77.174      -25.636        1.731       31.016       36.479       20.364      962.019     1330.704      414.697        0.466        0.135       81.320       18.948        0.054      341.672       16.550      861.108
09/05/2013  06:10:00     -128.462      -19.632      -12.976       41.808       29.658       18.888     1747.945      879.617      356.765        1.002        0.149      129.953       15.629        0.014      341.742       16.667      861.104
09/05/2013  06:11:00     -120.288      -39.732      -12.064       33.504       32.882       22.541     1122.548     1081.224      508.085        0.945        0.136      126.680       19.582        0.024      341.726       16.638      861.124
09/05/2013  06:12:00      -78.750      -55.624        4.383       57.073       43.832       38.627     3257.291     1921.217     1492.056        0.799        0.334       96.414       37.968        0.155      341.670       16.544      861.132
09/05/2013  06:13:00      -11.757       -0.918       12.931       25.192       23.922       21.184      634.648      572.282      448.762        0.098        0.083       11.793        9.871        0.701      341.624       16.466      861.118
09/05/2013  06:14:00      -83.844      -60.588      -11.004       24.590       20.305       16.743      604.679      412.276      280.320        0.606        0.065      103.444        9.031        0.008      341.651       16.512      861.107
09/05/2013  06:15:00      -75.623      -56.929       -4.747       57.013       33.543       28.459     3250.482     1125.108      809.893        0.708        0.259       94.656       28.448        0.090      341.540       16.323      861.126
09/05/2013  06:16:00     -152.126      -48.225       -9.132       22.489       21.243       20.666      505.750      451.270      427.072        1.347        0.069      159.587       16.461        0.011      341.547       16.336      861.140
09/05/2013  06:17:00     -148.143      -57.736       -5.080       36.913       39.620       20.769     1362.586     1569.733      431.370        1.433        0.168      158.996       15.798        0.010      341.585       16.400      861.147
09/05/2013  06:18:00     -133.036       -9.131      -12.186       33.236       24.208       17.794     1104.632      586.032      316.631        0.997        0.100      133.349       16.083        0.015      341.675       16.552      861.135
09/05/2013  06:19:00     -129.763        3.570       -9.642       33.760       28.897       23.536     1139.769      835.059      553.927        0.974        0.126      129.812       15.916        0.015      341.920       16.968      861.127
09/05/2013  06:20:00      -66.837       -2.920       -2.286       62.391       31.945       27.180     3892.624     1020.512      738.743        0.507        0.283       66.901       32.020        0.229      341.861       16.868      861.153
09/05/2013  06:21:00       -1.947       -8.784       17.199       32.399       18.415       16.722     1049.669      339.108      279.619        0.102        0.083        8.997       18.676        4.308      341.604       16.431      861.191
09/05/2013  06:22:00       13.302        1.886       21.035       16.502       12.717       13.443      272.307      161.721      180.712        0.062        0.031       13.436        5.627        0.175      341.568       16.370      861.223
09/05/2013  06:23:00      -62.924      -24.675       -7.336       30.260       16.497       11.055      915.691      272.143      122.219        0.297        0.066       67.589       15.123        0.050      341.735       16.653      861.220
09/05/2013  06:24:00      -43.722      -25.198        6.153       35.729       19.083       14.436     1276.582      364.160      208.406        0.222        0.092       50.464       12.095        0.057      341.655       16.519      861.222
09/05/2013  06:25:00      -68.857      -25.725        0.099       35.502       19.762       19.350     1260.404      390.540      374.404        0.371        0.101       73.506        9.511        0.017      341.651       16.512      861.226
09/05/2013  06:26:00     -101.408      -68.339      -11.532       35.386       23.349       17.397     1252.185      545.168      302.649        0.859        0.105      122.286        5.164        0.002      341.500       16.256      861.218
09/05/2013  06:27:00      -90.966      -78.168       -8.256       60.524       33.583       23.333     3663.143     1127.835      544.442        0.989        0.267      119.937       24.576        0.042      341.423       16.126      861.220
09/05/2013  06:28:00     -124.809      -24.545       -6.273       30.621       18.637       16.766      937.663      347.334      281.106        0.889        0.078      127.200       11.943        0.009      341.307       15.929      861.226
09/05/2013  06:29:00     -120.998      -55.278       -4.681       40.682       41.388       28.186     1655.059     1712.995      794.463        1.094        0.208      133.028       24.600        0.034      341.260       15.848      861.235
09/05/2013  06:30:00     -167.151      -21.367       -9.957       47.500       41.448       26.546     2256.275     1717.921      704.676        1.659        0.234      168.511       30.363        0.032      341.227       15.794      861.230
09/05/2013  06:31:00     -113.238      -26.811       -8.254       50.667       30.917       23.636     2567.157      955.839      558.644        0.884        0.204      116.369       23.690        0.041      341.316       15.944      861.222
09/05/2013  06:32:00      -71.800        9.495       -0.686       44.041       50.695       28.312     1939.620     2569.953      801.585        0.528        0.266       72.426       26.200        0.131      341.380       16.052      861.210
09/05/2013  06:33:00     -101.189       25.316        0.567       51.312       43.987       35.774     2632.905     1934.823     1279.758        0.836        0.292      104.307       22.044        0.045      341.415       16.111      861.195
09/05/2013  06:34:00     -133.696      -20.611       -2.182       52.098       42.284       26.559     2714.172     1787.930      705.355        1.175        0.260      135.276       22.559        0.028      341.487       16.233      861.198
09/05/2013  06:35:00     -150.192      -47.497      -12.353       49.958       53.015       24.374     2495.845     2810.605      594.074        1.543        0.295      157.523       23.645        0.023      341.412       16.106      861.197
09/05/2013  06:36:00     -193.821      -55.970      -22.860       35.969       37.479       20.231     1293.773     1404.707      409.303        2.216        0.155      201.741       19.275        0.009      341.247       15.828      861.206
09/05/2013  06:37:00     -183.068      -51.172      -17.058       68.915       42.502       30.543     4749.264     1806.456      932.903        2.195        0.374      190.086       35.134        0.034      341.187       15.725      861.197
09/05/2013  06:38:00     -116.509      -28.868      -10.293       50.217       39.019       20.647     2521.707     1522.501      426.283        0.949        0.224      120.032       22.937        0.037      341.221       15.783      861.206
09/05/2013  06:39:00     -118.631      -27.629       -4.376       44.714       30.301       21.696     1999.367      918.159      470.726        0.912        0.169      121.806       22.717        0.035      341.150       15.663      861.243
09/05/2013  06:40:00      -80.548      -13.869      -13.251       25.705       12.587       15.659      660.767      158.439      245.205        0.396        0.053       81.733       12.446        0.023      341.272       15.872      861.269
09/05/2013  06:41:00      -86.690      -26.318       -7.568       25.953       26.491       19.919      673.559      701.765      396.771        0.502        0.089       90.597       15.986        0.031      341.379       16.051      861.263
09/05/2013  06:42:00      -38.341       19.144       -7.179       20.858       32.868       15.173      435.061     1080.312      230.218        0.182        0.087       42.855        4.057        0.009      341.399       16.084      861.228
09/05/2013  06:43:00      -41.194       46.151       -8.605       17.319       24.110       19.095      299.958      581.311      364.609        0.257        0.062       61.861       14.705        0.057      341.536       16.317      861.207
09/05/2013  06:44:00      -18.894        9.937       -1.631       26.459       21.111       11.400      700.076      445.691      129.958        0.087        0.064       21.348       11.815        0.306      341.498       16.251      861.204
09/05/2013  06:45:00      -94.549      -25.730      -11.051       21.627       23.852       14.839      467.725      568.932      220.210        0.549        0.063       97.987        3.927        0.002      341.448       16.168      861.177
09/05/2013  06:46:00      -99.568      -54.733      -12.911       33.829       30.086       14.235     1144.405      905.174      202.641        0.766        0.113      113.620       15.628        0.019      341.265       15.858      861.159
09/05/2013  06:47:00      -23.895       -9.533      -12.359       44.642       32.150       25.653     1992.884     1033.599      658.069        0.225        0.184       25.726       11.663        0.206      341.345       15.994      861.184
09/05/2013  06:48:00      -49.018       51.048      -19.420       17.635       17.905       19.719      310.994      320.602      388.850        0.320        0.051       70.771        8.750        0.015      341.504       16.262      861.178
09/05/2013  06:49:00      -62.440       40.535      -18.945       17.162       21.444       10.096      294.551      459.844      101.921        0.338        0.043       74.444        8.591        0.013      341.681       16.564      861.182
09/05/2013  06:50:00      -13.904        8.066       -9.087       45.948       38.971       15.041     2111.242     1518.749      226.245        0.210        0.193       16.074       22.528        1.964      341.749       16.677      861.206
09/05/2013  06:51:00       19.159      -73.018      -11.139       17.409       33.035       20.864      303.070     1091.280      435.296        0.383        0.091       75.490       19.035        0.064      341.556       16.349      861.245
09/05/2013  06:52:00      -72.716      -18.885        5.871       40.766       23.905       19.496     1661.896      571.439      380.075        0.415        0.131       75.129       25.769        0.118      341.491       16.241      861.254
09/05/2013  06:53:00     -101.060      -46.138       -4.612       31.996       27.902       13.892     1023.746      778.517      192.994        0.718        0.100      111.093       13.229        0.014      341.533       16.311      861.250
09/05/2013  06:54:00      -34.836      -28.313        3.230       21.696       30.705       13.569      470.718      942.812      184.110        0.181        0.080       44.890       15.217        0.115      341.576       16.384      861.246
09/05/2013  06:55:00      -54.291        0.639       -6.325       24.266       11.392        8.230      588.851      129.766       67.725        0.189        0.039       54.294       10.053        0.034      341.593       16.412      861.225
09/05/2013  06:56:00      -18.841       -9.132        0.794       29.763       13.746       11.982      885.817      188.943      143.576        0.083        0.061       20.937       16.196        0.598      341.632       16.479      861.219
09/05/2013  06:57:00        9.298      -30.171       -0.877       19.721       14.984       16.373      388.930      224.506      268.072        0.094        0.044       31.571       13.486        0.182      341.676       16.555      861.240
09/05/2013  06:58:00      -63.681       18.819       -0.786       50.948       18.406       19.645     2595.693      338.765      385.924        0.386        0.166       66.404       29.914        0.203      341.635       16.485      861.228
09/05/2013  06:59:00      -87.128       18.796      -13.652       24.145       13.964        7.494      583.002      194.990       56.165        0.448        0.042       89.132        4.119        0.002      341.617       16.453      861.193
09/05/2013  07:00:00      -41.569       18.645       -8.371       16.799       11.398       11.615      282.212      129.913      134.913        0.135        0.027       45.559       10.271        0.051      341.572       16.378      861.167
09/05/2013  07:01:00       12.184       26.109       -5.473       21.628       14.011        9.212      467.783      196.322       84.860        0.080        0.037       28.812        4.130        0.021      341.755       16.688      861.154
09/05/2013  07:02:00       11.830       15.006       10.523       22.316       32.537       14.292      497.993     1058.637      204.261        0.112        0.088       19.108       13.958        0.534      341.641       16.495      861.176
09/05/2013  07:03:00       24.334       21.812       10.400       14.257       12.658       17.721      203.258      160.228      314.020        0.093        0.034       32.678       10.117        0.096      341.761       16.699      861.197
09/05/2013  07:04:00      -32.998       60.514      -14.011       21.765       21.116       11.839      473.697      445.895      140.160        0.300        0.053       68.926       13.743        0.040      341.824       16.804      861.177
09/05/2013  07:05:00      -62.933       64.796      -15.486       16.939       19.321       13.119      286.943      373.287      172.098        0.462        0.042       90.328       11.975        0.018      341.601       16.425      861.135
09/05/2013  07:06:00      -35.418       28.469       -0.795       19.021       35.903       17.167      361.802     1289.043      294.709        0.201        0.097       45.441       19.713        0.188      341.702       16.597      861.116
09/05/2013  07:07:00       -8.610      -26.561        3.089       25.616       19.220       17.490      656.157      369.424      305.895        0.106        0.067       27.922       10.364        0.138      341.840       16.831      861.131
09/05/2013  07:08:00      -22.023      -29.127       -4.280       17.410       17.270       12.712      303.114      298.241      161.598        0.106        0.038       36.516       10.039        0.076      341.787       16.741      861.145
09/05/2013  07:09:00       21.005       25.546        6.721       22.044       26.549       21.427      485.934      704.867      459.125        0.139        0.082       33.073       13.993        0.179      341.956       17.028      861.125
09/05/2013  07:10:00        3.050       56.513       -3.358       18.556       16.397        8.777      344.340      268.860       77.034        0.195        0.035       56.595        6.738        0.014      342.138       17.338      861.103
09/05/2013  07:11:00        1.155       50.431       -2.856       17.889       17.721        7.300      320.022      314.037       53.290        0.162        0.034       50.444        7.833        0.024      342.225       17.485      861.104
09/05/2013  07:12:00       -0.521       96.211       -6.478       10.608       16.688        7.061      112.534      278.481       49.854        0.487        0.022       96.212        5.063        0.003      342.336       17.675      861.088
09/05/2013  07:13:00      -21.468       84.633      -11.149       13.711       11.802        8.674      187.998      139.276       75.243        0.408        0.020       87.313        5.325        0.004      342.239       17.509      861.060
09/05/2013  07:14:00       -3.894       84.095        0.049       24.082       13.591       14.794      579.941      184.707      218.863        0.404        0.049       84.185       11.365        0.018      342.290       17.598      861.058
09/05/2013  07:15:00       70.274       54.672        7.707       36.369       21.758       21.056     1322.720      473.431      443.352        0.511        0.112       89.036       12.887        0.021      342.236       17.505      861.057
09/05/2013  07:16:00       70.296       45.156       10.078       31.011       16.309       18.279      961.712      265.975      334.126        0.432        0.078       83.550       12.186        0.021      342.279       17.576      861.072
09/05/2013  07:17:00       32.336        8.868        6.041       18.995       14.320       15.251      360.801      205.049      232.594        0.098        0.040       33.530       10.727        0.102      342.266       17.555      861.087
09/05/2013  07:18:00       15.421       12.749        6.155       23.246       14.782       17.384      540.383      218.496      302.192        0.075        0.053       20.009       11.488        0.330      342.382       17.752      861.106
09/05/2013  07:19:00       28.337       22.352        4.914       13.042       23.008       15.620      170.096      529.378      243.998        0.113        0.047       36.091       10.543        0.085      342.302       17.617      861.132
09/05/2013  07:20:00       -4.289       64.115       -4.493       29.141       17.280       10.969      849.178      298.597      120.320        0.271        0.063       64.259       10.510        0.027      342.569       18.070      861.117
09/05/2013  07:21:00      -43.261       12.436       -4.916        9.944       24.200        9.110       98.875      585.659       82.990        0.141        0.038       45.013       10.682        0.056      342.289       17.593      861.113
09/05/2013  07:22:00      -74.119      -30.053       -4.714       41.425       17.802       11.500     1716.038      316.896      132.241        0.429        0.108       79.980        5.849        0.005      342.014       17.127      861.136
09/05/2013  07:23:00     -123.202      -51.164       -4.309       43.903       23.226       17.184     1927.482      539.434      295.287        1.029        0.138      133.403       10.135        0.006      341.955       17.026      861.180
09/05/2013  07:24:00      -88.605      -20.502       -4.067       45.317       25.519       18.608     2053.612      651.198      346.256        0.567        0.153       90.946       24.436        0.072      342.019       17.134      861.194
09/05/2013  07:25:00      -44.506      -25.329       -5.473       38.585       15.532       12.830     1488.794      241.250      164.621        0.227        0.095       51.209       13.549        0.070      342.067       17.217      861.212
09/05/2013  07:26:00      -38.989      -76.303       -0.409       35.729       30.899       25.400     1276.538      954.718      645.156        0.511        0.144       85.687       22.891        0.071      342.129       17.324      861.211
09/05/2013  07:27:00       -3.208       -4.423        9.979       28.031       25.770       20.173      785.755      664.102      406.938        0.099        0.093        5.463       20.005       13.408      342.249       17.527      861.194
09/05/2013  07:28:00       26.826        8.741        8.191       37.737       43.158       23.269     1424.107     1862.644      541.438        0.234        0.191       28.214       20.761        0.541      342.196       17.438      861.172
09/05/2013  07:29:00       18.494      -72.719      -14.019       27.079       31.611       22.114      733.292      999.227      489.046        0.402        0.111       75.034       16.259        0.047      342.180       17.407      861.198
09/05/2013  07:30:00       12.588      -37.453        6.208       24.461       33.516       21.884      598.331     1123.332      478.892        0.190        0.110       39.512       22.073        0.312      342.572       18.076      861.198
09/05/2013  07:31:00       -6.724       10.747       28.023       13.594       17.001       18.422      184.807      289.021      339.367        0.088        0.041       12.677       11.447        0.815      342.607       18.136      861.182
09/05/2013  07:32:00       15.393      -56.438        2.773       26.644       41.607       33.013      709.891     1731.119     1089.872        0.348        0.177       58.500       23.008        0.155      342.296       17.606      861.198
09/05/2013  07:33:00       -6.330       -1.654       16.981       17.188       18.612       11.973      295.418      346.394      143.345        0.056        0.039        6.543        6.722        1.056      342.414       17.807      861.172
09/05/2013  07:34:00      -49.415      -26.878       -3.840       34.495       25.155       17.332     1189.883      632.763      300.408        0.265        0.106       56.252        8.153        0.021      342.288       17.593      861.160
09/05/2013  07:35:00      -22.732       -2.316       -5.746       11.889       11.457       14.010      141.341      131.252      196.289        0.051        0.023       22.849        6.184        0.073      342.399       17.782      861.154
09/05/2013  07:36:00        3.913       -7.497        7.995       17.404       15.617       11.339      302.905      243.885      128.567        0.041        0.034        8.456        6.907        0.667      342.491       17.938      861.148
09/05/2013  07:37:00       19.882      -10.092       20.305       28.865       32.791       27.607      833.164     1075.228      762.158        0.179        0.134       22.297       29.105        1.704      342.416       17.810      861.195
09/05/2013  07:38:00        9.781        3.243       21.751       35.393       25.743       19.540     1252.655      662.720      381.805        0.144        0.115       10.305       22.254        4.664      342.316       17.641      861.195
09/05/2013  07:39:00       21.447      -32.314       -8.490       32.715       25.055       21.731     1070.263      627.768      472.226        0.187        0.109       38.784       17.578        0.205      342.187       17.422      861.172
09/05/2013  07:40:00       -8.290      -46.555        2.419       24.197       26.604       19.850      585.486      707.789      394.010        0.196        0.084       47.287       19.354        0.168      342.522       17.989      861.180
09/05/2013  07:41:00        0.884        7.881        5.526       16.328       19.778       23.746      266.593      391.185      563.865        0.066        0.061        7.931       15.619        3.879      342.461       17.887      861.151
09/05/2013  07:42:00      -51.305       43.440       -3.563       28.775       28.834       17.890      827.986      831.416      320.049        0.326        0.099       67.225       17.720        0.069      342.684       18.264      861.122
09/05/2013  07:43:00       -8.210       48.887        0.858       24.791       20.672       17.803      614.580      427.316      316.933        0.191        0.068       49.571       14.183        0.082      342.664       18.232      861.104
09/05/2013  07:44:00        8.860       37.714        0.988       20.875       25.150       15.046      435.752      632.513      226.390        0.140        0.065       38.740       13.624        0.124      342.795       18.455      861.087
09/05/2013  07:45:00       25.766      -93.206      -11.716       45.505       70.104       24.759     2070.683     4914.595      613.014        0.854        0.380       96.702       20.359        0.044      342.760       18.394      861.121
09/05/2013  07:46:00       23.878      -13.510        4.199       60.783       53.772       34.676     3694.593     2891.450     1202.460        0.428        0.389       27.435       25.452        0.861      342.737       18.356      861.120
09/05/2013  07:47:00       -7.239        3.691       15.001       22.239       14.496       21.090      494.591      210.120      444.802        0.072        0.057        8.125       15.512        3.645      342.972       18.756      861.113
09/05/2013  07:48:00        1.491      -27.510       13.995       40.150       25.051       19.709     1612.055      627.530      388.461        0.179        0.131       27.551       22.372        0.659      342.943       18.707      861.138
09/05/2013  07:49:00      -93.762      -72.200       -4.006       51.145       43.468       32.943     2615.794     1889.490     1085.256        0.980        0.280      118.339       28.091        0.056      342.659       18.223      861.133
09/05/2013  07:50:00     -126.514      -82.257       -8.067       31.400       51.752       23.316      985.987     2678.243      543.631        1.352        0.210      150.904       24.177        0.026      342.653       18.211      861.107
09/05/2013  07:51:00      -84.707      -34.836      -10.369       30.841       10.926       13.562      951.171      119.385      183.928        0.488        0.063       91.591       13.236        0.021      342.794       18.453      861.056
09/05/2013  07:52:00      -35.995      -33.131       -4.561        9.006       14.094        9.974       81.101      198.653       99.488        0.140        0.019       48.921        7.333        0.022      342.922       18.671      861.060
09/05/2013  07:53:00      -11.638      -43.232       -8.019       23.093       17.286       16.221      533.273      298.804      263.131        0.158        0.055       44.771       11.687        0.068      342.862       18.569      861.069
09/05/2013  07:54:00      -44.584      -88.327       -3.073       42.721       42.701       24.857     1825.054     1823.398      617.850        0.703        0.213       98.942       20.621        0.043      342.891       18.617      861.092
09/05/2013  07:55:00      -90.496      -92.043       -9.494       37.230       41.216       20.904     1386.085     1698.765      436.988        1.014        0.176      129.080       17.065        0.017      342.883       18.604      861.098
09/05/2013  07:56:00     -105.462      -98.091      -10.115       40.034       43.627       25.516     1602.712     1903.357      651.088        1.250        0.208      144.028       23.665        0.027      342.889       18.614      861.058
09/05/2013  07:57:00      -66.060     -145.578       -3.575       47.240       31.727       22.277     2231.657     1006.591      496.258        1.465        0.187      159.865       17.681        0.012      342.857       18.562      861.080
09/05/2013  07:58:00      -48.639      -88.198        2.739       33.147       29.414       18.793     1098.717      865.180      353.182        0.623        0.116      100.720       16.866        0.028      343.007       18.817      861.078
09/05/2013  07:59:00      -68.113      -75.397        1.198       53.964       44.960       20.410     2912.162     2021.361      416.582        0.784        0.268      101.608       12.221        0.014      342.990       18.787      861.024
09/05/2013  08:00:00      -57.976      -47.390       11.941       54.629       68.140       27.184     2984.345     4643.088      738.981        0.706        0.418       74.880       38.166        0.260      343.146       19.053      860.981
09/05/2013  08:01:00      -41.490      -29.410       14.929       34.797       31.134       20.773     1210.856      969.347      431.533        0.271        0.131       50.856       22.912        0.203      343.171       19.095      860.944
09/05/2013  08:02:00      -45.044      -20.840       -3.808       23.093       17.594        8.358      533.307      309.554       69.849        0.170        0.046       49.631        9.973        0.040      342.949       18.717      860.918
09/05/2013  08:03:00       15.880      -40.576      -14.210       47.605       41.436       18.330     2266.225     1716.903      335.983        0.321        0.216       43.573       11.008        0.064      342.875       18.593      860.935
09/05/2013  08:04:00       30.359       23.209       10.197       29.992       25.973       22.223      899.539      674.604      493.856        0.182        0.103       38.215       13.763        0.130      343.069       18.921      860.930
09/05/2013  08:05:00       11.697      -10.651       12.505       30.561       46.861       24.953      933.950     2195.932      622.642        0.208        0.188       15.819       24.707        2.439      343.146       19.051      860.923
09/05/2013  08:06:00       42.532      -62.631       -6.204       33.341       31.970       21.219     1111.643     1022.061      450.231        0.418        0.129       75.707       19.285        0.065      343.457       19.582      860.926
09/05/2013  08:07:00       45.545       -8.729       28.011       35.758       27.526       30.336     1278.640      757.666      920.285        0.295        0.148       46.374       23.120        0.249      343.608       19.841      860.921
09/05/2013  08:08:00       62.595      -66.331       14.073       58.276       77.741       49.003     3396.057     6043.640     2401.254        1.018        0.592       91.203       54.626        0.359      343.737       20.059      860.929
09/05/2013  08:09:00       17.591      -58.080       -6.793       58.538       50.166       24.374     3426.642     2516.606      594.083        0.513        0.327       60.686       27.364        0.203      343.595       19.818      860.912
09/05/2013  08:10:00      -26.188       -2.273       18.188       28.478       19.727       17.880      811.010      389.151      319.693        0.127        0.076       26.287       16.839        0.410      343.939       20.405      860.895
09/05/2013  08:11:00      -59.739      -41.406        1.832       33.703       30.206       18.152     1135.921      912.381      329.499        0.383        0.119       72.685       10.380        0.020      343.419       19.518      860.896
09/05/2013  08:12:00      -62.905      -33.995        4.482       36.522       30.403       26.860     1333.863      924.340      721.476        0.406        0.149       71.503       23.110        0.104      343.462       19.590      860.908
09/05/2013  08:13:00      -37.767      -26.400        3.481       16.477       12.269       10.729      271.482      150.521      115.115        0.134        0.027       46.079        8.483        0.034      343.419       19.516      860.913
09/05/2013  08:14:00      -26.074      -15.032       -0.283       16.079       12.191        9.788      258.531      148.626       95.809        0.070        0.025       30.096        9.237        0.094      343.579       19.790      860.901
09/05/2013  08:15:00       -8.744        0.747       23.643       18.464       17.680       11.866      340.902      312.593      140.811        0.072        0.040        8.776        6.802        0.601      344.054       20.601      860.882
09/05/2013  08:16:00      -22.123      -27.310        6.796       17.364       14.182       11.118      301.525      201.132      123.609        0.095        0.031       35.147        9.913        0.080      343.467       19.600      860.882
09/05/2013  08:17:00      -58.860        0.927       -2.694       13.075        9.461       10.233      170.957       89.504      104.719        0.192        0.018       58.867        6.730        0.013      343.416       19.514      860.878
09/05/2013  08:18:00      -59.234        5.123       -3.079        6.828       12.002        5.781       46.617      144.047       33.415        0.188        0.011       59.455        5.125        0.007      343.468       19.601      860.882
09/05/2013  08:19:00      -58.063       11.717        1.972       18.396       16.511       12.614      338.401      272.598      159.117        0.214        0.039       59.234       12.943        0.048      343.586       19.800      860.893
09/05/2013  08:20:00      -59.177      -19.191       -3.375       10.937       12.247        9.591      119.608      149.986       91.989        0.212        0.018       62.211        5.520        0.008      343.638       19.890      860.908
09/05/2013  08:21:00      -39.963      -19.425       -3.541       29.779       17.651       12.620      886.776      311.543      159.258        0.167        0.068       44.434        8.954        0.041      343.840       20.235      860.916
09/05/2013  08:22:00       -9.702       -6.414        0.525       13.397       11.677       13.889      179.484      136.359      192.913        0.032        0.025       11.631        5.042        0.188      344.125       20.722      860.921
09/05/2013  08:23:00      -10.049       -2.393       -0.817       12.795       12.965        8.142      163.704      168.086       66.291        0.025        0.020       10.330        3.387        0.108      344.094       20.669      860.920
09/05/2013  08:24:00      -11.815       -7.038      -19.783       18.887       12.964       10.572      356.718      168.053      111.774        0.061        0.032       13.752        8.319        0.366      343.851       20.253      860.913
09/05/2013  08:25:00        1.378       92.603      -10.222       20.429       47.520       18.203      417.337     2258.131      331.346        0.584        0.150       92.613       21.902        0.056      344.029       20.559      860.896
09/05/2013  08:26:00        7.128       63.441        7.101       25.143       49.072       30.161      632.159     2408.106      909.710        0.404        0.197       63.840       27.827        0.190      344.402       21.194      860.881
09/05/2013  08:27:00        1.887       46.257       17.674       29.309       38.012       32.126      859.004     1444.926     1032.066        0.290        0.167       46.295       27.150        0.344      344.554       21.455      860.860
09/05/2013  08:28:00        8.610       15.223       10.515       27.956       28.547       22.065      781.566      814.932      486.847        0.125        0.104       17.489       14.305        0.669      344.419       21.225      860.845
09/05/2013  08:29:00       18.840        2.612        9.653       27.809       21.557       18.647      773.320      464.702      347.711        0.102        0.079       19.020       18.278        0.924      344.517       21.392      860.846
09/05/2013  08:30:00      -12.536       21.672       15.257       18.787       22.733       16.532      352.958      516.782      273.307        0.100        0.057       25.037       13.555        0.293      344.748       21.787      860.849
09/05/2013  08:31:00        6.002       39.755        7.866       26.121       35.258       26.798      682.285     1243.112      718.126        0.216        0.132       40.206       24.315        0.366      344.913       22.070      860.851
09/05/2013  08:32:00        6.054      101.249       -2.063       30.952       38.505       30.248      958.053     1482.668      914.921        0.682        0.168      101.430       26.163        0.067      344.609       21.551      860.839
09/05/2013  08:33:00       -0.990       92.602        4.790       21.984       41.703       29.570      483.294     1739.100      874.408        0.585        0.155       92.608       25.548        0.076      344.718       21.735      860.830
09/05/2013  08:34:00       -8.161      114.602        7.449       23.084       41.727       33.273      532.886     1741.142     1107.101        0.832        0.169      114.892       27.530        0.057      344.709       21.722      860.831
09/05/2013  08:35:00        1.484       53.359       17.877       25.204       47.762       27.670      635.256     2281.225      765.652        0.342        0.184       53.380       27.814        0.271      344.929       22.096      860.840
09/05/2013  08:36:00        1.299        4.061       13.391       21.044       15.818       20.476      442.847      250.212      419.256        0.065        0.056        4.264       15.333       12.932      345.090       22.373      860.833
09/05/2013  08:37:00       -7.462        9.635       27.066       16.545       10.118        8.608      273.738      102.378       74.097        0.067        0.023       12.187        6.711        0.303      345.279       22.696      860.837
09/05/2013  08:38:00       12.674      -38.790       -1.207       23.837       23.488       20.015      568.184      551.682      400.603        0.159        0.076       40.808       14.438        0.125      344.406       21.203      860.875
09/05/2013  08:39:00       24.533       15.390        4.604       19.232       14.021       23.741      369.864      196.580      563.638        0.099        0.057       28.961       12.621        0.190      344.586       21.511      860.868
09/05/2013  08:40:00       16.577       36.706       10.065       19.604       23.337       18.228      384.309      544.621      332.262        0.149        0.063       40.276       16.949        0.177      345.130       22.442      860.844
09/05/2013  08:41:00       -7.732       29.133        1.191       27.070       25.540       23.725      732.797      652.285      562.895        0.143        0.097       30.142       20.232        0.451      345.244       22.637      860.835
09/05/2013  08:42:00      -31.432      -21.222       -1.240       30.970       18.355       12.510      959.117      336.898      156.504        0.145        0.073       37.926       11.870        0.098      344.849       21.962      860.841
09/05/2013  08:43:00       -7.307        2.194        3.591       18.284       21.174       18.389      334.309      448.322      338.147        0.060        0.056        7.629       17.132        5.043      345.056       22.313      860.841
09/05/2013  08:44:00      -22.566       30.916        3.476       17.726       24.099       23.755      314.211      580.773      564.299        0.147        0.073       38.276       14.369        0.141      345.005       22.226      860.813
09/05/2013  08:45:00       -6.568      -11.786       10.049        9.898       15.927       12.373       97.980      253.680      153.098        0.039        0.025       13.493        8.536        0.400      345.312       22.754      860.805
09/05/2013  08:46:00      -12.386      -35.023        0.744       13.365       27.819       13.375      178.621      773.880      178.900        0.126        0.057       37.149       14.566        0.154      345.031       22.274      860.817
09/05/2013  08:47:00        7.385        0.938       24.921       31.820       35.140       32.505     1012.508     1234.839     1056.571        0.199        0.165        7.445       26.314       12.493      345.077       22.350      860.825
09/05/2013  08:48:00        7.136       11.384       35.087       29.282       32.862       34.904      857.412     1079.887     1218.315        0.228        0.158       13.436       32.737        5.937      345.853       23.680      860.834
09/05/2013  08:49:00       -5.614        0.586       28.491       17.103       23.249       23.030      292.502      540.503      530.359        0.110        0.068        5.645       11.867        4.420      345.761       23.522      860.811
09/05/2013  08:50:00      -33.282        6.560        7.414       18.096       22.197       15.490      327.463      492.698      239.950        0.113        0.053       33.923       11.912        0.123      345.274       22.688      860.803
09/05/2013  08:51:00      -10.489      -20.041      -14.746       24.104       24.089       16.240      580.997      580.270      263.752        0.108        0.071       22.620       12.731        0.317      345.272       22.685      860.813
09/05/2013  08:52:00       40.693      -59.581        7.284       38.452       53.459       36.586     1478.565     2857.884     1338.566        0.547        0.284       72.152       34.462        0.228      345.534       23.133      860.829
09/05/2013  08:53:00        1.858        6.002       30.924       16.027       36.054       25.416      256.867     1299.915      645.951        0.160        0.110        6.283       15.305        5.934      345.869       23.708      860.812
09/05/2013  08:54:00       -6.830      -31.268        7.317       14.665       24.315       16.511      215.076      591.221      272.622        0.108        0.054       32.005       11.399        0.127      345.619       23.277      860.807
09/05/2013  08:55:00      -19.365      -39.584        9.186       25.991       30.401       28.297      675.544      924.244      800.733        0.221        0.120       44.067        6.264        0.020      345.605       23.256      860.812
09/05/2013  08:56:00      -63.033       10.480        2.464       21.544       23.193       17.034      464.130      537.923      290.161        0.269        0.065       63.899       12.123        0.036      345.233       22.618      860.814
09/05/2013  08:57:00      -78.864       15.097        2.081       23.520       25.874       17.405      553.191      669.487      302.949        0.399        0.076       80.296       13.098        0.027      345.234       22.619      860.829
09/05/2013  08:58:00      -81.012        7.049       -1.082       23.935       27.162       16.692      572.885      737.749      278.616        0.410        0.079       81.319       15.594        0.037      345.237       22.623      860.846
09/05/2013  08:59:00      -40.132       32.635       12.772       43.945       20.244       19.984     1931.204      409.820      399.361        0.279        0.137       51.727       17.297        0.112      345.669       23.367      860.852
09/05/2013  09:00:00       12.069        5.410       -2.132       23.691       29.251       16.945      561.251      855.598      287.124        0.094        0.085       13.226       10.818        0.669      345.800       23.589      860.842
09/05/2013  09:01:00      -43.077       -5.389       -7.616       27.292       27.209       11.724      744.869      740.320      137.461        0.178        0.081       43.412        9.531        0.048      345.446       22.983      860.850
09/05/2013  09:02:00      -39.730      -22.435        3.771       22.510       33.554       15.995      506.686     1125.867      255.854        0.199        0.094       45.627       16.282        0.127      345.545       23.153      860.872
09/05/2013  09:03:00      -64.349      -21.374       -4.099       27.936       53.705       18.063      780.443     2884.272      326.283        0.430        0.200       67.806       21.549        0.101      345.458       23.003      860.865
09/05/2013  09:04:00      -98.097      -73.868      -13.548       31.546       35.591       14.024      995.175     1266.751      196.666        0.886        0.123      122.798        9.325        0.006      345.352       22.820      860.853
09/05/2013  09:05:00      -84.702      -52.118       -7.973       18.877       16.613       14.991      356.357      276.003      224.731        0.541        0.043       99.452        7.759        0.006      345.395       22.895      860.831
09/05/2013  09:06:00      -64.636      -18.274       -3.875       31.667       23.099       14.884     1002.818      533.572      221.542        0.314        0.088       67.170       16.353        0.059      345.468       23.020      860.804
09/05/2013  09:07:00      -81.846      -28.747       -5.010       37.206       39.486       20.015     1384.278     1559.117      400.602        0.545        0.167       86.747       14.002        0.026      345.495       23.065      860.790
09/05/2013  09:08:00       17.115      -14.488       41.652       67.282       68.879       44.105     4526.887     4744.299     1945.225        0.672        0.561       22.424       45.734        4.160      345.984       23.906      860.779
09/05/2013  09:09:00      -30.261     -136.487       19.856       91.835      105.090       44.242     8433.664    11043.944     1957.342        2.068        1.072      139.801       53.591        0.147      345.746       23.495      860.762
09/05/2013  09:10:00     -131.271      -69.630        4.807       57.747       43.935       26.372     3334.765     1930.296      695.493        1.403        0.298      148.595       24.692        0.028      345.692       23.403      860.760
09/05/2013  09:11:00      -48.455      -24.161       12.784       40.333       34.544       28.955     1626.787     1193.318      838.399        0.338        0.183       54.145       29.359        0.294      346.176       24.237      860.726
09/05/2013  09:12:00      -71.623      -57.547       -1.528       61.936       46.149       20.288     3836.058     2129.760      411.601        0.741        0.319       91.877       18.040        0.039      345.782       23.560      860.730
09/05/2013  09:13:00      -83.152     -186.846        2.965       54.824       47.286       32.647     3005.654     2235.926     1065.857        2.407        0.315      204.513       24.207        0.014      345.702       23.420      860.723
09/05/2013  09:14:00     -206.832     -138.070       -4.914      102.910       97.423       58.239    10590.381     9491.242     3391.781        4.267        1.174      248.682       47.565        0.037      345.750       23.502      860.687
09/05/2013  09:15:00     -136.364      -51.214       -1.667       80.445       55.538       32.545     6471.375     3084.453     1059.164        1.592        0.531      145.664       28.117        0.037      345.847       23.668      860.672
09/05/2013  09:16:00     -129.904     -127.041        8.004      147.644      132.388       56.443    21798.715    17526.485     3185.846        3.779        2.126      181.698       58.695        0.104      345.889       23.741      860.657
09/05/2013  09:17:00     -131.279      -77.881       14.818      139.606       90.885       53.541    19489.767     8260.155     2866.661        2.706        1.531      152.643       57.038        0.140      345.844       23.664      860.663
09/05/2013  09:18:00       -5.203      -55.622       13.852       80.098       57.408       55.979     6415.662     3295.628     3133.626        0.808        0.642       55.865       32.352        0.335      345.998       23.929      860.659
09/05/2013  09:19:00       -5.003      -44.944       16.639       42.089       56.507       31.927     1771.450     3193.073     1019.359        0.415        0.299       45.221       33.902        0.562      346.195       24.268      860.674
09/05/2013  09:20:00        5.219      -88.629        2.998       61.016       69.717       49.632     3722.996     4860.436     2463.322        0.947        0.552       88.783       45.145        0.259      346.137       24.167      860.674
09/05/2013  09:21:00      -24.529      -23.777       23.712       53.799       42.246       40.243     2894.330     1784.719     1619.498        0.401        0.315       34.161       32.990        0.933      346.355       24.542      860.634
09/05/2013  09:22:00      -73.510       -9.612        7.034       41.091       54.001       25.209     1688.430     2916.150      635.481        0.539        0.262       74.136       30.443        0.169      346.047       24.014      860.653
09/05/2013  09:23:00       -6.172       28.586       15.732       50.251       30.439       27.990     2525.142      926.561      783.459        0.267        0.212       29.245       11.691        0.160      346.392       24.606      860.623
09/05/2013  09:24:00      -27.295      -62.287       16.665       47.086       51.662       41.154     2217.091     2668.937     1693.614        0.574        0.329       68.005       23.660        0.121      346.261       24.381      860.664
09/05/2013  09:25:00       41.304      -88.339        3.489       72.443       77.590       52.449     5247.956     6020.203     2750.851        1.177        0.701       97.518       41.711        0.183      346.342       24.520      860.642
09/05/2013  09:26:00      -28.829      -29.107       14.377       34.663       43.344       35.408     1201.515     1878.743     1253.729        0.311        0.217       40.967       16.672        0.166      346.491       24.777      860.660
09/05/2013  09:27:00      -28.150        0.376       28.452       71.591       68.921       58.943     5125.252     4750.109     3474.317        0.747        0.667       28.152       41.214        2.143      346.608       24.977      860.625
09/05/2013  09:28:00      -81.528      -66.419       14.199       78.648       71.258       38.877     6185.473     5077.639     1511.383        1.201        0.639      105.158       41.538        0.156      346.476       24.750      860.632
09/05/2013  09:29:00       62.992     -142.771        9.439       78.192      176.484       50.774     6113.939    31146.760     2577.958        3.213        1.992      156.050       65.439        0.176      346.592       24.950      860.630
09/05/2013  09:30:00       15.920     -127.439       25.074      150.044      140.602       72.444    22513.240    19768.861     5248.099        3.232        2.377      128.429       62.505        0.237      346.613       24.984      860.565
09/05/2013  09:31:00      -84.944     -214.475        1.952      174.370      165.204       71.313    30405.031    27292.205     5085.491        5.799        3.139      230.683       66.990        0.084      346.457       24.715      860.561
09/05/2013  09:32:00       67.025      -97.314       50.410       89.030      208.814       79.346     7926.297    43603.308     6295.719        3.715        2.891      118.162      109.552        0.860      346.879       25.444      860.561
09/05/2013  09:33:00       88.222     -174.233        0.996      146.927      157.567      105.324    21587.546    24827.350    11093.199        4.781        2.875      195.295      106.125        0.295      346.704       25.139      860.530
09/05/2013  09:34:00      -20.116     -154.524       28.631       92.356      123.289       72.074     8529.600    15200.156     5194.674        2.701        1.446      155.828       68.382        0.193      346.806       25.316      860.530
09/05/2013  09:35:00      -51.722     -191.728        5.681      115.175      202.122       80.190    13265.247    40853.383     6430.368        5.000        3.027      198.582       96.611        0.237      346.737       25.198      860.543
09/05/2013  09:36:00       29.921     -261.481      -16.363      104.561      147.003       75.187    10933.085    21609.810     5653.018        5.386        1.910      263.188       54.905        0.044      346.611       24.979      860.517
09/05/2013  09:37:00       46.514     -130.651       17.450       86.665       84.143       59.292     7510.752     7080.026     3515.489        1.882        0.905      138.684       52.888        0.145      346.650       25.050      860.494
09/05/2013  09:38:00       71.618     -192.475       17.417       84.850      162.700       84.080     7199.540    26471.346     7069.507        4.160        2.037      205.368       97.721        0.226      346.876       25.437      860.470
09/05/2013  09:39:00       11.194      -58.610       46.101       61.742       74.224       55.139     3812.101     5509.274     3040.320        0.902        0.618       59.669       34.929        0.343      347.037       25.717      860.492
09/05/2013  09:40:00       48.444     -106.798       16.273      104.076       93.328       62.651    10831.804     8710.177     3925.141        1.874        1.173      117.272       56.759        0.234      346.903       25.483      860.494
09/05/2013  09:41:00       49.491     -197.088       -4.473      106.252      121.091       66.495    11289.507    14662.985     4421.580        3.584        1.519      203.207       63.830        0.099      346.773       25.259      860.495
09/05/2013  09:42:00        9.786     -112.264        7.776      111.576       83.667       63.026    12449.224     7000.205     3972.312        1.809        1.171      112.690       35.954        0.102      346.814       25.332      860.451
09/05/2013  09:43:00      111.238     -118.494       27.822      124.008       90.462       68.139    15377.970     8183.290     4642.964        2.769        1.410      162.526       76.132        0.219      347.019       25.683      860.433
09/05/2013  09:44:00       -7.488      -36.544       33.804       74.855       76.605       45.390     5603.294     5868.364     2060.278        0.803        0.677       37.303       43.920        1.386      347.184       25.969      860.440
09/05/2013  09:45:00       27.261      -19.769       42.488       68.727       55.102       52.258     4723.432     3036.199     2730.930        0.671        0.525       33.675       38.053        1.277      347.131       25.877      860.440
09/05/2013  09:46:00       24.451      -36.303       43.169       72.583      134.248       64.952     5268.327    18022.425     4218.718        1.564        1.375       43.769       79.420        3.292      347.057       25.750      860.464
09/05/2013  09:47:00       13.095      -33.346       42.631       59.780       83.316       50.434     3573.621     6941.476     2543.572        0.808        0.653       35.825       51.443        2.062      347.253       26.088      860.501
09/05/2013  09:48:00      189.145     -178.219       22.710      104.366      139.569       83.922    10892.361    19479.511     7042.905        5.273        1.871      259.880       81.118        0.097      346.918       25.509      860.469
09/05/2013  09:49:00      -44.167      -60.156       31.103      138.730      132.741       81.613    19246.033    17620.074     6660.628        2.502        2.176       74.629       49.561        0.441      347.049       25.735      860.470
09/05/2013  09:50:00      -55.471     -107.850        5.644       92.541       89.423       54.879     8563.865     7996.511     3011.718        1.715        0.979      121.279       35.665        0.086      347.000       25.653      860.502
09/05/2013  09:51:00       57.368     -112.594       38.940       96.885      125.799       77.809     9386.666    15825.484     6054.267        2.437        1.563      126.367       72.178        0.326      347.177       25.956      860.522
09/05/2013  09:52:00       77.821     -120.561       -6.023      116.537      108.329       47.083    13580.811    11735.240     2216.841        2.407        1.377      143.496       53.194        0.137      347.176       25.954      860.530
09/05/2013  09:53:00       63.362     -122.458       48.376      103.659      164.878       79.129    10745.181    27184.686     6261.408        3.276        2.210      137.879      105.640        0.587      347.021       25.687      860.501
09/05/2013  09:54:00      114.960      -73.633       83.159      141.537      244.387      123.758    20032.811    59725.138    15316.009        6.029        4.754      136.520      163.492        1.434      347.088       25.802      860.494
09/05/2013  09:55:00       57.569      -43.985      117.286      130.352      193.243      146.454    16991.625    37342.907    21448.900        4.738        3.789       72.449      158.711        4.799      347.103       25.828      860.484
09/05/2013  09:56:00      132.891     -116.874       77.268      152.909      179.625      108.703    23381.046    32265.092    11816.285        5.236        3.373      176.973      105.115        0.353      346.965       25.590      860.497
09/05/2013  09:57:00      214.516     -219.900       62.888      201.912      271.937      130.795    40768.273    73949.478    17107.265       11.505        6.591      307.202      171.146        0.310      346.939       25.545      860.472
09/05/2013  09:58:00       71.190     -189.926       16.302      116.339      180.332      102.264    13534.848    32519.663    10457.922        4.895        2.826      202.830      100.474        0.245      347.002       25.652      860.515
09/05/2013  09:59:00      115.286     -111.955       33.595      112.240      176.161      124.257    12597.828    31032.580    15439.764        4.300        2.954      160.701      140.137        0.760      347.136       25.885      860.550
09/05/2013  10:00:00       98.589      -13.435      120.711      134.841      162.210      128.506    18182.229    26312.043    16513.872        4.273        3.050       99.500      128.005        1.655      347.191       25.980      860.539
09/05/2013  10:01:00      117.910     -181.547       51.210      125.974      211.394       93.971    15869.358    44687.398     8830.634        5.942        3.469      216.477       86.264        0.159      347.076       25.781      860.531
09/05/2013  10:02:00      101.406      -32.560       72.590      123.468      134.404       85.751    15244.407    18064.399     7353.178        2.863        2.033      106.505       83.833        0.620      347.325       26.210      860.521
09/05/2013  10:03:00      126.990     -238.127       -3.713      134.996      155.870       69.658    18224.029    24295.370     4852.241        6.010        2.369      269.873       76.748        0.081      347.122       25.861      860.521
09/05/2013  10:04:00      151.745     -238.604        2.601      135.489      180.139       74.565    18357.316    32450.092     5559.887        6.815        2.818      282.770       98.912        0.122      347.187       25.972      860.486
09/05/2013  10:05:00      132.128     -273.335       17.487      159.726      169.416       83.764    25512.318    28701.689     7016.408        7.684        3.062      303.595       90.043        0.088      347.223       26.034      860.494
09/05/2013  10:06:00      114.304      -58.783       87.647      189.757      162.715      102.542    36007.874    26476.296    10514.837        4.859        3.650      128.533      122.411        0.907      347.276       26.127      860.482
09/05/2013  10:07:00       43.152      -65.024      108.233      170.346      208.319      120.828    29017.857    43396.658    14599.285        5.239        4.351       78.040      138.509        3.150      347.276       26.126      860.454
09/05/2013  10:08:00       50.501       14.703      136.232       97.180      163.580      119.975     9443.899    26758.374    14394.003        3.595        2.530       52.598      113.448        4.652      347.352       26.258      860.432
09/05/2013  10:09:00       95.478      -57.434       91.008      144.584      167.687      113.547    20904.543    28119.068    12892.837        4.129        3.096      111.422      117.063        1.104      347.394       26.330      860.443
09/05/2013  10:10:00      206.405     -195.239       65.243      218.253      307.049      176.575    47634.293    94279.084    31178.662       12.900        8.655      284.115      232.173        0.668      347.182       25.963      860.397
09/05/2013  10:11:00      111.089     -115.898       85.494      115.692      163.112      120.238    13384.560    26605.441    14457.167        4.375        2.722      160.540      110.040        0.470      347.293       26.155      860.391
09/05/2013  10:12:00      142.097      -59.031      133.353      162.297      286.261      172.089    26340.319    81945.620    29614.555        8.965        6.895      153.871      203.243        1.745      347.228       26.042      860.342
09/05/2013  10:13:00       58.738     -160.776       45.852      180.147      186.278      144.281    32452.982    34699.460    20817.085        5.967        4.398      171.170      104.055        0.370      347.370       26.287      860.418
09/05/2013  10:14:00      -22.274     -160.285      -33.570      138.816      129.125       58.856    19269.791    16673.254     3463.979        3.335        1.970      161.825       56.037        0.120      347.294       26.158      860.510
09/05/2013  10:15:00      -17.311     -112.864       -9.309       88.609       79.111       59.417     7851.502     6258.534     3530.380        1.538        0.882      114.184       45.039        0.156      347.468       26.459      860.580
09/05/2013  10:16:00      -24.912      -40.685       22.824       66.710       79.373       33.957     4450.241     6300.094     1153.103        0.735        0.595       47.706       30.587        0.411      347.530       26.565      860.587
09/05/2013  10:17:00      -58.542      -74.891       36.813      157.039      117.476       64.734    24661.114    13800.558     4190.450        2.651        2.133       95.057       38.483        0.164      347.499       26.510      860.565
09/05/2013  10:18:00      -25.354      -93.083       -2.948      112.518      123.285       52.726    12660.413    15199.266     2780.044        1.997        1.532       96.474       36.313        0.142      347.482       26.481      860.587
09/05/2013  10:19:00     -134.813     -139.516      -15.652      108.512       97.098       66.907    11774.908     9428.082     4476.519        3.178        1.284      194.009       34.968        0.032      347.259       26.096      860.623
09/05/2013  10:20:00     -116.901     -184.153       -6.918      136.993      103.665       64.512    18767.136    10746.509     4161.796        4.064        1.684      218.124       52.570        0.058      347.290       26.149      860.634
09/05/2013  10:21:00      -65.820     -262.246      -19.665      137.183      143.873       66.655    18819.074    20699.316     4442.932        5.872        2.198      270.380       56.396        0.044      347.204       26.000      860.661
09/05/2013  10:22:00      -37.123     -105.714        4.213       73.445       70.763       43.159     5394.096     5007.454     1862.735        1.242        0.613      112.043       44.787        0.160      347.515       26.540      860.657
09/05/2013  10:23:00       13.933     -161.655        1.228      184.957      142.541       59.169    34208.913    20317.947     3500.987        4.217        2.901      162.254       57.328        0.125      347.462       26.445      860.649
09/05/2013  10:24:00      -78.477      -91.706        8.357      125.566       95.059       66.432    15766.759     9036.298     4413.163        2.192        1.461      120.701       58.711        0.237      347.614       26.710      860.609
09/05/2013  10:25:00       41.008      -47.134       33.992      101.172      122.735       77.661    10235.710    15063.958     6031.208        1.819        1.567       62.476       90.616        2.104      347.833       27.089      860.622
09/05/2013  10:26:00       46.816     -131.074       20.737      113.305      124.529       67.233    12837.994    15507.584     4520.283        2.633        1.643      139.184       69.266        0.248      347.597       26.680      860.598
09/05/2013  10:27:00       31.984     -176.206        8.932      139.193      136.899       82.756    19374.794    18741.232     6848.483        3.855        2.248      179.085       76.695        0.183      347.564       26.622      860.607
09/05/2013  10:28:00      122.417     -162.467       28.854      174.971      130.701       80.163    30614.889    17082.642     6426.141        4.816        2.706      203.424       68.320        0.113      347.519       26.545      860.574
09/05/2013  10:29:00       81.943     -108.949       29.684      189.782      196.099      116.231    36017.211    38454.866    13509.590        5.371        4.399      136.325      115.081        0.713      347.514       26.535      860.500
09/05/2013  10:30:00      -27.538     -163.203       -3.608       87.686      104.533       61.961     7688.761    10927.227     3839.191        2.493        1.123      165.510       58.283        0.124      347.635       26.744      860.601
09/05/2013  10:31:00       -2.458     -165.574       17.123      143.194      121.378       73.947    20504.392    14732.555     5468.098        3.420        2.035      165.592       47.133        0.081      347.664       26.795      860.595
09/05/2013  10:32:00      -62.677     -166.005        8.847       93.952      124.498       51.967     8826.924    15499.819     2700.611        2.929        1.351      177.443       28.177        0.025      347.554       26.606      860.633
09/05/2013  10:33:00       59.614     -166.133      -10.067       97.161      138.166       67.537     9440.298    19089.868     4561.296        3.217        1.655      176.505       61.035        0.120      347.620       26.718      860.645
09/05/2013  10:34:00      102.137     -162.673      -11.506      116.969      162.563       89.070    13681.753    26426.602     7933.487        4.252        2.402      192.080       91.911        0.229      347.600       26.685      860.589
09/05/2013  10:35:00       50.358     -330.687        8.976      138.470      163.498       74.132    19173.809    26731.718     5495.485        8.168        2.570      334.500       72.361        0.047      347.450       26.425      860.625
09/05/2013  10:36:00       10.209     -194.862       21.516      151.587      150.847       77.123    22978.607    22754.813     5947.994        4.510        2.584      195.129       67.553        0.120      347.663       26.792      860.609
09/05/2013  10:37:00        9.434     -275.449       -3.968      146.919      192.856       81.592    21585.065    37193.315     6657.181        7.069        3.272      275.610       80.920        0.086      347.557       26.612      860.643
09/05/2013  10:38:00        1.473     -187.248       15.011      188.082      167.741       71.815    35374.668    28136.907     5157.399        5.197        3.433      187.254       72.987        0.152      347.576       26.643      860.636
09/05/2013  10:39:00       48.194     -171.049        9.733      126.753      145.283       81.582    16066.258    21107.013     6655.554        3.774        2.191      177.709       74.522        0.176      347.702       26.861      860.662
09/05/2013  10:40:00       53.151     -305.701      -25.917      110.790      144.456       67.571    12274.407    20867.600     4565.875        6.732        1.885      310.287       55.947        0.033      347.656       26.780      860.629
09/05/2013  10:41:00       70.871     -321.135      -36.705      119.708      132.958       75.044    14329.887    17677.756     5631.635        7.356        1.882      328.862       62.410        0.036      347.509       26.526      860.663
09/05/2013  10:42:00       15.552     -307.237       15.723      145.533      193.942       90.251    21179.715    37613.407     8145.194        8.090        3.347      307.630      104.209        0.115      347.517       26.541      860.610
09/05/2013  10:43:00       95.682     -234.217       -9.455      114.972      148.685       81.633    13218.588    22107.199     6663.945        5.304        2.099      253.007       79.531        0.099      347.676       26.815      860.603
09/05/2013  10:44:00       24.835     -211.766        6.071      101.121      146.210       74.663    10225.451    21377.297     5574.586        4.133        1.859      213.217       81.242        0.145      347.775       26.987      860.632
09/05/2013  10:45:00       57.133     -158.834       17.406      113.338      183.646      106.967    12845.595    33726.021    11441.909        4.339        2.901      168.796      111.822        0.439      347.607       26.696      860.602
09/05/2013  10:46:00       70.389     -344.146       -8.052      170.207      155.844       90.497    28970.579    24287.346     8189.701        9.244        3.072      351.271       79.960        0.052      347.366       26.280      860.594
09/05/2013  10:47:00      -39.296     -350.164      -22.456      129.049      156.518       80.827    16653.520    24497.781     6532.969        8.616        2.384      352.362       42.391        0.014      347.458       26.439      860.604
09/05/2013  10:48:00       85.977     -281.723       23.565      235.125      260.565      120.277    55283.824    67893.975    14466.587       11.245        6.882      294.550      138.751        0.222      347.576       26.643      860.594
09/05/2013  10:49:00      159.092     -230.135       31.092      149.967      195.011       82.733    22490.231    38029.228     6844.692        7.329        3.368      279.772      105.580        0.142      347.714       26.881      860.582
09/05/2013  10:50:00       83.244     -312.294       -6.300      139.921      131.534       85.785    19577.981    17301.188     7359.113        7.436        2.212      323.198       74.480        0.053      347.654       26.776      860.613
09/05/2013  10:51:00       -6.208     -317.217        5.218      155.657      180.536       93.038    24229.216    32593.286     8656.118        8.307        3.274      317.278       97.065        0.094      347.604       26.689      860.626
09/05/2013  10:52:00      105.639     -194.775       52.848      175.166      221.183      131.258    30683.002    48921.787    17228.704        7.434        4.842      221.578      124.253        0.314      347.732       26.911      860.579
09/05/2013  10:53:00      -72.666     -248.201        6.949      136.811      127.813       74.005    18717.363    16336.145     5476.774        5.372        2.027      258.619       48.874        0.036      347.644       26.761      860.621
09/05/2013  10:54:00       45.898     -312.268      -13.007      172.523      182.773       84.850    29764.281    33406.139     7199.438        8.506        3.518      315.623       67.118        0.045      347.491       26.496      860.634
09/05/2013  10:55:00      106.178     -164.508       38.024      140.975      239.544      126.091    19873.822    57381.225    15899.000        6.645        4.658      195.797      130.159        0.442      347.784       27.003      860.610
09/05/2013  10:56:00      -22.821      -50.929      103.483      131.619      160.710       97.383    17323.640    25827.646     9483.402        3.322        2.632       55.809       78.756        1.991      347.977       27.334      860.579
09/05/2013  10:57:00      103.228     -286.074       12.227      190.487      235.687      106.293    36285.181    55548.320    11298.271        9.787        5.157      304.128      108.184        0.127      347.626       26.728      860.647
09/05/2013  10:58:00      -23.798     -377.471      -11.220      213.797      205.654      104.920    45709.256    42293.522    11008.271       12.107        4.951      378.221       96.312        0.065      347.614       26.707      860.616
09/05/2013  10:59:00      153.952     -197.001       28.825      170.978      135.505       74.433    29233.629    18361.614     5540.236        5.823        2.657      250.022       71.888        0.083      347.845       27.105      860.668
09/05/2013  11:00:00      -32.621      -99.475      -13.157      119.054       85.390       53.712    14173.925     7291.402     2884.998        1.774        1.218      104.687       42.122        0.162      347.786       27.007      860.655
09/05/2013  11:01:00       71.301     -130.293       24.829      130.890      137.387       76.739    17132.107    18875.090     5888.902        3.228        2.095      148.526       71.491        0.232      347.979       27.339      860.653
09/05/2013  11:02:00        3.802     -254.207       -6.256      133.234      192.496       75.061    17751.210    37054.666     5634.143        6.255        3.022      254.236       81.812        0.104      347.826       27.073      860.648
09/05/2013  11:03:00       54.583     -219.948       17.183      193.951      263.412      101.965    37616.798    69386.116    10396.895        8.450        5.870      226.619      108.996        0.231      347.690       26.840      860.630
09/05/2013  11:04:00       -7.298     -284.495      -26.122      114.851      157.484       77.095    13190.803    24801.094     5943.636        6.280        2.197      284.588       53.916        0.036      347.713       26.877      860.686
09/05/2013  11:05:00      -40.397     -288.820        8.628      191.202      200.091       86.078    36558.237    40036.228     7409.454        8.455        4.200      291.631       86.552        0.088      347.579       26.647      860.707
09/05/2013  11:06:00     -155.116     -129.894       -9.690      224.800      135.993       81.948    50535.158    18493.970     6715.529        5.837        3.787      202.320       56.264        0.077      347.495       26.500      860.693
09/05/2013  11:07:00      -77.050     -142.712      -12.056       84.120       97.955       46.209     7076.220     9595.234     2135.279        2.262        0.940      162.183       35.090        0.047      347.717       26.887      860.663
09/05/2013  11:08:00       -5.120     -320.374       -6.742      148.114      203.977       98.442    21937.793    41606.445     9690.810        8.796        3.662      320.415       84.728        0.070      347.630       26.737      860.624
09/05/2013  11:09:00      230.705     -448.978      -41.152      244.160      243.741      117.143    59614.313    59409.719    13722.477       19.460        6.637      504.783      123.464        0.060      347.506       26.521      860.607
09/05/2013  11:10:00      -56.917     -270.623      -10.905      161.831      165.212       70.808    26189.313    27294.931     5013.790        6.753        2.925      276.544       91.772        0.110      347.480       26.477      860.649
09/05/2013  11:11:00      -28.510     -144.498       25.754       90.346      115.646       62.359     8162.446    13374.061     3888.642        2.389        1.271      147.284       58.996        0.160      347.770       26.978      860.608
09/05/2013  11:12:00      -58.471     -176.923       -5.248      120.462      159.595       67.354    14511.116    25470.583     4536.613        3.962        2.226      186.335       61.122        0.108      347.757       26.956      860.649
09/05/2013  11:13:00      192.181     -378.434      -19.574      164.888      228.229      111.730    27187.952    52088.669    12483.576       13.613        4.588      424.436      106.278        0.063      347.460       26.441      860.609
09/05/2013  11:14:00      -31.200     -234.589       10.850       98.394      205.637       67.292     9681.322    42286.731     4528.220        5.630        2.825      236.655       89.388        0.143      347.818       27.060      860.593
09/05/2013  11:15:00        8.862     -149.212      -24.173      114.592       98.959       59.917    13131.432     9792.926     3590.009        2.472        1.326      149.475       35.014        0.055      347.696       26.850      860.599
09/05/2013  11:16:00       -3.897     -223.564       -9.161      177.845      179.110       98.893    31628.911    32080.468     9779.731        6.177        3.674      223.598      106.342        0.226      347.816       27.055      860.593
09/05/2013  11:17:00      -24.898     -323.295        1.536      223.754      174.115       93.779    50066.002    30315.919     8794.563        9.714        4.459      324.253       90.281        0.078      347.631       26.736      860.619
09/05/2013  11:18:00      -12.306     -241.266        1.515      133.497      172.782       88.959    17821.416    29853.706     7913.622        5.696        2.779      241.580       82.296        0.116      347.722       26.896      860.618
09/05/2013  11:19:00       -8.137     -384.024        5.743      166.099      255.358       96.401    27588.906    65207.764     9293.105       12.481        5.104      384.110      100.052        0.068      347.609       26.699      860.626
09/05/2013  11:20:00       58.435     -250.225      -10.913      121.673      157.033       70.443    14804.427    24659.254     4962.253        5.528        2.221      256.957       51.052        0.039      347.621       26.720      860.603
09/05/2013  11:21:00      -26.256     -124.230        0.934       67.766       64.745       41.794     4592.276     4191.901     1746.746        1.332        0.527      126.974       29.199        0.053      347.918       27.234      860.607
09/05/2013  11:22:00      -79.628     -150.312        2.793      180.148      170.943       96.245    32453.256    29221.377     9263.065        4.993        3.547      170.101       95.772        0.317      347.857       27.129      860.585
09/05/2013  11:23:00       19.403     -171.582       15.439      145.529      179.903       86.167    21178.576    32365.078     7424.669        4.550        3.048      172.675       56.709        0.108      347.972       27.328      860.566
09/05/2013  11:24:00       -6.604     -160.827      -11.714      112.184       76.397       65.739    12585.338     5836.531     4321.585        2.439        1.137      160.962       36.302        0.051      347.694       26.847      860.576
09/05/2013  11:25:00      -73.537     -168.906        6.875      203.660      118.444       84.507    41477.355    14028.955     7141.459        4.830        3.132      184.219       62.669        0.116      347.847       27.111      860.596
09/05/2013  11:26:00      109.907     -253.445       13.266      149.880      215.198      114.672    22463.929    46310.301    13149.681        7.919        4.096      276.250      117.004        0.179      347.768       26.975      860.597
09/05/2013  11:27:00       10.389     -304.362      -19.982      182.616      168.455       95.512    33348.540    28377.117     9122.556        8.198        3.542      304.539       92.805        0.093      347.704       26.862      860.575
09/05/2013  11:28:00      -25.653     -108.214       39.280      145.575      169.309       84.420    21192.105    28665.583     7126.706        3.544        2.849      111.213       84.942        0.583      347.933       27.259      860.591
09/05/2013  11:29:00      103.652     -196.575       10.455      147.781      151.601       71.453    21839.248    22982.901     5105.570        4.970        2.496      222.229       59.214        0.071      347.851       27.118      860.573
09/05/2013  11:30:00        9.336     -276.487      -17.375      188.696      178.072       78.456    35606.230    31709.573     6155.412        7.514        3.674      276.645       48.074        0.030      347.778       26.991      860.599
09/05/2013  11:31:00      -16.301     -267.297       -8.210      143.644      192.884       76.309    20633.538    37204.086     5823.011        6.771        3.183      267.793       74.251        0.077      347.725       26.899      860.583
09/05/2013  11:32:00       16.508     -130.373       -9.791      114.298      101.735       51.506    13064.140    10349.918     2652.839        2.171        1.303      131.414       51.858        0.156      347.857       27.127      860.598
09/05/2013  11:33:00       12.373      -51.071       59.802      108.646      151.306      100.883    11804.024    22893.565    10177.404        2.560        2.244       52.549      109.807        4.367      348.155       27.642      860.581
09/05/2013  11:34:00     -142.636     -294.941      -29.739      187.587      160.869       81.001    35188.800    25878.874     6561.146        8.791        3.381      327.621       51.833        0.025      347.749       26.940      860.592
09/05/2013  11:35:00       65.441     -296.323       -9.120      164.811      169.773      110.175    27162.800    28822.961    12138.624        8.013        3.406      303.463       58.554        0.037      347.863       27.137      860.610
09/05/2013  11:36:00     -121.962     -216.186        2.133      117.127      120.985       56.845    13718.706    14637.444     3231.367        4.660        1.579      248.216       45.234        0.033      347.977       27.334      860.624
09/05/2013  11:37:00      -74.498     -209.168       20.593      142.814      140.446       80.903    20395.815    19725.007     6545.316        4.819        2.333      222.038       85.972        0.150      347.808       27.043      860.637
09/05/2013  11:38:00        0.956     -256.924      -37.010      167.439      142.251       87.749    28035.691    20235.328     7699.863        6.166        2.799      256.926       51.458        0.040      347.843       27.101      860.590
09/05/2013  11:39:00      -99.512     -123.747      -10.651      114.591       92.979       53.475    13131.049     8645.130     2859.588        2.498        1.232      158.795       26.522        0.028      347.975       27.332      860.571
09/05/2013  11:40:00       48.059     -249.497      -13.113      153.314      172.909      103.118    23505.256    29897.429    10633.387        6.437        3.202      254.084       89.471        0.124      347.920       27.236      860.584
09/05/2013  11:41:00       -4.300     -238.860       -7.128      148.330      254.092      110.370    22001.664    64562.557    12181.507        7.791        4.937      238.898      115.918        0.235      347.885       27.177      860.493
09/05/2013  11:42:00       77.111     -273.788        4.919      100.461      169.962       79.352    10092.352    28887.138     6296.765        6.309        2.264      284.440       78.212        0.076      347.892       27.187      860.586
09/05/2013  11:43:00        4.060     -247.126       23.533      215.245      223.132      103.133    46330.411    49788.110    10636.435        8.418        5.338      247.160       77.938        0.099      347.730       26.908      860.665
09/05/2013  11:44:00      -27.928     -231.173       -0.907      116.837      140.232       70.236    13650.827    19664.916     4933.134        4.623        1.912      232.854       61.853        0.071      347.694       26.847      860.631
09/05/2013  11:45:00     -236.446     -155.511       17.870      187.010      147.642       97.774    34972.903    21798.281     9559.748        7.336        3.317      283.002      104.467        0.136      347.748       26.939      860.589
09/05/2013  11:46:00     -312.620     -463.744       -1.257      246.067      193.983      100.120    60548.931    37629.318    10023.924       21.047        5.410      559.276      103.366        0.034      347.564       26.620      860.597
09/05/2013  11:47:00     -275.502     -349.844        3.340      238.630      229.913      115.599    56944.296    52860.054    13363.182       16.071        6.158      445.300      113.053        0.064      347.569       26.630      860.512
09/05/2013  11:48:00        3.814     -285.313        6.151      203.107      227.246      104.763    41252.393    51640.803    10975.353        9.264        5.193      285.338       92.331        0.105      347.838       27.094      860.571
09/05/2013  11:49:00       34.435     -215.113       42.351      124.823      224.388      119.003    15580.767    50350.011    14161.762        6.466        4.005      217.852      130.540        0.359      347.921       27.238      860.572
09/05/2013  11:50:00       24.606     -285.208      -30.051      157.083      205.454      101.618    24674.945    42211.355    10326.214        8.002        3.861      286.267       93.348        0.106      347.752       26.945      860.557
09/05/2013  11:51:00       10.298     -167.998       -3.713       92.469      106.987       70.492     8550.586    11446.286     4969.121        2.665        1.248      168.313       62.711        0.139      348.022       27.413      860.582
09/05/2013  11:52:00      166.394     -245.847      -18.436      168.015      129.815       92.906    28228.909    16851.873     8631.555        7.108        2.686      296.863       77.100        0.067      347.933       27.258      860.620
09/05/2013  11:53:00       99.133     -122.642       26.033      101.705      133.488       77.102    10343.934    17818.935     5944.677        2.982        1.705      157.697       72.700        0.213      347.906       27.213      860.610
09/05/2013  11:54:00       94.543     -217.491       28.191      122.017      189.606       95.292    14888.116    35950.546     9080.634        5.847        2.996      237.151      100.411        0.179      347.970       27.323      860.605
09/05/2013  11:55:00      154.203     -251.058        7.721      190.531      223.904      119.439    36302.216    50133.000    14265.642        9.376        5.035      294.633      143.081        0.236      347.867       27.144      860.616
09/05/2013  11:56:00      107.658     -230.722      -12.168      183.362      176.492       77.322    33621.498    31149.312     5978.766        6.785        3.537      254.604       75.044        0.087      347.802       27.034      860.622
09/05/2013  11:57:00       86.069        0.669       71.679      134.485      152.182      103.738    18086.196    23159.447    10761.646        3.227        2.600       86.071       96.626        1.260      347.959       27.304      860.583
09/05/2013  11:58:00       -9.358     -107.749       47.542      117.021      124.153       75.460    13694.001    15413.906     5694.276        2.437        1.740      108.155       50.043        0.214      348.063       27.486      860.574
09/05/2013  11:59:00       34.528      -32.266       62.306      103.360      143.148      103.470    10683.282    20491.424    10705.950        2.399        2.094       47.257       92.447        3.827      348.214       27.745      860.587
09/05/2013  12:00:00       84.780     -163.617        4.356      125.712      132.896       85.573    15803.613    17661.233     7322.815        3.737        2.039      184.277       63.831        0.120      347.965       27.314      860.650
09/05/2013  12:01:00       -0.911     -191.327       15.267      141.093      109.068       70.520    19907.137    11895.843     4973.000        3.680        1.839      191.329       59.843        0.098      347.861       27.134      860.665
09/05/2013  12:02:00      -18.701     -346.047      -20.773      157.321      161.210       76.829    24749.780    25988.631     5902.726        8.857        2.832      346.552       67.417        0.038      347.628       26.732      860.635
09/05/2013  12:03:00       -1.683     -188.760      -28.352      131.841      125.008       60.576    17382.139    15627.071     3669.494        3.655        1.834      188.768       61.616        0.107      347.744       26.933      860.625
09/05/2013  12:04:00      -50.119     -102.398        9.318       87.805       97.098       63.442     7709.704     9428.007     4024.854        1.712        1.058      114.005       32.651        0.082      348.035       27.437      860.607
09/05/2013  12:05:00      117.366     -304.169      -32.709      139.551      201.079       69.484    19474.428    40432.917     4827.985        8.604        3.237      326.027       82.553        0.064      347.937       27.266      860.682
09/05/2013  12:06:00       24.350      -84.879       37.063      117.484      157.941      106.322    13802.424    24945.354    11304.336        2.960        2.503       88.303       89.946        1.038      348.067       27.491      860.613
09/05/2013  12:07:00       91.754     -284.727      -33.173      178.249      181.895       91.617    31772.860    33085.695     8393.702        8.191        3.663      299.146      108.760        0.132      347.768       26.972      860.614
09/05/2013  12:08:00       36.595     -181.859        9.444      142.254      161.783       82.979    20236.136    26173.692     6885.442        4.389        2.665      185.504       92.211        0.247      347.939       27.269      860.603
09/05/2013  12:09:00      137.024     -165.505       12.759       96.185      116.688       81.086     9251.463    13615.975     6574.863        3.788        1.472      214.866       71.161        0.110      348.046       27.454      860.649
09/05/2013  12:10:00       68.336     -105.704       30.581      102.547      106.851       72.788    10515.797    11417.098     5298.111        2.200        1.362      125.869       68.441        0.296      348.210       27.737      860.640
09/05/2013  12:11:00     -138.715      -94.190        1.199      113.786       91.669       61.987    12947.152     8403.148     3842.419        2.665        1.260      167.672       55.228        0.108      348.100       27.549      860.675
09/05/2013  12:12:00      -79.738     -173.511       23.441      130.016      101.671       59.661    16904.148    10336.962     3559.405        3.390        1.540      190.956       59.218        0.096      348.062       27.481      860.635
09/05/2013  12:13:00      -88.719     -118.197       18.255      124.316      106.803       59.682    15454.495    11406.825     3561.901        2.629        1.521      147.789       50.070        0.115      348.096       27.541      860.595
09/05/2013  12:14:00     -191.939     -146.521        6.536      205.924      116.046       70.161    42404.871    13466.579     4922.603        5.956        3.040      241.473       82.882        0.118      347.998       27.371      860.614
09/05/2013  12:15:00      -23.195     -170.091      -13.646      109.904       81.276       60.565    12078.807     6605.820     3668.122        2.600        1.118      171.665       33.176        0.037      348.137       27.611      860.680
09/05/2013  12:16:00      191.329     -346.401      -18.369      161.748      243.522      124.518    26162.457    59302.824    15504.759       12.893        5.049      395.728      136.544        0.119      347.954       27.292      860.643
09/05/2013  12:17:00      164.590     -367.082      -30.162      180.715      212.366      112.829    32657.835    45099.528    12730.372       12.660        4.524      402.292      114.673        0.081      347.785       27.003      860.655
09/05/2013  12:18:00       35.045     -216.612       32.611      144.211      151.200       84.039    20796.951    22861.462     7062.571        4.996        2.536      219.428       87.390        0.159      348.011       27.392      860.680
09/05/2013  12:19:00      -16.342      -94.480       28.835       81.509      111.847       67.687     6643.707    12509.768     4581.509        1.688        1.187       95.882       74.571        0.605      348.285       27.868      860.704
09/05/2013  12:20:00       94.437     -212.446       23.172      150.023      150.022       76.088    22506.883    22506.542     5789.434        5.269        2.540      232.490       79.835        0.118      347.982       27.343      860.697
09/05/2013  12:21:00      201.547     -415.865        6.984      187.324      203.618      113.226    35090.163    41460.169    12820.137       15.147        4.469      462.131       90.327        0.038      347.804       27.035      860.629
09/05/2013  12:22:00        8.194     -230.561       25.722      117.632      157.758       72.774    13837.361    24887.489     5296.084        4.895        2.201      230.706       48.128        0.044      348.078       27.508      860.701
09/05/2013  12:23:00        7.675     -344.864      -21.215      121.642      148.094       69.532    14796.818    21931.743     4834.744        8.049        2.078      344.949       48.196        0.020      347.854       27.123      860.746
09/05/2013  12:24:00       67.666     -116.394       47.128      180.913      201.416      125.345    32729.542    40568.564    15711.330        5.466        4.450      134.633      124.775        0.859      348.035       27.434      860.651
09/05/2013  12:25:00       41.327     -257.761        4.839      207.013      255.113      149.187    42854.551    65082.397    22256.881        9.916        6.510      261.053      163.310        0.391      348.078       27.508      860.605
09/05/2013  12:26:00       16.010     -245.477      -12.721      158.684      241.312       85.937    25180.740    58231.484     7385.179        7.572        4.540      245.998       85.713        0.121      348.138       27.613      860.694
09/05/2013  12:27:00       76.803     -105.964       33.420      144.998      177.091       88.478    21024.400    31361.051     7828.401        3.922        3.011      130.871       91.028        0.484      348.161       27.655      860.695
09/05/2013  12:28:00       37.628     -158.895       19.410      125.580      136.290       87.199    15770.301    18574.991     7603.701        3.449        2.097      163.289       76.159        0.218      348.138       27.611      860.674
09/05/2013  12:29:00      135.679     -224.451        4.474      178.745      190.720       89.818    31949.723    36374.102     8067.286        7.258        3.820      262.273       76.974        0.086      348.012       27.396      860.655
09/05/2013  12:30:00      135.182     -180.560       11.478      141.488      149.002       85.098    20018.868    22201.457     7241.674        5.022        2.473      225.557       70.659        0.098      348.055       27.471      860.647
09/05/2013  12:31:00      110.709     -113.507       57.802      133.217      142.919       96.868    17746.786    20425.761     9383.463        3.801        2.378      158.557      102.924        0.421      347.932       27.257      860.592
09/05/2013  12:32:00        9.939     -160.548       -8.525      141.816      110.363       56.289    20111.649    12180.093     3168.490        3.070        1.773      160.856       22.806        0.020      347.993       27.362      860.613
09/05/2013  12:33:00      -53.317     -132.838        6.922       85.218      120.878       59.994     7262.178    14611.429     3599.295        2.300        1.274      143.139       58.361        0.166      348.143       27.622      860.613
09/05/2013  12:34:00      -32.783     -123.639       -0.050       99.909      101.623       59.401     9981.767    10327.259     3528.492        2.009        1.192      127.911       51.498        0.162      348.262       27.828      860.630
09/05/2013  12:35:00     -114.558     -277.340      -23.508      232.286      237.576      107.809    53956.887    56442.570    11622.689       10.628        6.101      300.068       92.274        0.095      347.898       27.198      860.639
09/05/2013  12:36:00      -94.445     -313.302       -5.549      111.918      213.075       76.644    12525.706    45400.749     5874.239        8.544        3.190      327.227       75.780        0.054      347.769       26.975      860.664
09/05/2013  12:37:00     -151.151     -268.610       11.169      248.804      139.949       95.176    61903.582    19585.847     9058.443        9.282        4.527      308.217       94.403        0.094      347.753       26.947      860.627
09/05/2013  12:38:00     -143.316     -272.076      -23.973      159.666      189.793       73.937    25493.238    36021.415     5466.699        8.105        3.349      307.514       66.341        0.047      347.947       27.282      860.666
09/05/2013  12:39:00     -156.431     -355.830      -20.548      238.724      206.536       95.529    56988.917    42657.023     9125.724       13.012        5.439      388.697       80.649        0.043      347.677       26.814      860.690
09/05/2013  12:40:00      -70.890     -317.565       25.672      162.416      198.675       70.685    26379.115    39471.697     4996.363        8.868        3.542      325.381       82.326        0.064      347.763       26.964      860.710
09/05/2013  12:41:00      -46.584     -376.501      -32.631      171.386      128.231       81.376    29373.197    16443.185     6622.115        9.870        2.622      379.372       71.286        0.035      347.676       26.814      860.709
09/05/2013  12:42:00      -59.880      -74.167       -2.325       65.982       76.912       47.749     4353.648     5915.478     2279.961        1.082        0.627       95.322       30.465        0.102      348.107       27.560      860.685
09/05/2013  12:43:00      -92.587      -47.461       21.460       67.985       91.550       62.728     4622.021     8381.430     3934.852        1.411        0.847      104.042       56.685        0.297      348.323       27.935      860.658
09/05/2013  12:44:00     -229.228     -229.123      -17.642      128.464      114.501       70.674    16503.124    13110.575     4994.805        6.997        1.730      324.103       54.544        0.028      348.090       27.529      860.653
09/05/2013  12:45:00     -153.823     -240.329       13.248      140.427      133.015       69.509    19719.644    17692.966     4831.564        6.191        2.112      285.341       48.300        0.029      348.116       27.573      860.618
09/05/2013  12:46:00      -81.898      -90.587       10.599      111.670       82.060       53.645    12470.226     6733.785     2877.778        1.855        1.104      122.121       24.470        0.040      348.324       27.937      860.655
09/05/2013  12:47:00      -54.937     -126.897        7.888      111.278       97.439       61.034    12382.837     9494.287     3725.183        2.239        1.280      138.278       58.662        0.180      348.466       28.180      860.666
09/05/2013  12:48:00       28.491     -240.399      -36.172      188.446      176.261       96.013    35511.980    31067.872     9218.450        6.784        3.790      242.081       82.844        0.117      348.050       27.461      860.628
09/05/2013  12:49:00      -93.401      -88.595       19.339       87.251      131.002       57.220     7612.659    17161.489     3274.156        2.249        1.402      128.735       52.341        0.165      348.144       27.624      860.654
09/05/2013  12:50:00      -40.090     -129.926       16.470      148.483      142.324       65.976    22047.334    20256.050     4352.842        3.270        2.333      135.970       60.460        0.198      348.298       27.890      860.661
09/05/2013  12:51:00     -113.466     -123.306       24.675      168.336      158.489       90.407    28337.079    25118.883     8173.406        4.515        3.081      167.568       68.587        0.168      348.315       27.920      860.684
09/05/2013  12:52:00     -307.807     -272.363      -19.097      214.680      142.003       74.321    46087.578    20164.855     5523.635       12.052        3.589      411.007       49.298        0.014      347.906       27.211      860.730
09/05/2013  12:53:00     -356.786     -243.566      -10.620      165.519      149.004       78.080    27396.509    22202.166     6096.534       12.120        2.785      431.996       85.653        0.039      347.533       26.567      860.706
09/05/2013  12:54:00     -332.050     -112.833        8.287      209.324      190.178       99.424    43816.720    36167.562     9885.173       10.645        4.493      350.697      123.669        0.124      347.740       26.924      860.640
09/05/2013  12:55:00     -135.756     -209.784       -7.190      133.287      160.209       75.357    17765.320    25666.912     5678.619        5.579        2.456      249.878       72.981        0.085      347.897       27.196      860.720
09/05/2013  12:56:00     -138.002     -257.138      -10.425      136.722      127.962       76.875    18692.835    16374.150     5909.830        6.312        2.049      291.830       63.415        0.047      347.866       27.142      860.691
09/05/2013  12:57:00      -65.507     -388.474       -3.189      133.149      209.371       86.920    17728.640    43836.367     7555.077       11.215        3.456      393.958       65.517        0.028      347.671       26.806      860.680
09/05/2013  12:58:00       32.056     -164.683       34.269      159.443      177.938       98.744    25422.158    31661.970     9750.470        4.807        3.342      167.774      102.529        0.373      347.873       27.156      860.602
09/05/2013  12:59:00       26.043       52.850      163.787      136.328      166.896      115.730    18585.293    27854.260    13393.543        4.505        2.992       58.918      109.318        3.443      347.967       27.318      860.483
09/05/2013  13:00:00       84.388      -54.530      115.307      154.398      252.931      139.156    23838.653    63973.958    19364.379        6.526        5.359      100.473      170.822        2.891      347.868       27.145      860.461
09/05/2013  13:01:00      -39.300     -118.077       42.433      105.366      137.846       96.558    11102.068    19001.632     9323.435        2.835        1.971      124.445       97.601        0.615      348.073       27.500      860.488
09/05/2013  13:02:00      118.799     -241.812      -40.484      192.170      181.803       75.226    36929.317    33052.440     5659.024        7.492        3.782      269.418       74.989        0.077      347.996       27.368      860.555
09/05/2013  13:03:00       46.092     -225.622       14.640      156.795      182.475      124.368    24584.711    33297.079    15467.301        6.328        3.667      230.281      115.508        0.252      347.994       27.363      860.551
09/05/2013  13:04:00       42.184     -274.861       14.371      148.440      176.319       93.152    22034.511    31088.467     8677.229        6.966        3.090      278.079       77.165        0.077      347.807       27.039      860.557
09/05/2013  13:05:00      -89.921     -123.877       10.418      143.733      110.646       71.684    20659.116    12242.625     5138.637        3.078        1.902      153.073       73.235        0.229      348.175       27.677      860.567
09/05/2013  13:06:00     -153.327     -201.579        8.866      266.952      177.088      102.305    71263.366    31360.046    10466.300        8.863        5.654      253.265      112.180        0.196      347.857       27.126      860.562
09/05/2013  13:07:00      -37.369     -301.652      -11.131      152.624      164.636       87.619    23294.066    27104.953     7677.085        7.528        2.904      303.957       69.625        0.052      347.838       27.095      860.597
09/05/2013  13:08:00      -28.701     -201.684        5.387      156.141      165.629       74.713    24379.928    27432.950     5582.093        4.945        2.870      203.716       73.067        0.129      347.922       27.239      860.619
09/05/2013  13:09:00       18.116     -324.017      -33.837      148.581      164.776       81.836    22076.198    27151.170     6697.077        8.118        2.796      324.523       69.619        0.046      347.892       27.186      860.645
09/05/2013  13:10:00      -76.093     -377.928        6.391      177.135      175.386      103.562    31376.830    30760.257    10724.993       11.075        3.643      385.513       81.455        0.045      347.868       27.145      860.657
09/05/2013  13:11:00     -237.432     -334.634       -2.809      158.590      189.511       83.992    25150.696    35914.563     7054.599       11.823        3.406      410.309       52.405        0.016      348.033       27.431      860.666
09/05/2013  13:12:00     -182.615     -205.444        7.614      129.673      141.103       70.604    16815.130    19910.011     4984.937        5.865        2.086      274.874       69.764        0.064      348.154       27.640      860.656
09/05/2013  13:13:00     -225.697     -184.375       -8.225      143.827      115.259       64.813    20686.154    13284.608     4200.784        6.158        1.909      291.433       65.100        0.050      347.984       27.346      860.620
09/05/2013  13:14:00      -49.451     -167.581      -18.344      164.677      118.130       75.783    27118.356    13954.653     5743.071        3.883        2.341      174.725       54.442        0.097      348.364       28.005      860.591
09/05/2013  13:15:00      -44.870     -160.261       14.610      143.620      136.748       77.521    20626.725    18700.005     6009.486        3.661        2.267      166.424       82.090        0.243      348.138       27.613      860.523
09/05/2013  13:16:00      -22.584     -123.819       24.737       78.200      113.350       71.183     6115.164    12848.180     5067.023        2.024        1.202      125.862       64.831        0.265      348.003       27.381      860.506
09/05/2013  13:17:00       27.686     -214.580        7.057      106.461      168.687       71.591    11333.865    28455.339     5125.326        4.588        2.246      216.359       72.811        0.113      348.050       27.461      860.464
09/05/2013  13:18:00       40.042     -275.551       13.005      130.242      192.796       75.825    16963.087    37170.335     5749.424        6.878        2.994      278.445       74.265        0.071      348.009       27.389      860.456
09/05/2013  13:19:00       22.663     -322.066       28.824      168.916      196.233      120.246    28532.727    38507.287    14459.080        9.327        4.075      322.863       97.409        0.091      348.033       27.431      860.430
09/05/2013  13:20:00      -13.068     -267.488       22.687      153.812      183.842      110.071    23658.202    33797.700    12115.525        7.089        3.479      267.807      102.417        0.146      347.996       27.367      860.464
09/05/2013  13:21:00      -35.575     -352.542      -23.344      124.699      120.486       64.827    15549.720    14516.888     4202.568        8.018        1.713      354.332       40.459        0.013      347.851       27.116      860.518
09/05/2013  13:22:00        8.801     -251.470       24.945      189.461      131.966      100.355    35895.609    17415.147    10071.100        6.365        3.169      251.624       74.535        0.088      347.951       27.290      860.503
09/05/2013  13:23:00     -155.829     -117.930        1.941      148.628      103.884       68.068    22090.226    10791.910     4633.240        3.785        1.876      195.423       42.329        0.047      348.206       27.729      860.548
09/05/2013  13:24:00     -244.204     -229.919        1.277      175.643      126.419       67.934    30850.453    15981.788     4615.080        8.196        2.572      335.407       71.293        0.045      348.082       27.515      860.562
09/05/2013  13:25:00     -255.426     -172.861       12.625      169.539      112.387       72.716    28743.504    12630.882     5287.649        7.096        2.333      308.420       75.223        0.059      348.059       27.474      860.505
09/05/2013  13:26:00     -135.561      -91.749      -10.681       75.722       70.323       44.160     5733.818     4945.358     1950.098        1.977        0.631      163.691       27.657        0.029      348.151       27.637      860.482
09/05/2013  13:27:00      -90.986     -120.436      -15.541       72.306       70.826       45.777     5228.208     5016.358     2095.505        1.768        0.617      150.941       30.058        0.040      348.191       27.706      860.468
09/05/2013  13:28:00      -38.900      -65.904      -16.864       78.637       74.048       60.625     6183.714     5483.035     3675.359        1.074        0.767       76.528       53.149        0.482      348.241       27.793      860.449
09/05/2013  13:29:00      -94.385     -215.780       -9.609      159.798       98.270       56.230    25535.494     9656.918     3161.785        4.695        1.918      235.520       55.566        0.056      348.112       27.567      860.495
09/05/2013  13:30:00      -68.287      -86.486       20.029      119.150       92.910       53.840    14196.832     8632.215     2898.792        1.913        1.286      110.195       60.897        0.305      348.419       28.100      860.554
09/05/2013  13:31:00     -325.324     -122.565        2.391      215.990      137.583       63.940    46651.626    18929.201     4088.303        9.525        3.483      347.647       83.269        0.057      348.004       27.382      860.529
09/05/2013  13:32:00     -139.106     -223.491      -28.502      198.222      143.118       83.719    39291.949    20482.687     7008.796        6.843        3.339      263.247       57.553        0.048      347.941       27.273      860.480
09/05/2013  13:33:00      -56.867      -18.774        9.089       99.357       87.110       56.159     9871.877     7588.145     3153.887        1.214        1.031       59.886       51.902        0.751      348.392       28.055      860.487
09/05/2013  13:34:00       79.720     -243.810      -13.252      204.801      191.654       98.518    41943.416    36731.066     9705.868        7.716        4.419      256.513       87.776        0.117      347.973       27.325      860.436
09/05/2013  13:35:00     -108.671     -151.168       18.685      198.502      138.447       71.439    39403.020    19167.561     5103.523        4.933        3.184      186.175       86.306        0.215      348.365       28.007      860.467
09/05/2013  13:36:00       28.197     -175.925      -23.685      168.521      112.810       63.241    28399.209    12726.032     3999.466        3.871        2.256      178.171       56.913        0.102      348.176       27.678      860.479
09/05/2013  13:37:00      -70.876      -63.794        1.860      122.167       70.890       41.153    14924.683     5025.392     1693.573        1.537        1.082       95.358       11.839        0.015      348.346       27.972      860.439
09/05/2013  13:38:00     -152.203     -166.189       14.887      191.750      150.939       77.799    36767.977    22782.602     6052.727        5.829        3.280      225.354       75.441        0.112      348.232       27.776      860.432
09/05/2013  13:39:00        4.947     -174.300       -0.724      177.149      108.051       69.705    31381.770    11675.117     4858.789        3.915        2.396      174.370       62.408        0.128      348.104       27.555      860.377
09/05/2013  13:40:00      -51.539     -174.004        1.109      180.702      184.528       90.486    32653.188    34050.402     8187.805        5.390        3.745      181.476       82.977        0.209      348.141       27.619      860.354
09/05/2013  13:41:00      -93.006     -268.104        3.913      172.530      122.041       82.304    29766.613    14893.943     6773.919        6.598        2.572      283.778       66.139        0.054      347.940       27.269      860.367
09/05/2013  13:42:00      -51.052     -191.269       10.543      164.403      145.242       81.330    27028.430    21095.294     6614.581        4.701        2.737      197.965       75.810        0.147      348.150       27.633      860.379
09/05/2013  13:43:00      105.774     -302.394       -3.921      181.479      177.378      113.966    32934.517    31463.003    12988.285        9.000        3.869      320.360       91.576        0.082      347.940       27.271      860.383
09/05/2013  13:44:00      -10.473     -160.588      -12.177      141.423      146.503       86.923    20000.478    21463.157     7555.678        3.752        2.451      160.929       89.725        0.311      348.225       27.761      860.381
09/05/2013  13:45:00     -123.094     -251.597      -26.573      164.293      173.466       86.139    26992.264    30090.283     7419.883        7.182        3.225      280.095       77.411        0.076      348.088       27.525      860.411
09/05/2013  13:46:00      -34.209     -355.548      -12.421      242.475      139.619      107.801    58793.985    19493.465    11621.115       10.881        4.495      357.190      100.464        0.079      347.755       26.951      860.439
09/05/2013  13:47:00       10.581     -252.119        1.963      216.873      180.177       99.414    47033.975    32463.672     9883.176        7.651        4.469      252.340       79.334        0.099      347.855       27.123      860.394
09/05/2013  13:48:00      -45.159     -294.160       -1.121      145.130      268.771       92.667    21062.572    72237.741     8587.107        9.521        5.094      297.606       72.788        0.060      347.996       27.368      860.395
09/05/2013  13:49:00     -286.201     -313.427        1.510      272.958      219.438       95.388    74506.003    48152.893     9098.869       15.593        6.588      424.438      114.321        0.073      348.052       27.464      860.484
09/05/2013  13:50:00     -240.596     -199.568       17.829      235.908      199.692      103.184    55652.810    39876.986    10646.917       10.208        5.309      312.592      116.661        0.139      348.318       27.923      860.489
09/05/2013  13:51:00     -135.831     -164.651        2.134      164.732      127.131       73.625    27136.688    16162.411     5420.589        4.713        2.436      213.447       56.566        0.070      348.461       28.169      860.492
09/05/2013  13:52:00     -417.358     -243.454       12.826      304.192      196.459      106.802    92532.705    38595.970    11406.583       18.805        7.127      483.174      122.431        0.064      348.165       27.660      860.491
09/05/2013  13:53:00     -214.807     -356.798       27.529      237.517      272.682      105.917    56414.411    74355.693    11218.367       15.807        7.099      416.470      122.895        0.087      347.946       27.281      860.489
09/05/2013  13:54:00     -381.678     -268.997      -10.132      221.499      152.642       97.964    49061.765    23299.649     9596.954       15.003        4.098      466.945      108.983        0.054      347.905       27.209      860.476
09/05/2013  13:55:00     -315.161     -208.576       -0.811      162.559      168.535       81.789    26425.428    28404.006     6689.480       10.216        3.076      377.930       87.817        0.054      347.898       27.197      860.375
09/05/2013  13:56:00     -237.936     -210.648       24.012      215.252      152.912       99.866    46333.269    23381.929     9973.268        9.061        3.984      317.783       89.133        0.079      347.798       27.025      860.447
09/05/2013  13:57:00     -226.715     -376.437       12.675      180.306      272.775       93.506    32510.222    74406.082     8743.309       15.444        5.783      439.437       90.967        0.043      347.805       27.036      860.433
09/05/2013  13:58:00     -381.823     -278.632      -14.811      253.408      259.372      105.302    64215.377    67273.649    11088.439       18.308        7.129      472.678       96.192        0.041      347.890       27.184      860.388
09/05/2013  13:59:00     -356.390     -212.083       -4.214      252.115      180.942       91.264    63562.024    32740.088     8329.036       13.830        5.232      414.720      100.085        0.058      347.896       27.193      860.317
09/05/2013  14:00:00     -540.631     -353.482      -13.442      318.727      240.156      117.827   101587.073    57675.111    13883.281       29.524        8.657      645.935      136.503        0.045      347.873       27.155      860.263
09/05/2013  14:01:00     -348.076     -273.619      -30.721      182.699      194.042       88.574    33378.760    37652.411     7845.431       13.791        3.944      442.746       85.007        0.037      347.914       27.224      860.258
09/05/2013  14:02:00     -439.403     -411.216       -5.707      281.592      213.551      129.095    79293.795    45604.098    16665.504       25.186        7.078      601.809      140.757        0.055      348.061       27.479      860.263
09/05/2013  14:03:00     -662.494     -429.406      -16.984      352.639      296.675      136.424   124353.914    88015.951    18611.589       42.723       11.549      789.486      174.746        0.049      347.848       27.111      860.223
09/05/2013  14:04:00     -488.850     -349.913      -34.160      293.037      276.344      126.764    85870.675    76366.027    16069.030       27.041        8.915      601.177      134.261        0.050      347.766       26.969      860.286
09/05/2013  14:05:00     -269.665     -294.506      -17.767      219.980      205.042      105.087    48391.035    42042.070    11043.366       13.060        5.074      399.315       88.063        0.049      347.910       27.218      860.372
09/05/2013  14:06:00     -356.898     -254.996      -16.696      220.919      164.425       83.510    48805.286    27035.744     6973.991       13.773        4.141      438.634       87.275        0.040      347.932       27.256      860.451
09/05/2013  14:07:00     -392.451     -266.421       -8.768      216.202      207.147       98.946    46743.349    42909.945     9790.230       16.224        4.972      474.340      101.775        0.046      347.783       27.000      860.394
09/05/2013  14:08:00     -458.549     -301.644       -6.234      278.926      215.223      115.163    77799.786    46320.901    13262.458       21.931        6.869      548.868      129.958        0.056      347.733       26.912      860.331
09/05/2013  14:09:00     -577.116     -368.670      -18.620      266.685      222.608      118.679    71121.122    49554.232    14084.598       30.202        6.738      684.822      126.162        0.034      347.754       26.950      860.276
09/05/2013  14:10:00     -426.031     -396.231       -7.931      252.255      248.348      119.478    63632.592    61676.823    14274.876       23.905        6.979      581.809      130.703        0.050      347.832       27.084      860.300
09/05/2013  14:11:00     -352.972     -223.897       -3.548      190.001      232.512       93.041    36100.541    54061.643     8656.699       13.676        4.941      417.994      103.948        0.062      348.026       27.420      860.318
09/05/2013  14:12:00     -349.178     -184.336       16.840      358.397      206.676      129.834   128448.226    42714.970    16856.803       17.207        9.401      394.848      147.466        0.139      347.857       27.127      860.239
09/05/2013  14:13:00     -484.099     -245.186        4.291      275.724      236.418      121.845    76023.597    55893.298    14846.282       22.060        7.338      542.649      144.182        0.071      348.022       27.411      860.226
09/05/2013  14:14:00     -549.851     -330.125       -6.990      347.499      276.210      130.376   120755.469    76292.063    16997.865       31.266       10.702      641.341      155.578        0.059      347.895       27.192      860.168
09/05/2013  14:15:00     -455.043     -345.594      -12.405      220.416      183.596       89.382    48583.297    33707.349     7989.082       20.845        4.514      571.401       92.021        0.026      347.852       27.118      860.210
09/05/2013  14:16:00     -655.848     -369.297      -17.028      359.557      237.031      136.127   129281.047    56183.746    18530.637       38.536       10.200      752.673      167.567        0.050      347.753       26.948      860.120
09/05/2013  14:17:00     -528.330     -440.746      -40.081      239.276      234.396      109.887    57252.826    54941.673    12075.141       29.961        6.213      688.033       91.585        0.018      347.852       27.118      860.172
09/05/2013  14:18:00     -262.241     -426.710       -7.460      265.953      264.213      124.769    70730.842    69808.340    15567.369       20.348        7.805      500.851      140.351        0.079      347.994       27.363      860.264
09/05/2013  14:19:00     -330.408     -255.107        5.801      262.176      175.357      114.498    68736.307    30749.951    13109.884       14.342        5.630      417.431      142.843        0.117      348.118       27.578      860.260
09/05/2013  14:20:00     -340.846     -246.987        7.702      267.273      170.657       90.437    71435.085    29123.738     8178.829       14.297        5.437      420.926       81.866        0.038      348.116       27.573      860.291
09/05/2013  14:21:00     -388.162     -221.941       10.946      243.327      240.652      117.497    59208.122    57913.471    13805.574       16.546        6.546      447.133      114.971        0.066      348.183       27.690      860.273
09/05/2013  14:22:00     -207.478     -209.411       14.673      199.954      173.142      100.316    39981.449    29978.198    10063.373        8.355        4.001      294.788       96.321        0.107      348.030       27.424      860.275
09/05/2013  14:23:00      -97.820     -296.029        6.723      190.493      149.037       95.828    36287.489    22211.887     9183.056        8.245        3.384      311.772       91.851        0.087      348.093       27.535      860.380
09/05/2013  14:24:00     -220.558     -298.907        5.047      163.349      210.249       90.662    26682.817    44204.808     8219.606       10.855        3.955      371.472       54.898        0.022      348.011       27.392      860.387
09/05/2013  14:25:00     -220.065     -322.233       19.437      205.306      167.881       94.940    42150.376    28183.955     9013.666       11.598        3.967      390.208       76.753        0.039      347.822       27.066      860.367
09/05/2013  14:26:00     -239.517     -229.781       21.556      226.629      210.164      105.595    51360.646    44168.779    11150.347       10.863        5.334      331.915      116.239        0.123      347.929       27.251      860.327
09/05/2013  14:27:00     -279.664     -400.093      -12.053      221.403      218.698      107.674    49019.408    47828.890    11593.642       17.342        5.422      488.146      115.195        0.056      347.832       27.083      860.303
09/05/2013  14:28:00     -352.499     -261.330       -6.723      227.438      188.007       94.799    51727.923    35346.491     8986.927       14.431        4.803      438.804      102.203        0.054      347.861       27.135      860.284
09/05/2013  14:29:00     -337.998     -288.855       32.424      259.601      185.870      118.437    67392.767    34547.822    14027.440       15.733        5.798      444.612      129.128        0.084      347.754       26.949      860.265
09/05/2013  14:30:00     -425.903     -407.677      -23.349      224.623      186.311      116.538    50455.634    34711.880    13581.200       22.342        4.937      589.571      100.677        0.029      347.765       26.967      860.282
09/05/2013  14:31:00     -346.970     -336.618        0.141      244.657      190.303       92.389    59857.241    36215.160     8535.712       16.913        5.230      483.425       98.178        0.041      347.891       27.185      860.260
09/05/2013  14:32:00     -428.543     -354.601      -26.232      202.665      229.620      105.355    41073.102    52725.411    11099.670       20.747        5.245      556.229      110.128        0.039      347.781       26.995      860.243
09/05/2013  14:33:00     -414.160     -333.613       -0.244      264.493      235.679      125.010    69956.800    55544.758    15627.553       21.195        7.056      531.814      130.942        0.061      347.751       26.944      860.182
09/05/2013  14:34:00     -570.750     -515.778      -18.428      323.474      303.490      146.524   104635.301    92106.227    21469.207       40.512       10.911      769.274      163.375        0.045      347.700       26.855      860.207
09/05/2013  14:35:00     -328.824     -280.992       15.683      234.663      273.969      115.356    55066.647    75058.743    13307.090       16.535        7.172      432.529      130.350        0.091      347.632       26.738      860.178
09/05/2013  14:36:00     -251.028     -280.937      -26.334      290.847      177.045      111.516    84592.155    31344.869    12435.779       13.548        6.419      376.750       91.485        0.059      347.733       26.913      860.121
09/05/2013  14:37:00     -255.289     -235.287       16.473      238.002      229.397      105.845    56644.981    52622.803    11203.210       12.061        6.024      347.179      109.399        0.099      348.006       27.383      860.125
09/05/2013  14:38:00     -374.777     -319.480        8.445      307.430      270.821      113.937    94513.471    73343.796    12981.726       21.168        9.042      492.468      140.362        0.081      347.987       27.350      860.198
09/05/2013  14:39:00     -221.245     -299.589       36.384      199.668      249.724       99.999    39867.391    62362.091     9999.867       12.611        5.611      372.428       83.168        0.050      347.991       27.357      860.220
09/05/2013  14:40:00     -270.125     -289.948       -4.009      215.858      176.896      106.083    46594.548    31292.128    11253.527       12.308        4.457      396.279       98.749        0.062      348.075       27.505      860.173
09/05/2013  14:41:00     -367.029     -255.624       -8.186      208.382      171.120      101.106    43422.942    29282.206    10222.446       14.151        4.146      447.274      106.096        0.056      347.929       27.251      860.158
09/05/2013  14:42:00     -225.329     -268.524        5.937      182.836      189.726       75.927    33429.068    35995.771     5764.889        9.904        3.759      350.540       73.450        0.044      347.820       27.062      860.128
09/05/2013  14:43:00     -229.697     -224.547        0.801      161.006      141.011       85.185    25922.827    19884.181     7256.502        7.811        2.653      321.219       84.915        0.070      347.928       27.249      860.117
09/05/2013  14:44:00     -263.788     -200.723        4.491      191.803      148.843       75.168    36788.500    22154.124     5650.278        8.723        3.230      331.472       83.002        0.063      348.183       27.690      860.140
09/05/2013  14:45:00     -184.269     -275.447       -1.013      208.034      208.556       82.400    43278.184    43495.760     6789.812       10.168        4.678      331.400       80.516        0.059      348.169       27.666      860.185
09/05/2013  14:46:00     -329.491     -320.404        0.650      193.181      154.868       94.758    37318.820    23984.135     8979.065       14.074        3.514      459.590       85.057        0.034      348.145       27.625      860.161
09/05/2013  14:47:00     -164.421     -189.788       30.230      154.400      154.105       83.838    23839.494    23748.493     7028.786        5.928        2.731      251.106       91.797        0.134      348.354       27.987      860.175
09/05/2013  14:48:00     -195.516     -157.714       -0.331      147.538      156.376       76.384    21767.476    24453.408     5834.464        5.757        2.603      251.197       75.132        0.089      348.366       28.008      860.178
09/05/2013  14:49:00     -465.537     -162.683      -15.705      321.482      226.564      104.199   103350.748    51331.311    10857.427       20.445        8.277      493.143      147.124        0.089      348.123       27.587      860.098
09/05/2013  14:50:00     -364.111     -147.010      -11.742      215.891      203.224      102.085    46609.028    41300.127    10421.418       12.631        4.917      392.668      104.514        0.071      347.927       27.246      860.094
09/05/2013  14:51:00     -325.219     -164.268      -10.794      248.563      173.799       91.333    61783.585    30206.155     8341.683       11.658        5.017      364.350       94.711        0.068      347.921       27.238      860.075
09/05/2013  14:52:00     -284.465     -220.074        1.052      166.480      162.440       87.233    27715.605    26386.782     7609.638        9.552        3.086      359.657       90.352        0.063      348.003       27.378      860.122
09/05/2013  14:53:00     -368.422     -269.143       11.176      245.968      220.184      106.527    60500.401    48480.873    11347.929       16.429        6.016      456.260      122.368        0.072      347.910       27.219      860.123
09/05/2013  14:54:00     -264.186     -247.136       -5.776      206.810      162.895       90.140    42770.251    26534.634     8125.131       10.415        3.872      361.761       85.997        0.057      347.972       27.326      860.091
09/05/2013  14:55:00     -254.334     -278.288        2.458      187.465      181.883       92.074    35143.287    33081.433     8477.563       10.940        3.835      377.001       99.467        0.070      348.130       27.597      860.125
09/05/2013  14:56:00     -171.551     -269.338        3.361      137.025      128.831       68.719    18775.721    16597.384     4722.257        7.103        2.005      319.331       47.700        0.022      348.238       27.786      860.167
09/05/2013  14:57:00     -136.876     -101.772       10.340      177.507      103.974       71.346    31508.890    10810.666     5090.314        3.830        2.370      170.565       80.475        0.223      348.124       27.589      860.113
09/05/2013  14:58:00      -61.057     -255.751      -12.699      110.519      175.845       83.343    12214.442    30921.489     6946.104        5.968        2.504      262.938       74.562        0.080      347.833       27.086      860.105
09/05/2013  14:59:00       45.643     -216.519      -13.752      137.184      103.611       82.413    18819.551    10735.239     6791.871        4.274        1.817      221.277       64.163        0.084      347.738       26.920      860.033
09/05/2013  15:00:00     -343.831     -275.768       22.896      295.187      192.296      100.124    87135.235    36977.873    10024.889       16.444        6.707      440.758      121.659        0.076      348.030       27.425      860.018
09/05/2013  15:01:00     -429.887     -269.506        2.065      277.344      235.696      111.084    76919.674    55552.676    12339.639       20.110        7.241      507.382      122.999        0.059      347.842       27.101      859.968
09/05/2013  15:02:00     -371.899      -55.954       -5.287      240.143      159.890       89.036    57668.424    25564.850     7927.478       11.630        4.558      376.085       83.955        0.050      348.077       27.507      859.950
09/05/2013  15:03:00     -402.321     -124.710       10.946      222.159      211.092      104.693    49354.696    44560.024    10960.674       14.118        5.244      421.207      112.247        0.071      348.121       27.581      859.941
09/05/2013  15:04:00     -415.305     -343.887      -11.590      258.698      262.449      122.865    66924.519    68879.558    15095.852       22.086        7.545      539.200      146.675        0.074      348.047       27.456      859.915
09/05/2013  15:05:00     -408.250     -382.974      -19.238      186.026      211.317      102.258    34605.493    44654.753    10456.740       20.169        4.486      559.765      104.696        0.035      348.046       27.452      860.066
09/05/2013  15:06:00      -81.785      -97.444       23.717      191.045      155.746       82.383    36498.318    24256.759     6786.903        4.213        3.377      127.216       76.986        0.366      348.258       27.820      860.065
09/05/2013  15:07:00      -49.877     -225.802      -25.302      127.518      127.213       66.724    16260.719    16183.030     4452.064        4.550        1.845      231.245       51.728        0.050      348.122       27.584      860.089
09/05/2013  15:08:00       65.895     -148.114       12.240      124.319      159.478       78.418    15455.200    25433.333     6149.373        3.672        2.352      162.111       97.178        0.359      348.086       27.523      860.022
09/05/2013  15:09:00       74.294     -276.057      -23.355      132.032      159.065      113.363    17432.485    25301.545    12851.183        6.892        2.779      285.879       78.225        0.075      347.885       27.175      860.013
09/05/2013  15:10:00      -55.598     -106.866      -17.007       85.940       94.941       56.589     7385.654     9013.849     3202.352        1.720        0.980      120.464       39.975        0.110      348.306       27.905      859.970
09/05/2013  15:11:00        2.900     -147.513       -8.328      176.001      113.455       66.777    30976.341    12872.039     4459.171        3.506        2.415      147.542       69.719        0.223      348.351       27.982      860.008
09/05/2013  15:12:00       35.353     -240.496      -20.077      176.170      197.526       87.238    31035.969    39016.351     7610.508        6.856        3.883      243.080       55.052        0.051      348.202       27.725      860.031
09/05/2013  15:13:00       21.207     -308.300        7.099      136.578      229.382       73.014    18653.461    52616.063     5330.993        8.606        3.830      309.028       66.316        0.046      347.980       27.340      860.037
09/05/2013  15:14:00       17.150     -327.673       -2.890      218.417      178.497      110.871    47706.135    31861.211    12292.268        9.975        4.593      328.122      100.900        0.095      347.885       27.177      860.099
09/05/2013  15:15:00     -146.227     -157.163       -9.035      154.712      132.226       75.282    23935.844    17483.674     5667.454        4.662        2.354      214.669       52.273        0.059      347.974       27.330      860.003
09/05/2013  15:16:00      -99.430     -138.233        8.285      140.090      141.544       70.649    19625.315    20034.658     4991.260        3.685        2.233      170.278       58.187        0.117      348.047       27.455      859.990
09/05/2013  15:17:00        6.710      -85.597       18.547      109.582      136.766       74.259    12008.309    18705.033     5514.368        2.196        1.811       85.860       85.685        0.996      348.399       28.066      860.013
09/05/2013  15:18:00     -144.318      -90.369       17.232      177.754      144.458       81.651    31596.398    20868.195     6666.940        4.420        2.957      170.277       76.526        0.202      348.248       27.803      860.009
09/05/2013  15:19:00      -99.882     -145.562       33.215      198.593      151.343       86.148    39439.234    22904.745     7421.488        5.100        3.488      176.535       88.904        0.254      348.375       28.022      859.998
09/05/2013  15:20:00      -23.845     -212.804       -9.654      176.091      168.886       85.374    31007.923    28522.412     7288.794        5.637        3.341      214.136       61.244        0.082      348.017       27.403      859.974
09/05/2013  15:21:00     -154.375     -246.198        5.234      219.928      209.404       89.623    48368.288    43850.192     8032.370        9.234        5.013      290.595       97.602        0.113      348.159       27.650      860.020
09/05/2013  15:22:00     -310.131     -242.435       15.820      203.000      187.090       98.581    41208.936    35002.811     9718.239       12.055        4.296      393.644      100.422        0.065      348.152       27.636      860.011
09/05/2013  15:23:00     -323.730     -239.867       -1.147      212.125      173.970      103.806    44996.918    30265.403    10775.754       12.417        4.302      402.911      116.680        0.084      347.888       27.179      859.959
09/05/2013  15:24:00     -208.531     -273.470       22.718      199.022      222.624      102.309    39609.730    49561.513    10467.187       10.919        4.982      343.905      111.334        0.105      348.023       27.414      859.994
09/05/2013  15:25:00     -390.822     -270.130       18.701      301.381      206.703      127.565    90830.280    42725.980    16272.819       18.792        7.491      475.092      162.317        0.117      348.108       27.561      859.974
09/05/2013  15:26:00     -664.808     -493.405       -0.575      387.042      282.283      152.958   149801.284    79683.896    23396.138       46.910       12.644      827.900      191.328        0.053      347.775       26.984      859.899
09/05/2013  15:27:00     -489.885     -303.906      -12.037      339.353      245.917      134.885   115160.421    60475.231    18193.971       26.312        9.691      576.494      156.358        0.074      347.857       27.126      859.866
09/05/2013  15:28:00     -507.886     -243.339        0.080      273.586      202.074      122.768    74849.055    40833.700    15072.006       22.393        6.538      563.171      121.563        0.047      347.855       27.124      859.895
09/05/2013  15:29:00     -634.715     -196.291      -20.086      207.665      187.110       97.784    43124.636    35010.070     9561.640       26.473        4.385      664.375      100.335        0.023      347.791       27.013      859.872
09/05/2013  15:30:00     -447.403     -228.184       -7.652      220.793      192.779      113.514    48749.544    37163.698    12885.488       17.553        4.940      502.233      129.104        0.066      347.842       27.100      859.866
09/05/2013  15:31:00     -406.439     -198.718       -2.593      266.632      244.290      104.658    71092.748    59677.602    10953.364       17.318        7.086      452.418      123.462        0.074      347.771       26.978      859.912
09/05/2013  15:32:00     -349.658     -300.939        2.672      228.452      220.700      102.563    52190.387    48708.537    10519.195       16.210        5.571      461.330      110.809        0.058      347.851       27.116      859.930
09/05/2013  15:33:00     -437.458     -304.591      -13.205      258.021      190.814       90.803    66574.975    36409.991     8245.123       19.775        5.562      533.052      108.685        0.042      347.779       26.991      859.928
09/05/2013  15:34:00     -182.623     -169.336      -20.278      130.233       84.914       59.468    16960.545     7210.459     3536.453        4.507        1.385      249.050       34.450        0.019      348.016       27.400      859.937
09/05/2013  15:35:00      -84.378     -288.768      -21.448      112.471      122.530       69.560    12649.790    15013.578     4838.554        6.173        1.625      300.843       48.693        0.026      347.922       27.239      859.890
09/05/2013  15:36:00      -10.428     -314.180      -28.148      153.204      130.608       74.586    23471.350    17058.378     5563.004        7.284        2.305      314.353       49.004        0.024      348.034       27.432      859.832
09/05/2013  15:37:00     -133.835     -228.998       -5.256      205.660      161.827       80.920    42296.153    26188.019     6547.981        7.269        3.752      265.239       91.895        0.120      348.239       27.789      859.877
09/05/2013  15:38:00     -103.255     -390.572        3.067      236.549      210.581      114.465    55955.512    44344.453    13102.215       13.829        5.670      403.990       68.110        0.028      347.850       27.114      859.895
09/05/2013  15:39:00     -104.794     -226.499      -21.429      186.368      169.119       86.003    34733.099    28601.343     7396.510        6.672        3.537      249.567       68.656        0.076      347.949       27.285      859.928
09/05/2013  15:40:00       29.497     -242.342        9.572      159.315      172.603      102.790    25381.304    29791.926    10565.883        6.270        3.287      244.131       89.629        0.135      347.791       27.013      859.876
09/05/2013  15:41:00      -38.481     -255.512        2.986      111.605       88.483       74.868    12455.667     7829.175     5605.173        4.633        1.295      258.394       27.638        0.011      347.829       27.078      859.895
09/05/2013  15:42:00      -91.041     -109.265      -12.746      108.308      111.114       54.669    11730.719    12346.287     2988.650        2.372        1.353      142.222       18.296        0.017      347.937       27.267      859.885
09/05/2013  15:43:00      -45.189      -60.423       10.366       84.588       68.111       41.869     7155.186     4639.116     1752.992        0.967        0.677       75.452       16.279        0.047      348.092       27.536      859.859
09/05/2013  15:44:00      -69.019      -86.631        2.373      111.863       91.818       53.547    12513.244     8430.543     2867.323        1.804        1.191      110.763       46.279        0.175      348.155       27.643      859.849
09/05/2013  15:45:00     -237.552     -246.175       -3.523      118.775      128.515       81.781    14107.572    16516.162     6688.060        7.717        1.866      342.101       63.698        0.035      347.898       27.196      859.799
09/05/2013  15:46:00     -221.004     -140.446       15.513      165.286       98.452       61.432    27319.430     9692.816     3773.952        5.479        2.039      261.855       64.819        0.061      348.099       27.545      859.801
09/05/2013  15:47:00     -262.601     -153.697      -19.038      120.498       91.173       52.019    14519.873     8312.576     2705.987        5.924        1.277      304.273       45.558        0.022      348.231       27.771      859.884
09/05/2013  15:48:00     -221.702     -147.797       -1.963      118.346      103.520       56.937    14005.718    10716.395     3241.812        4.948        1.398      266.450       52.799        0.039      348.234       27.776      859.862
09/05/2013  15:49:00     -230.353     -253.776       -1.677      133.581      162.586       72.964    17843.940    26434.357     5323.730        8.352        2.480      342.732       80.063        0.055      348.046       27.453      859.850
09/05/2013  15:50:00     -155.650     -181.755       14.944      125.476      135.433       68.342    15744.252    18342.102     4670.633        4.811        1.938      239.294       62.812        0.069      348.266       27.833      859.845
09/05/2013  15:51:00     -105.697      -73.289      -10.467       66.903       72.263       48.862     4475.953     5221.879     2387.506        1.437        0.604      128.620       36.331        0.080      348.220       27.756      859.833
09/05/2013  15:52:00     -137.428     -199.065      -11.821      111.176      104.030       47.344    12360.032    10822.256     2241.450        4.203        1.271      241.895       23.431        0.009      347.985       27.349      859.833
09/05/2013  15:53:00     -303.892     -244.147      -15.591      232.868      158.936       67.914    54227.281    25260.603     4612.345       11.813        4.205      389.818       80.262        0.042      347.933       27.259      859.760
09/05/2013  15:54:00     -162.625     -137.174       16.452      143.908       90.675       62.978    20709.603     8221.883     3966.282        3.921        1.645      212.752       66.665        0.098      348.185       27.692      859.789
09/05/2013  15:55:00     -281.984     -354.550      -10.522      180.341      282.099       82.723    32522.756    79580.081     6843.132       16.211        5.947      453.013       95.001        0.044      348.178       27.681      859.811
09/05/2013  15:56:00     -319.498     -233.630        4.024      274.201      166.778       79.575    75186.378    27814.742     6332.183       13.298        5.467      395.805       81.694        0.043      348.127       27.593      859.869
09/05/2013  15:57:00     -151.334     -213.859      -10.580      218.462      167.993       81.583    47725.759    28221.705     6655.823        7.566        4.130      261.988       78.822        0.091      348.040       27.445      859.872
09/05/2013  15:58:00     -120.816     -223.930       -1.532      203.835      191.290       87.203    41548.614    36591.923     7604.302        7.523        4.287      254.443       93.859        0.136      348.043       27.447      859.870
09/05/2013  15:59:00     -375.969     -362.885       12.843      275.782      241.262       99.706    76055.643    58207.462     9941.299       20.867        7.210      522.531      125.115        0.057      348.011       27.393      859.831
09/05/2013  16:00:00     -454.728     -469.579      -44.169      210.274      246.478      106.736    44215.324    60751.467    11392.560       27.277        5.818      653.668       97.549        0.022      347.934       27.260      859.801
09/05/2013  16:01:00     -257.815     -294.316       -4.842      194.187      175.777       86.179    37708.643    30897.592     7426.835       11.456        3.802      391.268       81.668        0.044      348.022       27.412      859.784
09/05/2013  16:02:00     -361.741     -258.772      -13.194      206.483      132.158       91.029    42635.122    17465.869     8286.249       13.318        3.419      444.769       85.315        0.037      348.073       27.499      859.747
09/05/2013  16:03:00     -400.716     -194.120       -0.110      226.423      205.232      100.675    51267.478    42120.341    10135.551       15.087        5.176      445.260      109.258        0.060      348.057       27.472      859.730
09/05/2013  16:04:00     -287.763     -292.322        4.586      248.747      159.348       92.513    61875.290    25391.848     8558.614       13.203        4.791      410.195      110.106        0.072      348.077       27.507      859.778
09/05/2013  16:05:00     -167.177     -398.868        4.860      153.165      204.946       90.580    23459.544    42003.025     8204.817       13.035        3.683      432.486       78.986        0.033      348.079       27.510      859.831
09/05/2013  16:06:00     -120.787     -235.514       11.965      150.973      159.798       76.090    22792.923    25535.425     5789.686        6.215        2.706      264.682       68.599        0.067      348.243       27.794      859.808
09/05/2013  16:07:00      -25.249      -71.506       46.846      137.863      116.789       58.377    19006.291    13639.705     3407.820        2.199        1.803       75.833       65.307        0.742      348.360       27.999      859.802
09/05/2013  16:08:00      -41.410     -128.531       22.782      125.286      150.756       70.564    15696.693    22727.365     4979.237        3.107        2.170      135.037       74.282        0.303      348.381       28.034      859.832
09/05/2013  16:09:00      -26.505     -286.514        5.567      193.481      216.387      101.295    37434.832    46823.200    10260.703        8.865        4.726      287.737       70.422        0.060      348.187       27.698      859.846
09/05/2013  16:10:00     -178.613     -212.190       -6.656      230.534      114.603       69.738    53145.905    13133.915     4863.440        7.404        3.557      277.357       49.051        0.031      348.171       27.668      859.830
09/05/2013  16:11:00     -131.247     -173.486      -12.523      191.052      206.270       92.058    36500.774    42547.147     8474.765        6.748        4.376      217.538       94.399        0.188      348.151       27.635      859.800
09/05/2013  16:12:00     -169.846      -90.810       16.866      138.765      109.672       69.400    19255.785    12027.990     4816.341        3.673        1.805      192.598       71.693        0.139      348.265       27.831      859.797
09/05/2013  16:13:00     -169.905      -76.121       15.863      118.578       96.580       58.154    14060.639     9327.771     3381.904        3.084        1.339      186.177       56.851        0.093      348.280       27.858      859.803
09/05/2013  16:14:00     -237.108     -178.379        9.552      163.060      118.833       77.959    26588.616    14121.288     6077.529        6.745        2.339      296.714       63.065        0.045      348.158       27.646      859.824
09/05/2013  16:15:00     -245.887     -219.246        7.134      252.169      187.728      112.293    63589.415    35241.786    12609.801       10.999        5.572      329.437       71.536        0.047      347.981       27.341      859.782
09/05/2013  16:16:00     -207.647     -361.197      -16.687      196.603      201.538      115.815    38652.607    40617.468    13413.151       13.325        4.634      416.629      111.951        0.072      347.996       27.367      859.808
09/05/2013  16:17:00     -208.212     -215.453      -25.700      218.304      164.022       84.171    47656.493    26903.180     7084.748        8.602        4.082      299.620       44.627        0.022      348.075       27.504      859.806
09/05/2013  16:18:00     -190.376      -80.370       -4.002      152.673       77.552       59.227    23309.034     6014.264     3507.863        3.777        1.642      206.645       54.016        0.068      348.148       27.629      859.794
09/05/2013  16:19:00     -155.327      -91.306       20.447       95.916       89.362       62.194     9199.893     7985.611     3868.155        2.696        1.053      180.176       67.035        0.138      348.180       27.687      859.768
09/05/2013  16:20:00     -140.501     -154.551      -26.195       84.192      103.414       53.394     7088.244    10694.449     2850.963        3.247        1.032      208.870       30.228        0.021      348.153       27.640      859.754
09/05/2013  16:21:00     -187.170     -231.713       11.498      189.024      154.003       89.863    35730.087    23717.006     8075.269        7.818        3.376      297.865       90.063        0.091      348.158       27.647      859.798
09/05/2013  16:22:00     -240.421     -260.378        9.518      204.504      190.371       97.694    41821.862    36240.940     9544.154       10.663        4.380      354.400      106.421        0.090      348.124       27.587      859.790
09/05/2013  16:23:00     -102.361     -119.777       15.448      179.976      144.689       68.487    32391.182    20934.880     4690.464        4.153        2.901      157.558       73.186        0.216      348.265       27.833      859.807
09/05/2013  16:24:00     -231.655     -205.722       14.456      198.127      153.541       92.777    39254.506    23574.698     8607.530        8.380        3.572      309.816       99.628        0.103      348.064       27.484      859.794
09/05/2013  16:25:00     -304.266     -276.399      -11.903      210.107      177.018       83.100    44144.866    31335.224     6905.612       12.573        4.119      411.065       78.393        0.036      348.034       27.431      859.751
09/05/2013  16:26:00     -193.594     -156.724       -6.762      150.587      114.330       59.504    22676.477    13071.375     3540.737        5.068        1.964      249.080       57.661        0.054      348.111       27.565      859.774
09/05/2013  16:27:00     -281.203     -271.751      -10.789      173.843      147.316       81.175    30221.311    21701.928     6589.392       10.576        2.926      391.055       70.545        0.033      348.069       27.492      859.755
09/05/2013  16:28:00      -88.229     -238.485      -10.242      127.830      141.694       82.827    16340.453    20077.129     6860.347        5.401        2.164      254.282       58.444        0.053      348.093       27.536      859.757
09/05/2013  16:29:00     -110.255     -113.182      -13.792      102.160       95.182       57.294    10436.581     9059.620     3282.652        2.396        1.139      158.007       48.912        0.096      348.131       27.602      859.779
09/05/2013  16:30:00     -131.480     -135.061       -4.292      147.253      144.491       65.290    21683.404    20877.583     4262.751        4.118        2.341      188.491       43.339        0.053      348.231       27.771      859.797
09/05/2013  16:31:00      -58.746     -156.000       10.591      148.319      125.060       66.152    21998.649    15639.973     4376.118        3.495        2.101      166.695       66.567        0.159      348.025       27.416      859.773
09/05/2013  16:32:00     -236.738     -223.488       -1.377      164.100      159.942       89.355    26928.801    25581.572     7984.320        8.323        3.025      325.564       95.102        0.085      348.067       27.490      859.703
09/05/2013  16:33:00     -304.639     -368.552      -17.824      177.392      190.505       86.383    31467.987    36292.288     7462.075       15.207        3.761      478.159       64.632        0.018      348.001       27.374      859.789
09/05/2013  16:34:00     -229.542     -195.023       25.324      206.319      173.840       95.926    42567.573    30220.345     9201.811        8.666        4.099      301.203       97.544        0.105      347.933       27.258      859.790
09/05/2013  16:35:00     -245.163     -197.611      -19.326      226.011      137.968       69.256    51080.835    19035.044     4796.441        8.721        3.746      314.889       83.387        0.070      347.877       27.161      859.791
09/05/2013  16:36:00     -164.323     -284.760      -14.305      160.906      133.439       68.045    25890.899    17805.987     4630.065        7.830        2.416      328.771       79.294        0.058      348.049       27.458      859.801
09/05/2013  16:37:00     -164.635     -211.670        7.970      218.667      148.096       79.924    47815.173    21932.454     6387.799        7.404        3.807      268.158       97.020        0.131      348.143       27.620      859.793
09/05/2013  16:38:00     -302.319     -304.025        6.168      180.097      279.131       94.209    32434.888    77914.361     8875.311       15.152        5.961      428.751      110.290        0.066      347.947       27.283      859.769
09/05/2013  16:39:00     -261.179     -169.469       11.940      228.311      134.023       85.313    52125.951    17962.221     7278.260        8.721        3.868      311.342       94.708        0.093      348.064       27.484      859.757
09/05/2013  16:40:00     -318.283     -181.529        4.714      203.495      167.825       98.928    41410.251    28165.199     9786.685       10.680        3.968      366.411      111.219        0.092      348.026       27.419      859.749
09/05/2013  16:41:00     -242.703     -209.916       -8.013      164.481      148.690       80.789    27054.012    22108.704     6526.821        7.935        2.784      320.889       85.502        0.071      348.002       27.379      859.784
09/05/2013  16:42:00     -247.498     -249.663       -3.735      172.658      160.237       86.146    29810.782    25675.969     7421.088        9.324        3.145      351.549       80.477        0.052      348.110       27.563      859.805
09/05/2013  16:43:00     -322.619     -437.489      -14.993      234.100      201.416      110.288    54802.853    40568.517    12163.520       20.160        5.377      543.580      116.406        0.046      347.787       27.006      859.811
09/05/2013  16:44:00     -241.395     -370.763       -1.057      179.166      214.078       87.165    32100.611    45829.482     7597.731       14.062        4.276      442.421       91.317        0.043      347.808       27.041      859.836
09/05/2013  16:45:00     -259.872     -436.903      -12.733      180.839      215.509      100.424    32702.875    46444.098    10085.050       17.389        4.462      508.348       78.788        0.024      347.799       27.026      859.861
09/05/2013  16:46:00     -158.164     -265.299       -5.647      167.650      168.833       77.676    28106.623    28504.659     6033.607        7.903        3.132      308.868       78.474        0.065      347.875       27.157      859.840
09/05/2013  16:47:00      -87.333     -160.390        9.855      154.429       92.130       63.037    23848.269     8487.879     3973.676        3.487        1.815      182.625       44.057        0.058      348.053       27.465      859.808
09/05/2013  16:48:00     -102.953     -368.420        8.508      146.019      183.647       70.701    21321.672    33726.215     4998.591       10.321        3.002      382.534       62.543        0.027      347.952       27.289      859.838
09/05/2013  16:49:00     -215.911     -215.430       10.336      196.889      138.624       75.794    38765.381    19216.540     5744.695        7.842        3.186      305.005       82.956        0.074      347.942       27.272      859.842
09/05/2013  16:50:00     -326.987     -181.468       -4.716      144.075      127.619       69.796    20757.705    16286.721     4871.479        9.089        2.096      373.967       59.255        0.025      347.754       26.948      859.819
09/05/2013  16:51:00     -373.028     -199.945      -36.134      176.738      193.494       79.512    31236.271    37439.940     6322.169       12.770        3.750      423.235       88.024        0.043      347.812       27.048      859.761
09/05/2013  16:52:00     -224.151     -282.447        4.190      220.408      186.534       91.972    48579.586    34795.046     8458.938       11.092        4.592      360.583      100.266        0.077      347.986       27.349      859.815
09/05/2013  16:53:00      -57.506     -214.853       -0.932      216.817      122.961       86.559    47009.694    15119.386     7492.487        5.953        3.481      222.416       72.467        0.106      348.014       27.398      859.840
09/05/2013  16:54:00       18.745     -409.267        2.995      161.178      174.709      108.228    25978.208    30523.260    11713.311       11.802        3.411      409.696       61.741        0.023      347.713       26.877      859.810
09/05/2013  16:55:00      -53.422     -240.704       -1.781      203.491      127.283       99.413    41408.593    16200.876     9882.898        6.413        3.375      246.561       72.139        0.086      347.846       27.107      859.802
09/05/2013  16:56:00       68.525     -222.898      -13.328      169.821      220.103      102.998    28839.088    48445.200    10608.513        7.121        4.395      233.194      116.839        0.251      347.819       27.063      859.782
09/05/2013  16:57:00      -86.491     -159.542      -20.157      121.743       92.469       46.477    14821.453     8550.535     2160.156        2.943        1.277      181.478       38.433        0.045      347.809       27.044      859.788
09/05/2013  16:58:00     -240.723     -189.569        1.408      156.032      142.664       67.122    24345.973    20352.972     4505.396        7.154        2.460      306.405       61.401        0.040      347.893       27.190      859.825
09/05/2013  16:59:00     -184.653     -150.765       13.302      184.736      136.364       72.516    34127.367    18595.099     5258.533        5.748        2.899      238.383       65.266        0.075      347.789       27.009      859.829
09/05/2013  17:00:00      -28.302     -145.235      -25.101      102.110      102.418       70.253    10426.541    10489.549     4935.550        2.418        1.293      147.967       38.484        0.068      347.834       27.089      859.762
09/05/2013  17:01:00     -415.670      -70.321      -11.118      186.390      171.350       75.239    34741.329    29360.666     5660.858       12.379        3.488      421.576       84.891        0.041      347.844       27.104      859.756
09/05/2013  17:02:00     -243.558     -210.197        9.747      219.644      159.378       93.025    48243.588    25401.213     8653.573        9.293        4.115      321.719       98.738        0.094      347.628       26.731      859.713
09/05/2013  17:03:00     -493.110     -165.910      -15.165      168.727      149.056       66.483    28468.888    22217.578     4419.971       16.300        2.755      520.273       66.009        0.016      347.615       26.708      859.686
09/05/2013  17:04:00     -450.297     -211.281       -6.658      221.108      172.684      106.465    48888.877    29819.593    11334.763       16.873        4.502      497.401      108.633        0.048      347.588       26.662      859.701
09/05/2013  17:05:00     -254.873      -79.558       16.354      234.378      157.696       91.518    54932.885    24868.088     8375.531        7.985        4.409      267.002      106.910        0.160      347.723       26.896      859.698
09/05/2013  17:06:00     -577.840     -297.038      -21.799      356.156      220.702      128.035   126846.978    48709.428    16392.846       30.724        9.597      649.716      159.185        0.060      347.552       26.601      859.671
09/05/2013  17:07:00     -424.119     -171.365      -28.518      252.597      230.937      107.204    63805.060    53331.734    11492.631       16.932        6.431      457.431      123.573        0.073      347.671       26.805      859.693
09/05/2013  17:08:00     -386.960     -288.444      -12.899      220.935      164.478      103.886    48812.464    27053.024    10792.238       15.986        4.333      482.637      118.503        0.060      347.657       26.782      859.718
09/05/2013  17:09:00     -145.896      -66.252        7.489      124.063      113.680       69.505    15391.532    12923.089     4830.885        2.943        1.657      160.234       59.574        0.138      347.909       27.217      859.720
09/05/2013  17:10:00     -364.722     -101.131      -22.821      176.758      151.616       80.641    31243.274    22987.357     6502.961       10.224        3.037      378.483       77.762        0.042      347.827       27.073      859.725
09/05/2013  17:11:00     -447.652     -155.558      -10.853      210.339      199.732      103.557    44242.330    39892.874    10723.967       15.976        4.743      473.910      104.362        0.048      347.763       26.964      859.731
09/05/2013  17:12:00     -349.759     -113.618      -15.418      133.797      107.814       61.723    17901.683    11623.952     3809.759        8.440        1.667      367.751       60.107        0.027      347.639       26.751      859.745
09/05/2013  17:13:00     -343.630     -201.370       -8.123      187.900      135.568       82.297    35306.492    18378.560     6772.869       10.957        3.023      398.286       99.045        0.062      347.719       26.888      859.750
09/05/2013  17:14:00     -151.495     -158.998       20.428      169.259      150.846       77.747    28648.476    22754.427     6044.666        5.304        2.872      219.616       84.605        0.148      347.848       27.111      859.786
09/05/2013  17:15:00     -444.587     -235.250       -9.614      209.602      164.741      101.815    43932.914    27139.556    10366.384       16.725        4.072      502.991      109.767        0.048      347.548       26.592      859.780
09/05/2013  17:16:00     -571.839     -233.426      -26.738      305.580      229.923      106.650    93379.351    52864.374    11374.191       26.988        7.881      617.647      121.296        0.039      347.519       26.542      859.777
09/05/2013  17:17:00     -419.956     -205.678       16.016      252.165      136.146      101.233    63587.415    18535.827    10248.207       15.563        4.619      467.618      120.696        0.067      347.528       26.558      859.797
09/05/2013  17:18:00     -313.731     -218.266       16.452      189.167      196.848       90.287    35784.314    38749.113     8151.774       11.449        4.134      382.187       97.250        0.065      347.577       26.644      859.780
09/05/2013  17:19:00     -284.110     -111.315        0.419      170.653      153.036       82.235    29122.508    23419.993     6762.521        7.620        2.965      305.139       90.503        0.088      347.615       26.708      859.801
09/05/2013  17:20:00     -531.863     -101.594      -32.546      193.951      173.147      101.245    37616.840    29979.921    10250.489       18.604        3.892      541.479       88.640        0.027      347.481       26.477      859.681
09/05/2013  17:21:00     -393.203     -182.894      -22.518      262.550      201.083      106.215    68932.565    40434.366    11281.529       15.458        6.032      433.658      131.406        0.092      347.586       26.660      859.667
09/05/2013  17:22:00     -473.922     -114.765      -19.796      202.257      181.572       88.802    40908.083    32968.546     7885.806       15.995        4.088      487.620       91.180        0.035      347.544       26.586      859.739
09/05/2013  17:23:00     -412.068     -195.315      -34.787      203.432      159.227       93.294    41384.598    25353.304     8703.743       14.228        3.772      456.013      107.606        0.056      347.495       26.503      859.732
09/05/2013  17:24:00     -371.715     -192.463       -5.792      259.858      204.902      110.577    67526.287    41984.732    12227.185       14.847        6.087      418.586      135.321        0.105      347.546       26.590      859.707
09/05/2013  17:25:00     -595.566     -183.946      -17.450      311.495      174.770       96.654    97029.245    30544.631     9341.928       26.285        6.846      623.326      110.605        0.031      347.498       26.507      859.668
09/05/2013  17:26:00     -498.353     -152.026       -0.897      278.689      207.047      100.638    77667.561    42868.434    10128.034       20.104        6.533      521.025      117.059        0.050      347.464       26.448      859.689
09/05/2013  17:27:00     -507.094     -128.089       -8.641      208.012      172.134       94.012    43268.922    29629.955     8838.336       17.766        4.087      523.021      103.290        0.039      347.401       26.340      859.717
09/05/2013  17:28:00     -396.370     -197.572      -20.863      255.925      171.944       94.039    65497.632    29564.637     8843.262       15.022        5.195      442.881      114.469        0.067      347.510       26.528      859.691
09/05/2013  17:29:00     -295.546      -50.697       16.570      207.414      134.966       79.810    43020.733    18215.809     6369.636        7.889        3.380      299.862       90.898        0.092      347.615       26.710      859.749
09/05/2013  17:30:00     -306.062      -84.662       -4.343      219.579      142.664       74.889    48214.823    20352.990     5608.366        8.750        3.709      317.556       92.102        0.084      347.569       26.632      859.776
09/05/2013  17:31:00     -479.198      -36.205      -16.612      223.156      207.351       79.829    49798.748    42994.429     6372.595       16.517        4.958      480.564       66.110        0.019      347.465       26.451      859.768
09/05/2013  17:32:00     -413.885     -189.961      -17.449      286.878      228.353      111.563    82298.936    52145.173    12446.274       17.726        7.345      455.396      134.364        0.087      347.341       26.238      859.774
09/05/2013  17:33:00     -366.980     -245.402       -7.017      255.793      245.277       94.033    65430.124    60160.609     8842.248       16.466        6.722      441.471      116.705        0.070      347.357       26.264      859.750
09/05/2013  17:34:00     -217.423     -191.283       17.908      163.689      136.655       83.929    26794.023    18674.503     7044.017        6.834        2.626      289.590       75.220        0.067      347.513       26.533      859.810
09/05/2013  17:35:00     -531.782     -115.481      -17.739      226.667      149.689      100.433    51378.073    22406.862    10086.823       19.014        4.194      544.177      115.740        0.045      347.456       26.434      859.808
09/05/2013  17:36:00     -536.553     -132.813      -26.910      227.308      160.230      104.619    51669.083    25673.534    10945.199       19.725        4.414      552.746      110.926        0.040      347.435       26.398      859.775
09/05/2013  17:37:00     -455.436     -104.383      -21.172      195.053      128.010       76.816    38045.614    16386.592     5900.662       13.954        3.017      467.245       94.411        0.041      347.296       26.159      859.806
09/05/2013  17:38:00     -327.210     -131.268       -0.476      225.660      146.460       75.745    50922.277    21450.614     5737.280       10.119        3.906      352.559       93.056        0.070      347.336       26.228      859.757
09/05/2013  17:39:00     -528.109     -114.376       -9.748      247.033      197.617      106.988    61025.465    39052.286    11446.394       20.178        5.576      540.353      129.170        0.057      347.267       26.108      859.817
09/05/2013  17:40:00     -401.307     -114.556       12.075      236.486      188.241      102.913    55925.788    35434.614    10591.046       13.811        5.098      417.338      117.720        0.080      347.373       26.293      859.841
09/05/2013  17:41:00     -161.794     -178.632       -0.065      175.157      167.174       80.974    30679.854    27947.188     6556.824        6.162        3.259      241.012       84.503        0.123      347.267       26.110      859.839
09/05/2013  17:42:00     -322.107     -192.237      -10.611      191.602      133.623       90.424    36711.367    17855.130     8176.532       10.177        3.137      375.111      103.928        0.077      347.319       26.198      859.814
09/05/2013  17:43:00     -400.631     -280.144       -4.349      169.960      195.989       93.228    28886.442    38411.597     8691.494       15.748        3.799      488.862       88.982        0.033      347.276       26.124      859.814
09/05/2013  17:44:00     -273.021     -153.779        1.945      145.957      122.476       67.308    21303.400    15000.373     4530.351        6.950        2.042      313.350       73.873        0.056      347.322       26.203      859.793
09/05/2013  17:45:00     -353.667     -166.951      -13.709      232.616      131.287       92.847    54110.418    17236.166     8620.482       11.654        3.998      391.092      104.519        0.071      347.313       26.188      859.765
09/05/2013  17:46:00     -269.698     -214.247       -3.406      176.086      148.298       70.931    31006.147    21992.410     5031.275        8.833        2.901      344.439       76.187        0.049      347.379       26.303      859.796
09/05/2013  17:47:00     -268.525     -204.415        7.120      213.439      217.131      111.900    45556.262    47145.961    12521.547       10.956        5.261      337.478      127.820        0.143      347.295       26.156      859.785
09/05/2013  17:48:00     -241.808     -129.610       -5.553      198.931      150.982       80.958    39573.473    22795.433     6554.182        7.210        3.446      274.353       95.933        0.122      347.335       26.226      859.802
09/05/2013  17:49:00     -215.715      -39.954       -2.215      146.050      136.567       76.839    21330.568    18650.554     5904.213        4.700        2.294      219.384       71.138        0.105      347.404       26.346      859.818
09/05/2013  17:50:00     -296.221      -84.631      -21.025      129.966      143.964       75.318    16891.255    20725.706     5672.839        6.931        2.164      308.074       53.011        0.030      347.377       26.298      859.830
09/05/2013  17:51:00     -229.127     -106.873       10.859      229.021      193.786       93.568    52450.737    37553.182     8754.935        8.138        4.938      252.826      104.924        0.172      347.363       26.275      859.787
09/05/2013  17:52:00     -254.458     -136.598       -1.462      194.124      165.394       91.749    37684.180    27355.111     8417.931        7.842        3.673      288.804       97.947        0.115      347.340       26.235      859.790
09/05/2013  17:53:00     -527.098     -191.155      -10.205      341.203      258.039      126.316   116419.496    66584.298    15955.652       25.668        9.948      560.689      155.202        0.077      347.107       25.833      859.753
09/05/2013  17:54:00     -501.066     -158.646      -32.948      162.120      172.812       81.911    26282.914    29864.061     6709.416       17.008        3.143      525.581       79.014        0.023      347.122       25.859      859.797
09/05/2013  17:55:00     -311.388     -221.899       -6.769      221.157      182.195       96.794    48910.401    33195.116     9369.172       11.884        4.574      382.363      110.165        0.083      347.137       25.885      859.780
09/05/2013  17:56:00     -330.389     -188.154       -0.639      224.382      140.987       84.345    50347.272    19877.376     7114.142       11.093        3.867      380.209       96.655        0.065      347.188       25.973      859.780
09/05/2013  17:57:00     -523.192     -121.793      -31.671      201.430      182.911       97.091    40574.063    33456.582     9426.566       18.650        4.173      537.181      103.661        0.037      347.090       25.805      859.774
09/05/2013  17:58:00     -462.242      -62.687       -7.473      261.637      155.010       90.469    68453.786    24028.076     8184.581       15.914        5.033      466.473      105.760        0.051      347.130       25.872      859.751
09/05/2013  17:59:00     -407.741     -121.424      -32.813      266.694      204.793       92.839    71125.877    41940.297     8619.066       15.185        6.084      425.437       98.891        0.054      347.123       25.861      859.747
09/05/2013  18:00:00     -269.530     -106.025      -12.998      183.805      139.562       79.749    33784.379    19477.438     6359.845        7.183        2.981      289.633       93.341        0.104      347.192       25.981      859.765
09/05/2013  18:01:00     -276.258     -138.363      -11.342      180.294      168.274       87.506    32505.804    28316.122     7657.223        8.202        3.424      308.971       94.410        0.093      347.170       25.941      859.785
09/05/2013  18:02:00     -324.634     -116.538      -14.527      203.718      148.935       83.362    41501.074    22181.534     6949.263        9.489        3.532      344.918      100.611        0.085      347.142       25.892      859.828
09/05/2013  18:03:00     -323.595     -104.179      -12.979      145.765      138.294       71.866    21247.507    19125.108     5164.719        8.063        2.277      339.951       72.170        0.045      347.142       25.893      859.861
09/05/2013  18:04:00     -243.141      -67.864        2.614      173.473      127.701       60.776    30092.810    16307.489     3693.777        5.690        2.505      252.434       79.504        0.099      347.161       25.927      859.858
09/05/2013  18:05:00     -366.499     -107.453       -9.767      221.186      163.596       83.694    48923.163    26763.638     7004.640       11.431        4.135      381.926      103.543        0.073      347.184       25.967      859.819
09/05/2013  18:06:00     -400.197     -222.180      -12.609      181.936      138.629       83.788    33100.885    19218.122     7020.459       13.450        2.967      457.736       95.884        0.044      347.173       25.947      859.828
09/05/2013  18:07:00     -238.129     -127.940       -0.153      188.412      107.345       76.825    35499.097    11522.922     5902.151        6.299        2.646      270.322       93.559        0.120      347.273       26.122      859.815
09/05/2013  18:08:00     -336.521     -226.048       -9.143      222.710      186.524      101.707    49599.788    34791.260    10344.280       12.956        4.737      405.394      106.561        0.069      347.044       25.726      859.763
09/05/2013  18:09:00     -331.571     -125.843       -8.434      215.144      175.315       86.518    46286.877    30735.194     7485.410       10.516        4.225      354.648       96.257        0.074      347.092       25.807      859.757
09/05/2013  18:10:00     -326.062     -259.714       -4.431      198.422      172.693      100.328    39371.347    29822.912    10065.797       12.651        3.963      416.855      111.712        0.072      347.071       25.771      859.774
09/05/2013  18:11:00     -237.113     -204.040        4.833      169.010      158.819      101.037    28564.413    25223.618    10208.385        8.092        3.200      312.818      110.206        0.124      347.129       25.872      859.807
09/05/2013  18:12:00     -280.528     -115.964       -7.553      155.331      113.067       75.354    24127.607    12784.188     5678.227        6.739        2.130      303.551       90.257        0.088      347.171       25.942      859.840
09/05/2013  18:13:00     -234.334     -217.916       -7.559      151.038      147.745       66.449    22812.598    21828.506     4415.437        7.575        2.453      320.000       67.989        0.045      347.195       25.986      859.857
09/05/2013  18:14:00     -372.469     -271.309       -4.336      226.030      213.987      103.155    51089.477    45790.614    10640.952       15.992        5.376      460.806      120.369        0.068      347.049       25.733      859.844
09/05/2013  18:15:00     -341.477     -277.987      -14.950      155.398      143.187       87.248    24148.581    20502.434     7612.198       12.317        2.613      440.322       91.130        0.043      347.030       25.701      859.837
09/05/2013  18:16:00     -278.111     -139.261        1.060      168.697      123.425       73.459    28458.617    15233.805     5396.187        7.290        2.454      311.030       78.216        0.063      347.023       25.689      859.838
09/05/2013  18:17:00     -312.258     -166.225      -15.102      169.223      123.494       59.480    28636.319    15250.764     3537.846        8.639        2.371      353.745       61.186        0.030      347.070       25.769      859.845
09/05/2013  18:18:00     -478.801      -73.715      -32.166      235.093      150.372       88.986    55268.632    22611.865     7918.522       16.074        4.290      484.442      102.579        0.045      346.963       25.584      859.840
09/05/2013  18:19:00     -266.808      -99.732       -6.469      163.028      128.201       71.497    26577.969    16435.546     5111.844        6.464        2.406      284.839       82.747        0.084      347.011       25.668      859.837
09/05/2013  18:20:00     -366.076     -254.577      -16.479      204.757      157.204       93.523    41925.609    24713.016     8746.643       13.722        3.769      445.894      100.072        0.050      346.945       25.555      859.836
09/05/2013  18:21:00     -322.307     -202.975       -2.177      173.218      167.451       91.302    30004.396    28039.930     8335.996       10.572        3.319      380.894       91.703        0.058      346.913       25.500      859.823
09/05/2013  18:22:00     -356.239     -271.991      -14.516      200.073      164.202       91.388    40029.025    26962.222     8351.800       13.820        3.767      448.202      108.105        0.058      346.925       25.519      859.859
09/05/2013  18:23:00     -318.386     -225.802        1.236      204.722      152.493       81.867    41911.069    23254.252     6702.165       11.210        3.593      390.328       87.390        0.050      346.902       25.480      859.876
09/05/2013  18:24:00     -246.781     -195.911       24.134      193.300      160.118       79.333    37365.038    25637.707     6293.775        8.457        3.465      315.090       95.716        0.092      346.909       25.492      859.908
09/05/2013  18:25:00     -377.988      -72.710      -22.306      205.469      112.988       75.260    42217.472    12766.233     5664.052       10.464        3.032      384.918       94.786        0.061      346.879       25.442      859.903
09/05/2013  18:26:00     -175.140      -33.203       10.652      141.029      106.612       69.261    19889.286    11366.114     4797.120        3.396        1.803      178.259       69.296        0.151      346.990       25.632      859.905
09/05/2013  18:27:00     -309.213     -169.760      -13.372      206.563      153.834       74.980    42668.380    23664.838     5622.004        9.827        3.598      352.748       83.875        0.057      346.893       25.465      859.927
09/05/2013  18:28:00     -246.181     -210.288      -15.693      150.205      117.959       79.992    22561.433    13914.265     6398.655        7.396        2.144      323.769       83.554        0.067      346.859       25.406      859.940
09/05/2013  18:29:00     -382.859     -182.644       -8.268      166.340      126.903       80.609    27669.001    16104.340     6497.833       11.513        2.514      424.194       78.473        0.034      346.816       25.332      859.915
09/05/2013  18:30:00     -500.213     -216.329      -21.052      259.769      203.140       93.052    67479.813    41265.753     8658.728       20.741        5.870      544.987      114.788        0.044      346.818       25.337      859.892
09/05/2013  18:31:00     -211.077     -156.378        4.267      179.257      120.182       53.878    32132.988    14443.805     2902.833        5.924        2.474      262.693       66.089        0.063      346.856       25.401      859.932
09/05/2013  18:32:00     -387.844     -213.833      -20.546      154.604      131.700       77.793    23902.377    17344.861     6051.682       12.192        2.365      442.885       77.190        0.030      346.822       25.343      859.925
09/05/2013  18:33:00     -360.649     -187.580      -12.888      173.043      130.003       73.746    29943.724    16900.675     5438.496       10.884        2.614      406.514       76.747        0.036      346.823       25.345      859.933
09/05/2013  18:34:00     -296.486     -220.047       12.952      191.893      139.128       80.494    36822.739    19356.612     6479.329        9.956        3.133      369.222      103.039        0.078      346.794       25.295      859.937
09/05/2013  18:35:00     -156.524      -76.635       15.287      144.930      122.389       78.356    21004.763    14979.090     6139.689        3.636        2.106      174.277       84.422        0.235      346.828       25.353      859.919
09/05/2013  18:36:00     -349.308     -115.965      -22.000      151.724      144.760       85.417    23020.261    20955.354     7296.052        9.360        2.564      368.054       86.141        0.055      346.755       25.225      859.933
09/05/2013  18:37:00     -310.191     -213.282       -4.384      201.990      162.121       78.007    40799.959    26283.178     6085.132       10.743        3.658      376.441       81.712        0.047      346.787       25.283      859.921
09/05/2013  18:38:00     -268.690     -150.987      -10.055      141.178      140.474       68.172    19931.321    19733.044     4647.485        6.969        2.216      308.206       75.628        0.060      346.817       25.333      859.962
09/05/2013  18:39:00     -198.461     -177.396       -8.505      196.206      110.404       83.110    38496.854    12189.145     6907.214        6.425        2.880      266.188      102.536        0.148      346.777       25.264      859.997
09/05/2013  18:40:00     -337.360     -257.898       -6.005      177.190      161.401       94.425    31396.146    26050.432     8916.092       12.335        3.318      424.645       99.584        0.055      346.632       25.016      859.978
09/05/2013  18:41:00     -314.515     -254.486       -8.641      236.088      161.650       94.374    55737.628    26130.752     8906.437       12.725        4.539      404.577      103.760        0.066      346.606       24.972      859.973
09/05/2013  18:42:00     -300.941     -108.220      -15.021      149.916      134.602       62.181    22474.824    18117.723     3866.452        7.347        2.223      319.808       59.150        0.034      346.649       25.045      859.991
09/05/2013  18:43:00     -209.548     -106.029       -8.631      146.942      128.769       52.852    21591.926    16581.498     2793.351        4.809        2.048      234.845       58.039        0.061      346.683       25.103      860.003
09/05/2013  18:44:00     -288.509     -227.494      -14.857      124.690      104.027       72.326    15547.553    10821.626     5231.076        8.340        1.580      367.411       67.307        0.034      346.653       25.052      860.000
09/05/2013  18:45:00     -260.780     -124.257      -15.914      167.680      138.360       64.297    28116.598    19143.564     4134.091        6.754        2.570      288.870       78.523        0.074      346.716       25.159      860.029
09/05/2013  18:46:00     -309.733     -254.967       -0.147      158.046      124.928       79.588    24978.561    15606.932     6334.325       10.392        2.346      401.176       82.804        0.043      346.699       25.129      860.029
09/05/2013  18:47:00     -186.328     -155.746        3.997      172.877      148.830       89.095    29886.355    22150.226     7937.983        5.947        2.999      242.848       93.033        0.147      346.630       25.013      860.051
09/05/2013  18:48:00     -289.100     -115.633       -4.692      125.602      103.030       66.128    15775.804    10615.157     4372.861        6.386        1.538      311.368       51.032        0.027      346.620       24.996      860.070
09/05/2013  18:49:00     -225.906     -131.866       -3.966      136.427      106.894       63.841    18612.453    11426.264     4075.713        5.127        1.706      261.577       71.302        0.074      346.576       24.921      860.066
09/05/2013  18:50:00     -382.508      -11.104       -6.121      178.902      170.773       80.349    32005.790    29163.499     6456.037       10.704        3.381      382.669       85.431        0.050      346.535       24.848      860.103
09/05/2013  18:51:00     -225.044     -236.846        2.705      179.078      167.691       89.027    32068.982    28120.295     7925.777        8.742        3.406      326.712       94.376        0.083      346.540       24.857      860.121
09/05/2013  18:52:00     -131.860     -121.701       13.156      145.563      134.154       78.223    21188.657    17997.423     6118.913        3.883        2.265      179.438       80.267        0.200      346.528       24.838      860.144
09/05/2013  18:53:00     -256.925     -139.091      -11.294      150.754      114.055       64.116    22726.908    13008.435     4110.808        6.266        1.992      292.158       50.142        0.029      346.575       24.918      860.184
09/05/2013  18:54:00     -251.560     -152.271       -4.310      115.944       69.519       44.477    13443.049     4832.893     1978.229        5.337        1.013      294.056       55.386        0.035      346.558       24.890      860.208
09/05/2013  18:55:00     -242.898      -90.065       -6.389      202.609      119.728       62.603    41050.273    14334.891     3919.184        6.322        2.965      259.058       79.493        0.094      346.513       24.813      860.198
09/05/2013  18:56:00     -269.349      -62.006        7.038      191.238       77.973       62.279    36572.126     6079.857     3878.671        6.148        2.327      276.394       67.022        0.059      346.536       24.852      860.229
09/05/2013  18:57:00      -79.336     -150.300        4.935       91.962       88.798       43.562     8456.922     7884.997     1897.630        2.357        0.912      169.954       47.080        0.077      346.535       24.850      860.257
09/05/2013  18:58:00     -125.040      -89.758      -10.491      168.347       93.738       51.430    28340.683     8786.800     2645.065        3.178        1.989      153.921       54.355        0.125      346.538       24.855      860.221
09/05/2013  18:59:00     -446.765     -184.033       -2.654      209.856      179.618       82.149    44039.695    32262.473     6748.442       15.825        4.153      483.184       85.127        0.031      346.491       24.773      860.289
09/05/2013  19:00:00     -383.917     -172.981      -10.674      216.630      177.801       95.661    46928.699    31613.089     9151.018       13.254        4.385      421.088      106.462        0.064      346.455       24.711      860.300
09/05/2013  19:01:00     -307.620     -190.521        7.288      153.514      126.508       77.889    23566.594    16004.167     6066.688        8.830        2.282      361.840       64.149        0.031      346.418       24.647      860.339
09/05/2013  19:02:00     -385.314     -249.619      -16.005      156.696      141.489       88.460    24553.501    20019.264     7825.158       13.170        2.620      459.104       85.714        0.035      346.356       24.542      860.359
09/05/2013  19:03:00     -259.155     -103.488       14.230      178.923      110.083       68.146    32013.318    12118.296     4643.867        6.341        2.439      279.054       75.610        0.073      346.339       24.513      860.379
09/05/2013  19:04:00     -234.754      -95.138       10.182      176.127      138.667       65.726    31020.876    19228.594     4319.962        5.941        2.728      253.300       82.599        0.106      346.330       24.497      860.383
09/05/2013  19:05:00     -327.263     -123.712      -23.535      158.457      148.467       67.567    25108.769    22042.423     4565.321        8.733        2.586      349.866       79.409        0.052      346.345       24.522      860.403
09/05/2013  19:06:00     -191.725     -125.454        3.051      112.014       99.815       51.399    12547.072     9962.992     2641.908        3.882        1.258      229.122       53.700        0.055      346.323       24.485      860.415
09/05/2013  19:07:00     -253.106     -140.628      -18.726      137.722       74.071       52.448    18967.437     5486.495     2750.753        5.569        1.360      289.550       52.707        0.033      346.354       24.539      860.431
09/05/2013  19:08:00     -115.568      -65.656       16.259      100.358       89.812       52.224    10071.808     8066.124     2727.357        1.939        1.043      132.916       55.450        0.174      346.303       24.453      860.414
09/05/2013  19:09:00     -200.009     -209.348      -14.962      107.660      102.180       56.533    11590.654    10440.784     3195.945        5.464        1.261      289.534       55.218        0.036      346.359       24.546      860.418
09/05/2013  19:10:00      -64.825      -22.966       35.796       89.137       63.132       39.988     7945.326     3985.658     1599.008        0.977        0.676       68.773       38.301        0.310      346.248       24.357      860.439
09/05/2013  19:11:00     -104.329      -52.427       -5.180       68.456       58.036       33.639     4686.283     3368.161     1131.554        1.142        0.459      116.761       35.507        0.092      346.288       24.427      860.449
09/05/2013  19:12:00     -108.188     -121.018        3.099      107.983       79.045       39.835    11660.275     6248.181     1586.820        2.292        0.975      162.327       30.167        0.035      346.327       24.493      860.481
09/05/2013  19:13:00     -260.634      -75.020       -4.596      125.673      102.054       52.853    15793.653    10414.995     2793.423        5.128        1.450      271.216       48.528        0.032      346.292       24.430      860.486
09/05/2013  19:14:00     -266.194      -61.546       -3.947       97.637       97.412       60.314     9533.059     9489.061     3637.781        4.866        1.133      273.217       56.453        0.043      346.244       24.347      860.506
09/05/2013  19:15:00     -258.916      -60.693       -5.347      122.615       72.217       51.401    15034.528     5215.235     2642.021        4.682        1.145      265.935       55.217        0.043      346.200       24.271      860.454
09/05/2013  19:16:00     -257.898     -125.780       -9.106      131.945      101.541       54.045    17409.428    10310.474     2920.914        5.652        1.532      286.936       58.446        0.041      346.141       24.171      860.468
09/05/2013  19:17:00     -200.945     -167.143       -7.883      113.787      114.423       63.019    12947.474    13092.533     3971.345        4.919        1.501      261.373       64.973        0.062      346.138       24.166      860.481
09/05/2013  19:18:00     -150.646      -40.077      -11.157      116.188      106.390       57.838    13499.688    11318.741     3345.252        2.629        1.408      155.885       52.910        0.115      346.157       24.201      860.420
09/05/2013  19:19:00     -374.957     -110.216       -9.619      210.446      125.306       71.826    44287.436    15701.479     5158.938       10.898        3.257      390.820       76.863        0.039      346.145       24.178      860.489
09/05/2013  19:20:00     -212.037     -188.705        0.201      164.824      148.841       73.734    27166.855    22153.502     5436.747        6.765        2.738      283.847       80.154        0.080      346.140       24.171      860.493
09/05/2013  19:21:00     -395.897     -100.062      -11.173      186.669      119.398       74.262    34845.301    14255.993     5514.797       11.073        2.731      408.347       89.336        0.048      346.093       24.089      860.480
09/05/2013  19:22:00     -244.115       -9.931       -4.291      154.750       90.584       62.754    23947.532     8205.428     3938.122        4.789        1.805      244.317       74.423        0.093      346.006       23.940      860.466
09/05/2013  19:23:00     -286.959      -16.960      -18.305       92.366       82.129       55.895     8531.453     6745.152     3124.229        5.068        0.920      287.460       50.236        0.031      346.043       24.002      860.447
09/05/2013  19:24:00     -181.273     -108.110       -7.332       95.336      105.181       54.648     9089.002    11063.143     2986.382        3.387        1.157      211.063       42.878        0.041      346.059       24.031      860.469
09/05/2013  19:25:00     -152.740      -54.530       -9.121       72.738       89.136       39.767     5290.746     7945.174     1581.450        2.060        0.741      162.182       31.882        0.039      346.045       24.007      860.460
09/05/2013  19:26:00     -151.740      -82.713        5.097       95.679       83.574       43.746     9154.446     6984.577     1913.734        2.397        0.903      172.819       41.006        0.056      346.028       23.979      860.469
09/05/2013  19:27:00     -266.078     -174.649      -20.849      109.135       85.743       67.866    11910.546     7351.844     4605.815        6.280        1.193      318.276       65.043        0.042      346.004       23.936      860.455
09/05/2013  19:28:00     -209.421      -80.010       11.818      138.020      115.097       50.681    19049.532    13247.285     2568.610        4.262        1.743      224.185       59.115        0.070      345.974       23.886      860.502
09/05/2013  19:29:00     -231.827     -137.141      -14.455      101.186      115.084       47.795    10238.510    13244.238     2284.351        4.926        1.288      269.354       46.936        0.030      345.978       23.892      860.538
09/05/2013  19:30:00     -242.849     -186.460      -12.085      138.544      113.589       60.854    19194.496    12902.405     3703.198        6.484        1.790      306.175       63.283        0.043      345.956       23.853      860.546
09/05/2013  19:31:00     -103.761      -35.823       21.151      117.197       86.108       49.272    13735.156     7414.630     2427.736        1.803        1.179      109.771       68.393        0.388      345.886       23.737      860.525
09/05/2013  19:32:00     -161.380      -62.986       17.467      115.936       87.208       63.830    13441.150     7605.274     4074.219        2.771        1.256      173.236       63.582        0.135      345.887       23.737      860.502
09/05/2013  19:33:00     -370.656      -85.931      -14.122      178.693      124.279       69.567    31931.044    15445.314     4839.534        9.858        2.611      380.486       78.318        0.042      345.906       23.769      860.495
09/05/2013  19:34:00     -411.893     -149.381       -8.978      191.805      137.975       69.235    36789.113    19037.007     4793.501       12.632        3.031      438.144       79.857        0.033      345.932       23.813      860.474
09/05/2013  19:35:00     -308.264      -84.153       -4.908      125.524      128.102       62.122    15756.240    16410.026     3859.099        6.907        1.801      319.544       68.638        0.046      345.848       23.669      860.513
09/05/2013  19:36:00     -322.617      -91.176        2.475      161.332      118.854       73.053    26028.060    14126.233     5336.712        7.894        2.275      335.254       81.786        0.060      345.846       23.665      860.528
09/05/2013  19:37:00     -481.037     -149.873      -11.693      227.140      162.531       81.635    51592.620    26416.344     6664.309       16.932        4.234      503.843       95.844        0.036      346.091       24.085      860.487
09/05/2013  19:38:00     -285.373     -132.300       -4.168      137.168      101.983       55.409    18815.068    10400.515     3070.152        6.562        1.614      314.549       65.461        0.043      346.004       23.936      860.514
09/05/2013  19:39:00     -324.947     -127.524       -5.628      180.316      174.824       66.675    32513.972    30563.261     4445.508        9.469        3.376      349.074       71.398        0.042      345.984       23.902      860.543
09/05/2013  19:40:00     -198.618     -187.361       -1.553      172.520      136.121       86.189    29763.116    18528.806     7428.472        6.513        2.786      273.044      102.995        0.142      345.955       23.852      860.559
09/05/2013  19:41:00     -127.326      -96.561       24.542      143.168      125.059       68.869    20497.191    15639.823     4743.004        3.350        2.044      159.800       78.410        0.241      345.825       23.629      860.595
09/05/2013  19:42:00     -201.866     -145.805        4.079      153.363      135.373       67.690    23520.121    18325.802     4581.943        5.422        2.321      249.016       84.486        0.115      345.949       23.844      860.619
09/05/2013  19:43:00     -292.163     -158.748      -12.572      171.542      109.394       62.896    29426.566    11967.144     3955.847        7.802        2.267      332.506       80.402        0.058      345.979       23.895      860.584
09/05/2013  19:44:00     -413.303     -185.143      -18.969      177.293      138.243       60.791    31432.809    19111.199     3695.597       12.984        2.712      452.876       56.970        0.016      346.019       23.962      860.594
09/05/2013  19:45:00     -318.723      -58.421       -3.830      146.178      154.072       76.354    21368.132    23738.075     5829.903        7.796        2.547      324.033       74.063        0.052      345.958       23.859      860.616
09/05/2013  19:46:00     -222.023     -172.587       11.965      164.898      152.255       85.884    27191.418    23181.580     7376.135        6.847        2.887      281.213       94.063        0.112      345.982       23.898      860.626
09/05/2013  19:47:00     -168.475     -100.699       -2.661      124.731      130.919       75.320    15557.915    17139.882     5673.038        3.844        1.919      196.276       63.179        0.104      345.919       23.790      860.683
09/05/2013  19:48:00     -136.147     -111.127       15.757      139.207      104.583       64.406    19378.553    10937.601     4148.146        3.279        1.723      175.742       74.358        0.179      345.848       23.671      860.699
09/05/2013  19:49:00     -241.037      -59.956      -27.643      134.905       90.797       58.073    18199.359     8244.136     3372.425        4.613        1.491      248.382       61.338        0.061      345.872       23.710      860.670
09/05/2013  19:50:00     -185.727      -42.392        7.043      111.471       82.704       45.488    12425.860     6839.958     2069.197        2.883        1.067      190.503       49.611        0.068      345.830       23.639      860.654
09/05/2013  19:51:00     -132.694      -96.147       -2.329       94.488       84.920       37.728     8927.920     7211.378     1423.424        2.221        0.878      163.866       45.534        0.077      345.791       23.572      860.659
09/05/2013  19:52:00     -236.762      -54.458        2.313      137.787       95.404       56.752    18985.149     9101.953     3220.777        4.516        1.565      242.945       66.879        0.076      345.725       23.458      860.659
09/05/2013  19:53:00     -153.070     -160.945        6.456      127.965       92.300       67.629    16374.958     8519.205     4573.696        3.942        1.473      222.112       72.543        0.107      345.788       23.565      860.673
09/05/2013  19:54:00     -243.032     -162.288       -1.308      119.335      121.073       65.489    14240.769    14658.720     4288.854        5.929        1.659      292.236       70.471        0.058      345.830       23.639      860.668
09/05/2013  19:55:00     -467.784     -150.048      -29.604      148.624      151.372       85.458    22089.015    22913.369     7303.145       14.725        2.615      491.260       88.122        0.032      345.822       23.625      860.701
09/05/2013  19:56:00     -328.426     -184.556       -9.911      191.603      168.166       72.372    36711.676    28279.709     5237.689       10.611        3.511      376.728       76.453        0.041      345.799       23.585      860.705
09/05/2013  19:57:00     -248.774     -120.651       -3.101      139.208       99.610       68.358    19378.732     9922.156     4672.845        5.521        1.699      276.488       73.137        0.070      345.770       23.536      860.696
09/05/2013  19:58:00     -188.521      -94.417        2.965      162.291      107.131       52.919    26338.331    11477.058     2800.380        4.253        2.031      210.843       65.567        0.097      345.695       23.408      860.690
09/05/2013  19:59:00     -245.172     -110.690      -13.040      136.037       82.369       58.680    18506.113     6784.704     3443.343        5.063        1.437      269.001       68.713        0.065      345.683       23.385      860.703
09/05/2013  20:00:00     -436.016      -53.313      -24.151      143.451      132.983       69.229    20578.224    17684.411     4792.682       11.829        2.153      439.263       74.248        0.029      345.712       23.434      860.668
09/05/2013  20:01:00     -250.557     -168.989       -8.397      157.735      119.680       74.568    24880.190    14323.326     5560.322        6.808        2.238      302.218       79.327        0.069      345.790       23.570      860.718
09/05/2013  20:02:00     -378.741     -193.548      -11.162      194.052      147.335       83.159    37656.337    21707.686     6915.364       12.364        3.314      425.330       95.810        0.051      345.964       23.868      860.739
09/05/2013  20:03:00     -383.210     -200.940       -2.178      165.526      141.269       80.317    27398.997    19956.895     6450.870       12.051        2.690      432.697       68.702        0.025      345.990       23.912      860.742
09/05/2013  20:04:00     -199.228     -102.287       10.049      177.201      107.661       72.136    31400.105    11590.938     5203.571        4.922        2.410      223.952       86.307        0.149      345.895       23.751      860.805
09/05/2013  20:05:00     -251.050     -104.122       -8.534      140.584      122.394       53.987    19763.952    14980.232     2914.595        5.579        1.883      271.786       56.080        0.043      345.928       23.805      860.821
09/05/2013  20:06:00     -220.948      -73.790        4.342      130.994      111.593       66.635    17159.448    12452.896     4440.198        4.416        1.703      232.945       59.754        0.066      345.873       23.711      860.827
09/05/2013  20:07:00     -225.230     -217.596       22.396      190.552      171.837      106.569    36310.224    29527.807    11356.889        8.787        3.860      313.172      116.931        0.139      345.834       23.646      860.830
09/05/2013  20:08:00     -395.369     -186.816      -22.525      172.544      135.969       84.902    29771.526    18487.436     7208.425       12.358        2.773      437.283       88.329        0.041      345.823       23.625      860.848
09/05/2013  20:09:00     -263.440      -58.011      -18.472      137.014       82.595       59.316    18772.759     6821.999     3518.414        5.110        1.456      269.752       60.765        0.051      345.799       23.585      860.905
09/05/2013  20:10:00     -189.953     -114.801      -16.233      159.337      159.186       65.024    25388.211    25340.186     4228.178        5.223        2.748      221.949       49.751        0.050      345.773       23.541      860.916
09/05/2013  20:11:00     -297.884     -147.524      -15.382      140.046      156.336       78.188    19613.011    24440.950     6113.383        8.044        2.508      332.412       77.747        0.055      345.841       23.658      860.921
09/05/2013  20:12:00     -155.965      -79.069        4.377      106.299       86.185       59.216    11299.542     7427.811     3506.498        2.641        1.112      174.863       53.351        0.093      345.767       23.531      860.952
09/05/2013  20:13:00     -163.936     -168.972        6.991      109.192       94.377       61.281    11922.949     8907.106     3755.355        4.003        1.229      235.428       46.346        0.039      345.863       23.696      860.984
09/05/2013  20:14:00     -244.247      -68.591       -4.902      109.786      131.703       54.947    12052.938    17345.661     3019.127        4.840        1.621      253.696       45.741        0.033      345.786       23.563      861.017
09/05/2013  20:15:00     -174.925      -69.491       -5.654      121.427       90.068       51.890    14744.398     8112.157     2692.521        3.050        1.277      188.223       57.064        0.092      345.705       23.423      861.005
09/05/2013  20:16:00     -301.511      -93.818       -8.315      176.014      117.497       85.749    30980.900    13805.529     7352.915        7.595        2.607      315.770       87.960        0.078      345.730       23.466      860.971
09/05/2013  20:17:00     -294.313      -47.618       -7.635      149.990      103.175       56.552    22496.942    10645.089     3198.149        6.264        1.817      298.141       59.374        0.040      345.699       23.414      860.998
09/05/2013  20:18:00     -185.574      -73.146        3.212      121.768       88.045       55.941    14827.349     7751.987     3129.412        3.275        1.285      199.470       68.801        0.119      345.621       23.279      861.041
09/05/2013  20:19:00     -111.703      -97.310        6.604       92.932       86.765       47.020     8636.395     7528.242     2210.846        2.018        0.919      148.145       43.352        0.086      345.598       23.239      861.119
09/05/2013  20:20:00      -73.653      -36.227       11.967       61.345       46.446       37.447     3763.200     2157.237     1402.257        0.710        0.366       82.081       36.094        0.193      345.581       23.212      861.129
09/05/2013  20:21:00     -143.936      -60.047       -4.000       97.155       73.920       40.411     9439.069     5464.221     1633.086        2.043        0.827      155.959       46.989        0.091      345.652       23.332      861.117
09/05/2013  20:22:00      -57.703     -121.335        0.086      129.660      131.557       43.698    16811.698    17307.325     1909.521        2.703        1.801      134.358       43.125        0.103      345.619       23.276      861.100
09/05/2013  20:23:00     -215.970     -189.814       -1.581      178.936      138.875       88.202    32018.022    19286.179     7779.570        7.087        2.954      287.528       88.799        0.095      345.660       23.345      861.111
09/05/2013  20:24:00     -141.118      -69.763        1.247       80.858       93.690       47.050     6537.971     8777.725     2213.746        2.115        0.876      157.420       45.130        0.082      345.622       23.282      861.190
09/05/2013  20:25:00     -226.821     -163.574       -3.084      143.635      123.125       62.733    20631.033    15159.660     3935.399        5.896        1.986      279.651       64.298        0.053      345.655       23.338      861.213
09/05/2013  20:26:00     -113.823      -42.488       24.657      134.909      131.161       60.793    18200.437    17203.151     3695.772        2.723        1.955      121.494       53.591        0.195      345.622       23.282      861.167
09/05/2013  20:27:00     -138.725       37.463       -0.837       56.378       37.409       29.240     3178.502     1399.442      855.002        1.304        0.272      143.695       22.173        0.024      345.523       23.113      861.130
09/05/2013  20:28:00      -73.647       21.879       10.478       80.610       56.951       43.960     6497.923     3243.457     1932.487        0.884        0.584       76.829       45.141        0.345      345.413       22.924      861.166
09/05/2013  20:29:00     -145.438      -80.077       -4.447       64.015       38.579       30.461     4097.932     1488.377      927.902        1.705        0.326      166.026       29.277        0.031      345.500       23.074      861.225
09/05/2013  20:30:00      -77.392        8.382       12.997       71.558       41.610       32.453     5120.573     1731.392     1053.229        0.707        0.395       77.844       40.223        0.267      345.321       22.768      861.209
09/05/2013  20:31:00      -72.125        2.532       11.009       59.110       46.350       32.211     3493.990     2148.303     1037.524        0.600        0.334       72.170       19.161        0.070      345.344       22.807      861.220
09/05/2013  20:32:00      -29.843      -38.675        3.627       70.212       53.573       40.163     4929.726     2870.110     1613.048        0.590        0.471       48.851       23.932        0.240      345.249       22.643      861.242
09/05/2013  20:33:00        0.913       -3.286        7.430       45.711       36.331       30.070     2089.460     1319.944      904.235        0.219        0.216        3.410       20.331       35.540      344.972       22.170      861.280
09/05/2013  20:34:00      -44.375      -64.767       14.868       90.047       63.226       37.502     8108.536     3997.570     1406.416        0.995        0.676       78.511       39.962        0.259      345.187       22.537      861.297
09/05/2013  20:35:00       -2.806       11.246       25.783       51.817       26.458       25.357     2685.017      700.041      642.984        0.241        0.201       11.590       17.100        2.177      344.868       21.992      861.286
09/05/2013  20:36:00      -33.683        6.760        7.170       35.282       22.937       16.567     1244.791      526.110      274.464        0.164        0.102       34.354       17.633        0.263      344.870       21.996      861.303
09/05/2013  20:37:00       20.401       -9.998       -1.292       52.194       46.484       23.719     2724.227     2160.790      562.611        0.298        0.272       22.719       24.608        1.173      345.001       22.221      861.339
09/05/2013  20:38:00      -56.724     -164.273       10.440       80.761      104.733       53.998     6522.317    10969.005     2915.815        2.536        1.020      173.791       32.836        0.036      345.424       22.941      861.347
09/05/2013  20:39:00     -253.838     -178.516      -13.067      122.615       91.879       62.796    15034.557     8441.824     3943.306        6.194        1.371      310.326       51.212        0.027      345.481       23.038      861.306
09/05/2013  20:40:00     -203.745        0.700      -11.895       76.874       80.608       39.798     5909.676     6497.649     1583.896        2.782        0.700      203.747       34.295        0.028      345.390       22.883      861.339
09/05/2013  20:41:00     -148.887       57.497      -21.143       55.710       84.529       37.197     3103.594     7145.102     1383.627        1.877        0.582      159.604       37.627        0.056      345.322       22.769      861.376
09/05/2013  20:42:00     -144.088      -56.899        4.074       95.350       56.187       31.664     9091.657     3156.937     1002.638        1.863        0.663      154.916       39.511        0.065      345.217       22.587      861.397
09/05/2013  20:43:00     -276.349       60.126      -21.723      180.311       86.372       57.823    32512.083     7460.201     3343.469        6.188        2.166      282.814       76.610        0.073      345.196       22.550      861.389
09/05/2013  20:44:00     -289.714      -47.535      -14.748       88.848       86.530       48.421     7894.045     7487.410     2344.576        5.207        0.886      293.587       52.387        0.032      345.225       22.598      861.403
09/05/2013  20:45:00     -255.466      -91.169      -19.636      126.007       86.662       58.857    15877.690     7510.249     3464.188        5.040        1.343      271.246       65.335        0.058      345.322       22.765      861.449
09/05/2013  20:46:00     -191.129     -114.940      -17.989       97.201      127.565       71.963     9447.950    16272.809     5178.745        4.048        1.545      223.028       70.944        0.101      345.234       22.614      861.466
09/05/2013  20:47:00      -41.011        1.217       12.918       82.930      129.981       59.143     6877.352    16894.979     3497.894        1.455        1.364       41.029       24.790        0.365      345.142       22.461      861.451
09/05/2013  20:48:00      -44.031       -4.101       10.376       80.063       64.243       36.327     6410.015     4127.128     1319.662        0.696        0.593       44.222       20.883        0.223      345.026       22.263      861.455
09/05/2013  20:49:00     -205.283     -115.786      -13.095      101.525       72.933       38.822    10307.354     5319.273     1507.129        3.642        0.857      235.685       36.500        0.024      345.001       22.217      861.441
09/05/2013  20:50:00     -111.673       -2.123        1.407      107.077       50.569       27.870    11465.573     2557.268      776.723        1.364        0.740      111.693       40.725        0.133      344.924       22.087      861.434
09/05/2013  20:51:00     -154.584      -91.942       -3.730       52.229       80.708       35.370     2727.887     6513.747     1251.061        2.143        0.525      179.860       31.202        0.030      345.038       22.280      861.447
09/05/2013  20:52:00      -72.963      -46.703      -10.570       48.689       57.347       31.834     2370.640     3288.692     1013.403        0.714        0.334       86.630       29.711        0.118      345.071       22.340      861.432
09/05/2013  20:53:00      -98.579      -30.570       -3.249       53.521       59.071       36.428     2864.465     3489.366     1327.015        0.917        0.384      103.210       29.621        0.082      345.016       22.247      861.451
09/05/2013  20:54:00     -146.844      -66.700       -5.528       73.837       65.750       36.997     5451.889     4323.017     1368.768        1.859        0.557      161.283       32.528        0.041      345.010       22.233      861.506
09/05/2013  20:55:00     -208.134     -125.006      -13.782       83.227       96.614       38.334     6926.671     9334.200     1469.532        3.843        0.887      242.789       39.313        0.026      345.241       22.628      861.525
09/05/2013  20:56:00     -140.489      -51.532        8.384      109.654       90.528       57.869    12024.105     8195.335     3348.822        2.301        1.178      149.642       55.164        0.136      345.199       22.557      861.531
09/05/2013  20:57:00     -168.015       18.374      -23.872      101.120      130.968       44.948    10225.211    17152.696     2020.307        2.926        1.470      169.017       63.527        0.141      345.208       22.572      861.506
09/05/2013  20:58:00      -38.738      -27.529      -17.645       74.404      126.604       43.339     5535.888    16028.462     1878.287        1.300        1.172       47.524       20.961        0.195      345.080       22.355      861.466
09/05/2013  20:59:00      -28.244     -105.130      -13.173       42.315       56.132       38.482     1790.546     3150.792     1480.880        0.922        0.321      108.858       23.943        0.048      345.107       22.403      861.510
09/05/2013  21:00:00     -150.516      -56.525       -1.177       66.768       63.113       37.805     4457.926     3983.216     1429.248        1.786        0.494      160.780       41.577        0.067      345.075       22.348      861.557
09/05/2013  21:01:00     -106.950       28.739      -10.468       53.750       47.489       34.806     2889.034     2255.172     1211.449        0.936        0.318      110.744       28.469        0.066      345.014       22.242      861.561
09/05/2013  21:02:00     -100.471       32.518       -6.257       69.479      110.062       35.875     4827.269    12113.538     1287.004        1.471        0.911      105.602       36.440        0.119      344.918       22.077      861.530
09/05/2013  21:03:00     -116.033       17.162        1.027       63.356       84.254       43.458     4014.043     7098.686     1888.590        1.338        0.650      117.295       36.781        0.098      344.873       22.000      861.567
09/05/2013  21:04:00     -127.388      -67.722       -3.720       67.828       48.024       33.311     4600.628     2306.268     1109.619        1.442        0.401      144.271       36.992        0.066      344.891       22.029      861.658
09/05/2013  21:05:00     -125.225      -19.335        7.621       73.857       76.529       33.147     5454.850     5856.638     1098.694        1.426        0.621      126.709       36.697        0.084      344.901       22.047      861.659
09/05/2013  21:06:00      -10.497       -0.507       10.437       42.189       27.458       19.653     1779.915      753.951      386.241        0.157        0.146       10.509        7.636        0.528      344.826       21.921      861.642
09/05/2013  21:07:00      -64.277       15.038        7.769       54.130       32.809       30.062     2930.094     1076.399      903.753        0.466        0.246       66.013       32.498        0.242      344.845       21.953      861.637
09/05/2013  21:08:00     -145.972     -102.366        0.011      146.467       84.422       46.331    21452.650     7127.157     2146.565        3.125        1.536      178.288       58.744        0.109      344.979       22.180      861.653
09/05/2013  21:09:00     -155.275     -115.145      -15.707       78.014       82.551       44.796     6086.181     6814.645     2006.714        2.626        0.745      193.310       38.162        0.039      345.081       22.354      861.638
09/05/2013  21:10:00     -191.902       -7.264       -5.900       80.480       75.636       36.309     6477.004     5720.818     1318.346        2.521        0.676      192.040       31.104        0.026      345.008       22.229      861.648
09/05/2013  21:11:00     -223.152     -123.636      -17.717       80.161       80.407       45.484     6425.741     6465.323     2068.755        4.018        0.748      255.113       46.766        0.034      344.861       21.975      861.651
09/05/2013  21:12:00     -155.172     -125.292       -8.598       88.292       55.963       53.295     7795.417     3131.849     2840.365        2.681        0.688      199.440       52.614        0.070      344.797       21.867      861.669
09/05/2013  21:13:00     -142.289     -104.975      -11.578      106.127       85.641       49.146    11262.994     7334.354     2415.357        2.620        1.051      176.821       27.316        0.024      344.799       21.872      861.697
09/05/2013  21:14:00     -134.585      -94.256       -8.923       52.860       53.706       27.665     2794.142     2884.299      765.354        1.676        0.322      164.309       28.366        0.030      344.737       21.768      861.713
09/05/2013  21:15:00      -87.675      -72.796        2.646       56.610       41.333       25.774     3204.727     1708.422      664.275        0.928        0.279      113.957       24.660        0.047      344.738       21.770      861.726
09/05/2013  21:16:00     -134.679      -99.775      -10.583       66.871       30.768       19.465     4471.718      946.650      378.878        1.700        0.290      167.611       16.295        0.009      344.756       21.801      861.730
09/05/2013  21:17:00      -19.613      -42.737       11.128       40.311       37.225       27.010     1624.981     1385.732      729.516        0.304        0.187       47.022       21.482        0.209      344.668       21.651      861.737
09/05/2013  21:18:00      -94.617      -24.641      -14.325       31.724       24.623       23.714     1006.407      606.286      562.331        0.597        0.109       97.773       15.377        0.025      344.700       21.704      861.761
09/05/2013  21:19:00      -66.773       -4.705        3.418       31.277       36.530       19.568      978.270     1334.430      382.894        0.359        0.135       66.939       16.625        0.062      344.728       21.751      861.764
09/05/2013  21:20:00      -51.022      -36.662       -5.150       47.314       48.666       25.440     2238.621     2368.355      647.211        0.461        0.263       62.828       25.883        0.170      344.647       21.614      861.757
09/05/2013  21:21:00      -99.856      -91.799       -5.917       87.621       79.422       39.395     7677.521     6307.858     1551.969        1.698        0.777      135.640       43.447        0.103      344.774       21.831      861.790
09/05/2013  21:22:00     -147.651     -122.075      -21.115       82.003       62.820       31.719     6724.411     3946.308     1006.080        2.441        0.584      191.581       38.639        0.041      344.840       21.944      861.796
09/05/2013  21:23:00      -86.595      -93.024        0.974       38.969       59.045       32.605     1518.598     3486.259     1063.115        1.111        0.303      127.091       31.548        0.062      344.791       21.860      861.779
09/05/2013  21:24:00       10.584      -24.249       24.157       28.398       32.787       23.273      806.471     1074.962      541.639        0.185        0.121       26.458       10.344        0.153      344.617       21.564      861.785
09/05/2013  21:25:00       19.148       30.239       46.989       45.847       48.608       34.584     2101.943     2362.701     1196.042        0.457        0.283       35.792       31.162        0.758      344.619       21.568      861.781
09/05/2013  21:26:00      125.179      -85.394       35.101       88.885       97.347       42.898     7900.526     9476.484     1840.197        2.170        0.961      151.532       43.551        0.083      344.662       21.637      861.784
09/05/2013  21:27:00      -19.418      -59.063       10.975       55.837       38.019       36.433     3117.773     1445.425     1327.340        0.494        0.295       62.173       35.203        0.321      344.749       21.787      861.798
09/05/2013  21:28:00     -103.891      -11.647       -1.765       52.453       28.735       21.029     2751.287      825.725      442.232        0.747        0.201      104.542       24.237        0.054      344.693       21.693      861.833
09/05/2013  21:29:00      -85.640       39.983       -3.297       40.333       40.283       22.265     1626.745     1622.729      495.734        0.634        0.187       94.514       12.599        0.018      344.670       21.653      861.808
09/05/2013  21:30:00      -89.979       64.927       -3.689       41.935       91.861       31.061     1758.508     8438.508      964.813        1.174        0.558      110.959       27.834        0.063      344.676       21.663      861.799
09/05/2013  21:31:00      -90.834       -7.599       -2.584       35.068       41.878       25.286     1229.791     1753.758      639.380        0.597        0.181       91.151       20.233        0.049      344.672       21.656      861.842
09/05/2013  21:32:00      -87.069      -25.045       -0.506       44.628       34.703       17.949     1991.658     1204.312      322.161        0.586        0.176       90.600       13.285        0.022      344.705       21.713      861.862
09/05/2013  21:33:00      -80.488      -22.626        2.183       43.903       42.081       27.357     1927.453     1770.799      748.385        0.572        0.222       83.607       19.500        0.054      344.798       21.872      861.873
09/05/2013  21:34:00     -195.734     -148.732       11.856      162.468       95.803       63.320    26395.890     9178.154     4009.394        5.007        1.979      245.831       80.042        0.106      344.796       21.867      861.883
09/05/2013  21:35:00     -131.877      -78.098       -2.043       68.230       75.530       41.690     4655.369     5704.803     1738.057        1.779        0.605      153.267       36.199        0.056      344.777       21.836      861.909
09/05/2013  21:36:00     -277.645     -198.485        2.195      174.637      123.408       77.379    30498.089    15229.567     5987.446        8.409        2.586      341.296       91.161        0.071      344.816       21.901      861.863
09/05/2013  21:37:00     -188.412     -104.023        4.429      121.900      100.823       61.193    14859.663    10165.332     3744.596        3.755        1.438      215.221       58.299        0.073      344.761       21.805      861.857
09/05/2013  21:38:00      -36.249      -26.930       16.464       72.849       40.279       31.262     5306.979     1622.405      977.288        0.511        0.395       45.158       31.793        0.496      344.667       21.648      861.898
09/05/2013  21:39:00     -110.757      -40.653       -3.390       97.875       34.592       30.962     9579.454     1196.640      958.673        1.283        0.587      117.982       44.263        0.141      344.662       21.638      861.904
09/05/2013  21:40:00     -116.588      -29.610       -3.893       34.525       58.540       25.166     1191.999     3426.974      633.312        0.987        0.263      120.289       13.875        0.013      344.640       21.603      861.912
09/05/2013  21:41:00     -102.198      -43.903        9.510       57.768       58.006       34.446     3337.100     3364.688     1186.536        1.017        0.394      111.229       33.045        0.088      344.596       21.526      861.921
09/05/2013  21:42:00     -104.532      -42.788       -3.118       59.807       40.815       30.886     3576.878     1665.877      953.974        0.948        0.310      112.951       27.882        0.061      344.553       21.454      861.938
09/05/2013  21:43:00     -101.479      -42.541       -0.981       67.798       69.751       35.824     4596.624     4865.243     1283.346        1.142        0.537      110.035       36.134        0.108      344.547       21.442      861.939
09/05/2013  21:44:00     -107.095      -43.232        2.282       63.942       57.513       35.274     4088.553     3307.759     1244.279        1.099        0.432      115.492       36.478        0.100      344.537       21.425      861.938
09/05/2013  21:45:00      -18.853      -47.498        2.561       27.500       33.662       17.530      756.237     1133.118      307.316        0.241        0.110       51.102       18.292        0.128      344.563       21.471      861.947
09/05/2013  21:46:00      -39.849       -8.768       -6.983       15.958       26.725       12.792      254.660      714.240      163.638        0.142        0.057       40.802       11.395        0.078      344.619       21.567      861.947
09/05/2013  21:47:00      -14.214       31.289        0.547       21.717        9.811        8.245      471.636       96.262       67.985        0.091        0.032       34.366       11.046        0.103      344.513       21.387      861.955
09/05/2013  21:48:00       31.946       34.841       -3.900       23.507       10.441        9.143      552.582      109.008       83.592        0.150        0.037       47.270        5.296        0.013      344.544       21.440      861.958
09/05/2013  21:49:00      101.925       52.417       10.243       33.727       20.218       17.458     1137.512      408.785      304.788        0.755        0.093      114.613       16.539        0.021      344.512       21.383      861.959
09/05/2013  21:50:00      119.273       39.631       28.720       44.850       34.391       32.383     2011.497     1182.744     1048.677        1.043        0.212      125.685       19.469        0.024      344.452       21.280      861.957
09/05/2013  21:51:00       38.668        6.244       31.994       31.997       27.053       19.836     1023.780      731.880      393.464        0.235        0.107       39.169       13.965        0.127      344.354       21.114      861.984
09/05/2013  21:52:00       97.699       54.656       34.615       49.953       28.641       16.955     2495.327      820.332      287.484        0.867        0.180      111.949        9.368        0.007      344.361       21.126      861.987
09/05/2013  21:53:00       45.127       52.796       60.343       74.151       28.944       33.882     5498.326      837.766     1148.012        0.797        0.374       69.454       42.467        0.374      344.316       21.047      861.969
09/05/2013  21:54:00       41.515       32.370       48.742       45.888       32.208       25.932     2105.715     1037.359      672.485        0.448        0.191       52.643       31.764        0.364      344.256       20.946      861.986
09/05/2013  21:55:00       25.247       37.043       48.936       34.253       31.336       27.897     1173.254      981.923      778.250        0.367        0.147       44.829       26.082        0.339      344.183       20.823      861.991
09/05/2013  21:56:00       89.126       40.704        6.677       24.671       19.049       14.398      608.652      362.856      207.303        0.541        0.059       97.980       10.785        0.012      344.197       20.844      862.000
09/05/2013  21:57:00       81.714       43.058        6.628       28.793       21.351       16.782      829.011      455.878      281.635        0.507        0.078       92.365        8.767        0.009      344.204       20.856      861.994
09/05/2013  21:58:00       82.190       56.679       23.855       40.973       25.084       26.284     1678.770      629.199      690.872        0.677        0.150       99.838       11.366        0.013      344.312       21.039      862.014
09/05/2013  21:59:00       40.291       12.055       18.800       38.496       25.145       22.063     1481.978      632.287      486.762        0.236        0.130       42.055       20.533        0.238      344.170       20.797      862.056
09/05/2013  22:00:00       56.090       59.710        5.518       21.851       30.297       23.690      477.446      917.932      561.238        0.435        0.098       81.923       15.684        0.037      344.315       21.046      862.069
09/05/2013  22:01:00        1.487       22.659        0.819       19.115       16.723       13.283      365.400      279.657      176.434        0.067        0.041       22.707        9.175        0.163      344.237       20.911      862.078
09/05/2013  22:02:00       15.229       31.228       -3.356       21.128       11.565       10.515      446.411      133.761      110.560        0.095        0.035       34.744       10.414        0.090      344.469       21.311      862.090
09/05/2013  22:03:00       29.645      -10.698       -0.989       24.132       33.278       11.633      582.332     1107.396      135.331        0.141        0.091       31.516       15.167        0.232      344.414       21.213      862.106
09/05/2013  22:04:00       -5.887      -48.523        4.653       23.258       23.393       19.380      540.934      547.222      375.568        0.194        0.073       48.879        6.672        0.019      344.324       21.062      862.134
09/05/2013  22:05:00        0.515        6.972       17.854       14.445       21.425       17.446      208.648      459.036      304.380        0.067        0.049        6.991       17.648        6.372      344.194       20.841      862.144
09/05/2013  22:06:00      -13.311        5.755       17.462       10.341       19.394       18.499      106.945      376.139      342.215        0.067        0.041       14.502       16.509        1.296      344.130       20.731      862.156
09/05/2013  22:07:00        6.809      -23.200       10.427       11.144       23.987       13.892      124.191      575.394      192.981        0.079        0.045       24.178       10.266        0.180      344.345       21.098      862.181
09/05/2013  22:08:00       50.276       30.606       16.591       22.987        9.359       10.059      528.417       87.597      101.193        0.223        0.036       58.859       11.076        0.035      344.359       21.122      862.174
09/05/2013  22:09:00       65.143       28.346       15.314       31.309       21.217       21.042      980.259      450.140      442.780        0.358        0.094       71.043       13.803        0.038      344.414       21.216      862.157
09/05/2013  22:10:00       51.534        9.221       28.113       30.291       20.146       20.927      917.551      405.880      437.942        0.265        0.088       52.353       16.142        0.095      344.458       21.290      862.187
09/05/2013  22:11:00       65.535       53.821       39.778       41.763       41.845       22.262     1744.117     1751.000      495.582        0.638        0.200       84.803       16.143        0.036      344.532       21.418      862.241
09/05/2013  22:12:00      211.856      113.237       30.336       66.023       40.997       36.466     4359.068     1680.725     1329.751        3.300        0.368      240.220       26.524        0.012      344.502       21.362      862.211
09/05/2013  22:13:00      271.002      141.850       26.663       51.468       39.970       43.331     2648.991     1597.613     1877.553        5.020        0.306      305.881       29.026        0.009      344.599       21.528      862.151
09/05/2013  22:14:00       66.876       27.327       31.511       83.578       48.286       40.019     6985.277     2331.538     1601.535        0.856        0.546       72.244       38.741        0.288      344.424       21.232      862.165
09/05/2013  22:15:00       12.468      -25.273       32.949       35.060       55.866       25.884     1229.200     3120.998      669.999        0.345        0.251       28.182       19.798        0.494      344.359       21.122      862.210
09/05/2013  22:16:00     -105.040     -120.919      -16.504       50.658       47.591       22.162     2566.253     2264.950      491.158        1.562        0.266      160.171       23.734        0.022      344.511       21.382      862.250
09/05/2013  22:17:00      -65.012      -76.430        3.336       57.788       31.841       31.251     3339.494     1013.842      976.611        0.770        0.266      100.340       25.465        0.064      344.461       21.297      862.271
09/05/2013  22:18:00      -70.772      -59.963       11.560       75.656       36.480       37.256     5723.812     1330.794     1387.982        0.859        0.422       92.759       34.692        0.140      344.440       21.261      862.246
09/05/2013  22:19:00     -175.210     -128.351        4.584      142.300      110.337       67.413    20249.221    12174.246     4544.561        4.207        1.848      217.193       73.145        0.113      344.498       21.357      862.250
09/05/2013  22:20:00     -131.634      -98.148        3.897      107.726      110.087       58.599    11604.882    12119.257     3433.849        2.706        1.358      164.196       62.923        0.147      344.546       21.439      862.266
09/05/2013  22:21:00       -3.805       31.062       21.038       66.554       68.543       43.439     4429.486     4698.108     1886.957        0.622        0.551       31.294       47.291        2.284      344.448       21.273      862.254
09/05/2013  22:22:00      -85.318      -44.345        1.392       58.146       61.680       34.730     3381.012     3804.389     1206.140        0.882        0.420       96.154       26.503        0.076      344.563       21.470      862.236
09/05/2013  22:23:00     -180.747      -81.359       -1.105      119.832       74.683       43.484    14359.744     5577.484     1890.894        3.055        1.091      198.214       46.182        0.054      344.536       21.421      862.268
09/05/2013  22:24:00      -84.279      -15.151       12.037       82.854       43.587       29.427     6864.840     1899.867      865.929        0.855        0.482       85.630       23.797        0.077      344.451       21.278      862.265
09/05/2013  22:25:00      -74.327     -217.235        9.252       72.628       87.947       47.687     5274.896     7734.634     2274.073        3.404        0.764      229.599       46.449        0.041      344.533       21.418      862.278
09/05/2013  22:26:00      -57.603     -224.495      -15.648       51.141       73.617       41.454     2615.426     5419.511     1718.442        3.186        0.488      231.767       24.486        0.011      344.492       21.346      862.262
09/05/2013  22:27:00     -194.029     -125.705       -5.482       74.765       51.566       36.443     5589.800     2659.036     1328.123        3.153        0.479      231.190       29.807        0.017      344.450       21.273      862.259
09/05/2013  22:28:00      -81.039      -83.944        1.787       74.029       59.073       41.885     5480.312     3489.573     1754.360        1.217        0.536      116.679       46.622        0.160      344.331       21.075      862.253
09/05/2013  22:29:00     -158.877     -127.090       -4.037       65.561       72.651       37.781     4298.284     5278.192     1427.401        2.620        0.550      203.455       37.933        0.035      344.337       21.081      862.246
09/05/2013  22:30:00     -144.044     -115.342       -8.810       70.836       50.345       32.035     5017.692     2534.664     1026.232        2.135        0.429      184.533       30.461        0.027      344.370       21.139      862.254
09/05/2013  22:31:00     -110.374     -126.722       -6.906       56.351       54.889       28.060     3175.459     3012.852      787.360        1.763        0.349      168.050       29.135        0.030      344.380       21.156      862.272
09/05/2013  22:32:00     -109.614      -94.088        7.965       65.062       51.951       34.200     4233.000     2698.950     1169.673        1.451        0.405      144.457       30.614        0.045      344.312       21.040      862.282
09/05/2013  22:33:00     -135.201      -60.842       -4.581       42.189       35.313       21.403     1779.945     1247.037      458.104        1.274        0.174      148.260       20.712        0.020      344.247       20.929      862.277
09/05/2013  22:34:00     -140.746       -2.441        0.115       90.752       55.710       35.386     8235.967     3103.660     1252.147        1.620        0.630      140.767       44.841        0.101      344.188       20.829      862.267
09/05/2013  22:35:00     -213.543      -38.922      -11.755       98.580       77.815       40.439     9718.073     6055.137     1635.314        3.233        0.870      217.061       44.426        0.042      344.390       21.172      862.261
09/05/2013  22:36:00     -133.287       -6.230        9.751       76.773       51.084       39.638     5894.055     2609.555     1571.135        1.398        0.504      133.432       39.578        0.088      344.331       21.072      862.267
09/05/2013  22:37:00     -141.206      -33.786      -14.337       73.629       41.027       25.971     5421.253     1683.229      674.500        1.453        0.389      145.191       22.888        0.025      344.363       21.127      862.259
09/05/2013  22:38:00      -81.612      -35.000       -0.621       61.687       32.717       17.183     3805.306     1070.405      295.252        0.653        0.259       88.800       20.970        0.056      344.282       20.990      862.251
09/05/2013  22:39:00      -39.977      -73.468       -2.965       30.921       29.576       20.557      956.135      874.757      422.571        0.463        0.113       83.640       17.763        0.045      344.398       21.187      862.253
09/05/2013  22:40:00      -60.882      -63.176        8.404       52.060       40.714       26.225     2710.223     1657.590      687.730        0.641        0.253       87.737       23.865        0.074      344.294       21.011      862.276
09/05/2013  22:41:00      -41.169      -93.438       -8.868       53.095       44.124       27.407     2819.079     1946.891      751.165        0.801        0.276      102.106       21.716        0.045      344.253       20.942      862.306
09/05/2013  22:42:00      -23.035      -67.720       -3.104       34.671       32.075       23.947     1202.071     1028.776      573.449        0.396        0.140       71.530       18.768        0.069      344.220       20.885      862.322
09/05/2013  22:43:00     -106.293      -56.163        2.088       62.465       36.441       34.659     3901.894     1327.959     1201.250        1.044        0.322      120.219       34.776        0.084      344.118       20.709      862.336
09/05/2013  22:44:00      -60.529      -85.762       11.640       49.208       31.697       28.065     2421.434     1004.717      787.630        0.768        0.211      104.970       25.387        0.058      344.064       20.617      862.343
09/05/2013  22:45:00      -78.512      -90.729       -2.449       60.823       52.846       28.175     3699.424     2792.730      793.818        1.084        0.364      119.982       33.002        0.076      344.048       20.589      862.346
09/05/2013  22:46:00      -63.478      -72.315        3.178       46.168       42.278       27.284     2131.443     1787.425      744.433        0.697        0.233       96.223       26.389        0.075      344.031       20.561      862.362
09/05/2013  22:47:00      -71.461      -89.643        2.268       53.167       52.363       26.672     2826.727     2741.885      711.392        0.971        0.314      114.641       26.107        0.052      344.038       20.574      862.367
09/05/2013  22:48:00      -68.717     -109.881      -14.000       48.673       50.076       21.808     2369.038     2507.565      475.594        1.117        0.268      129.599       22.415        0.030      344.064       20.616      862.374
09/05/2013  22:49:00      -36.890      -96.856       10.179       38.306       69.710       18.203     1467.379     4859.474      331.337        0.875        0.333      103.644       13.666        0.017      344.150       20.766      862.371
09/05/2013  22:50:00      -82.351      -64.519       -1.660       41.947       31.611       18.203     1759.577      999.265      331.342        0.702        0.155      104.615       13.625        0.017      344.228       20.899      862.361
09/05/2013  22:51:00      -74.393      -39.203       -1.156       36.925       31.273       26.855     1363.467      977.997      721.198        0.507        0.153       84.091       23.983        0.081      344.101       20.681      862.361
09/05/2013  22:52:00        0.132      -62.627       -0.355       31.617       32.637       19.234      999.636     1065.176      369.948        0.318        0.122       62.627       16.203        0.067      344.113       20.703      862.364
09/05/2013  22:53:00       -2.752      -33.646        7.868       29.886       33.818       24.040      893.149     1143.672      577.901        0.191        0.131       33.758       21.154        0.393      343.975       20.467      862.371
09/05/2013  22:54:00      -19.299      -21.127       17.971       21.251       25.428       15.152      451.615      646.590      229.575        0.123        0.066       28.614       10.469        0.134      343.982       20.478      862.364
09/05/2013  22:55:00      -38.960      -27.219        5.343       42.273       28.275       17.334     1786.999      799.459      300.466        0.259        0.144       47.526       18.384        0.150      343.956       20.432      862.368
09/05/2013  22:56:00      -86.141      -77.865        9.479       49.289       46.315       31.346     2429.397     2145.101      982.563        0.956        0.278      116.118       33.283        0.082      343.995       20.501      862.371
09/05/2013  22:57:00     -110.404     -116.684       -4.869       64.626       30.537       21.611     4176.471      932.491      467.032        1.570        0.279      160.637       24.841        0.024      344.188       20.829      862.372
09/05/2013  22:58:00     -104.966      -94.399        1.842       62.238       54.864       27.378     3873.555     3010.091      749.576        1.378        0.382      141.170       28.248        0.040      344.080       20.644      862.373
09/05/2013  22:59:00      -63.279     -162.170        0.833       42.978       56.851       28.864     1847.094     3232.019      833.106        1.811        0.296      174.079       25.236        0.021      343.986       20.484      862.367
09/05/2013  23:00:00      -68.310     -149.628      -17.871       38.043       44.453       34.033     1447.241     1976.074     1158.251        1.598        0.229      164.484       15.610        0.009      344.030       20.559      862.345
09/05/2013  23:01:00      -89.105      -42.784       14.302       70.987       46.970       39.254     5039.193     2206.214     1540.887        0.938        0.439       98.845       36.926        0.140      343.946       20.416      862.341
09/05/2013  23:02:00     -165.071      -27.521      -11.245       45.628       43.112       27.601     2081.937     1858.610      761.788        1.642        0.235      167.349       26.802        0.026      344.278       20.984      862.338
09/05/2013  23:03:00      -85.607      -60.888        4.109       64.834       45.477       30.844     4203.411     2068.160      951.360        0.914        0.361      105.052       28.294        0.073      344.146       20.758      862.356
09/05/2013  23:04:00     -209.572     -192.258       11.625      142.375      100.664       55.787    20270.626    10133.247     3112.185        5.726        1.676      284.400       62.629        0.048      344.210       20.864      862.368
09/05/2013  23:05:00     -109.926      -99.549       -1.311      116.967       70.686       49.077    13681.303     4996.552     2408.600        2.154        1.054      148.303       62.538        0.178      344.305       21.029      862.387
09/05/2013  23:06:00     -159.656     -115.167        3.134       78.606       70.545       35.514     6178.939     4976.665     1261.250        2.559        0.621      196.859       27.962        0.020      344.426       21.235      862.378
09/05/2013  23:07:00      -16.431     -165.650       13.893       48.921       54.266       27.669     2393.279     2944.784      765.601        1.700        0.305      166.462       21.615        0.017      344.419       21.224      862.370
09/05/2013  23:08:00      -23.143      -97.479        4.823       30.565       38.603       17.489      934.234     1490.157      305.858        0.640        0.137      100.189       12.235        0.015      344.449       21.277      862.366
09/05/2013  23:09:00      -16.987     -114.457       15.761       28.092       38.641       18.595      789.139     1493.154      345.772        0.813        0.131      115.711       16.457        0.020      344.475       21.321      862.354
09/05/2013  23:10:00      -19.126      -65.314       -1.774       22.921       42.890       28.322      525.384     1839.560      802.116        0.390        0.158       68.057       14.987        0.048      344.247       20.930      862.365
09/05/2013  23:11:00      -18.801      -69.705       11.801       58.242       59.232       33.315     3392.077     3508.452     1109.921        0.668        0.401       72.196       27.235        0.142      344.319       21.052      862.372
09/05/2013  23:12:00        4.780      -85.475        1.591       38.290       44.772       32.089     1466.149     2004.513     1029.691        0.591        0.225       85.608       31.000        0.131      344.321       21.056      862.349
09/05/2013  23:13:00       46.950      -71.192        9.424       54.364       76.795       45.657     2955.460     5897.463     2084.528        0.915        0.547       85.280       46.398        0.296      344.137       20.742      862.342
09/05/2013  23:14:00       29.593       -1.342       46.350       54.302       65.463       57.920     2948.753     4285.356     3354.781        0.681        0.529       29.623       45.564        2.366      343.775       20.124      862.308
09/05/2013  23:15:00       17.300       56.405       83.558       84.606      143.514       73.306     7158.175    20596.383     5373.742        2.179        1.656       58.999       96.984        2.702      343.952       20.426      862.269
09/05/2013  23:16:00      125.038     -201.760      -43.080       94.816       95.797       59.267     8990.159     9176.981     3512.552        3.993        1.084      237.364       59.091        0.062      344.396       21.181      862.266
09/05/2013  23:17:00      -28.068      -87.303       21.567       76.083       73.423       56.062     5788.661     5390.955     3142.957        1.160        0.716       91.704       48.962        0.285      344.317       21.050      862.299
09/05/2013  23:18:00       89.356     -141.096      -20.305       79.988       83.363       42.652     6398.016     6949.415     1819.226        2.173        0.758      167.010       42.170        0.064      344.281       20.986      862.323
09/05/2013  23:19:00      155.109     -200.242      -49.000       58.735       60.334       36.970     3449.751     3640.147     1366.813        3.750        0.423      253.289       17.483        0.005      344.285       20.991      862.328
09/05/2013  23:20:00       36.464       22.385       41.135       63.682       72.126       57.188     4055.343     5202.165     3270.450        0.802        0.626       42.786       50.909        1.416      343.728       20.045      862.327
09/05/2013  23:21:00       91.715       95.379       53.779       63.426       38.604       40.330     4022.877     1490.280     1626.491        1.377        0.357      132.321       25.515        0.037      344.128       20.726      862.303
09/05/2013  23:22:00       85.992       48.735       33.396       44.905       32.958       35.356     2016.430     1086.257     1250.063        0.762        0.218       98.841       26.827        0.074      344.143       20.751      862.287
09/05/2013  23:23:00       43.212       48.067        4.374       31.470       22.640       27.090      990.388      512.584      733.884        0.322        0.112       64.635       14.639        0.051      344.057       20.606      862.293
09/05/2013  23:24:00       90.696       55.099       17.729       28.995       21.276       27.160      840.691      452.673      737.663        0.680        0.102      106.121       11.299        0.011      343.872       20.288      862.293
09/05/2013  23:25:00       72.368       13.176        2.142       54.029       71.536       31.991     2919.136     5117.451     1023.407        0.724        0.453       73.558       30.154        0.168      343.787       20.143      862.299
09/05/2013  23:26:00       42.161      -68.625       10.652       36.142       67.007       33.626     1306.234     4489.906     1130.678        0.676        0.346       80.541       32.196        0.160      344.165       20.790      862.320
09/05/2013  23:27:00       41.956      -43.637       17.352       39.948       40.611       36.476     1595.814     1649.272     1330.466        0.427        0.229       60.535       20.844        0.119      343.852       20.255      862.314
09/05/2013  23:28:00       52.885      -38.290        4.624       34.796       51.017       37.414     1210.745     2602.763     1399.802        0.475        0.261       65.291       29.541        0.205      343.646       19.904      862.297
09/05/2013  23:29:00       40.629      -30.591        3.205       39.880       38.145       24.522     1590.381     1455.047      601.329        0.312        0.182       50.858       20.954        0.170      343.608       19.840      862.316
09/05/2013  23:30:00        2.520      -33.698        0.676       23.636       17.743       12.305      558.653      314.815      151.410        0.108        0.051       33.793        6.513        0.037      343.471       19.608      862.330
09/05/2013  23:31:00      -79.492      -27.434        0.620       36.714       33.667       17.996     1347.933     1133.452      323.843        0.494        0.140       84.093        7.181        0.007      343.946       20.418      862.324
09/05/2013  23:32:00     -103.066      -44.242        3.400       35.503       42.180       22.737     1260.493     1779.148      516.970        0.807        0.178      112.160       19.431        0.030      343.974       20.465      862.336
09/05/2013  23:33:00      -38.313      -24.115       -7.526       24.091       44.552       26.132      580.358     1984.838      682.877        0.268        0.162       45.271       27.064        0.357      343.903       20.344      862.348
09/05/2013  23:34:00       14.426      -17.573        2.529       38.499       27.341       27.850     1482.205      747.552      775.618        0.176        0.150       22.736       19.193        0.713      343.373       19.439      862.352
09/05/2013  23:35:00       41.072      -20.770        2.928       42.768       42.834       34.172     1829.080     1834.751     1167.757        0.348        0.242       46.025       34.134        0.550      343.070       18.923      862.325
09/05/2013  23:36:00       13.656       40.648       38.764       47.366       51.528       49.899     2243.528     2655.148     2489.908        0.536        0.369       42.881       47.387        1.221      343.084       18.947      862.286
09/05/2013  23:37:00       12.321       28.720       83.073       45.351       79.170       47.065     2056.712     6267.888     2215.138        0.921        0.527       31.251       46.134        2.179      343.555       19.749      862.255
09/05/2013  23:38:00       63.202     -109.212        7.536       68.504       77.268       49.883     4692.821     5970.324     2488.279        1.456        0.658      126.182       49.016        0.151      343.530       19.707      862.257
09/05/2013  23:39:00      -77.165      -87.019        0.337       59.622       49.749       28.730     3554.806     2474.997      825.426        1.019        0.343      116.305       23.051        0.039      343.824       20.208      862.304
09/05/2013  23:40:00     -171.657      -52.316      -15.998       45.287       47.125       28.053     2050.936     2220.764      786.952        1.876        0.253      179.452       27.538        0.024      343.417       19.512      862.344
09/05/2013  23:41:00     -137.260      -31.041        1.326       67.942       50.441       41.564     4616.157     2544.266     1727.591        1.435        0.444      140.726       43.564        0.096      343.447       19.565      862.365
09/05/2013  23:42:00      -35.678      -18.452       12.593       53.644       38.964       30.011     2877.629     1518.212      900.642        0.353        0.265       40.167       31.657        0.621      343.452       19.575      862.378
09/05/2013  23:43:00       18.778      -85.577       11.990       52.251       51.914       29.625     2730.136     2695.084      877.629        0.706        0.315       87.613       19.386        0.049      343.419       19.517      862.395
09/05/2013  23:44:00      -29.281      -16.931       10.576       54.498       41.581       20.233     2970.024     1729.001      409.374        0.318        0.255       33.823       28.798        0.725      343.497       19.651      862.386
09/05/2013  23:45:00       15.237       13.431        1.148       13.977       27.194       18.199      195.353      739.522      331.207        0.084        0.063       20.311        8.800        0.188      343.540       19.723      862.395
09/05/2013  23:46:00       24.215       -4.752       15.514       27.612       32.897       15.237      762.424     1082.220      232.177        0.146        0.104       24.677       10.565        0.183      343.260       19.247      862.432
09/05/2013  23:47:00       -9.541      -34.701       15.457       35.765       26.967       18.691     1279.125      727.215      349.357        0.194        0.118       35.988       13.879        0.149      343.789       20.149      862.449
09/05/2013  23:48:00       37.148       17.981       36.911       47.417       38.108       21.440     2248.355     1452.235      459.659        0.361        0.208       41.271       23.913        0.336      343.112       18.995      862.419
09/05/2013  23:49:00       62.131       34.580       31.509       48.479       47.341       30.511     2350.230     2241.138      930.917        0.578        0.276       71.105       21.051        0.088      343.369       19.432      862.384
09/05/2013  23:50:00       41.437      -24.525        7.272       47.333       68.901       30.487     2240.430     4747.413      929.481        0.514        0.396       48.151       16.752        0.121      343.601       19.826      862.351
09/05/2013  23:51:00       41.292      -50.028       19.634       68.176       69.704       36.380     4648.010     4858.684     1323.487        0.771        0.542       64.868       38.446        0.351      343.764       20.106      862.350
09/05/2013  23:52:00       21.056      -41.530       -6.472       37.610       44.950       33.976     1414.507     2020.475     1154.353        0.340        0.229       46.563       24.348        0.273      343.660       19.928      862.344
09/05/2013  23:53:00       24.013        2.876       14.881       25.576       52.365       25.495      654.146     2742.122      649.999        0.243        0.202       24.184       20.071        0.689      343.661       19.930      862.353
09/05/2013  23:54:00      -23.282       38.036       -2.179       48.260       29.241       20.526     2328.988      855.043      421.318        0.280        0.180       44.595       22.870        0.263      343.590       19.810      862.359
09/05/2013  23:55:00      -22.637       23.420        1.935       49.592       28.885       27.323     2459.394      834.334      746.532        0.255        0.202       32.572       20.236        0.386      343.842       20.237      862.355
09/05/2013  23:56:00     -109.245      -44.334      -19.784       40.235       24.927       13.210     1618.843      621.377      174.495        0.835        0.121      117.899       10.480        0.008      343.468       19.599      862.368
09/05/2013  23:57:00     -103.926      -39.956       -1.888       46.079       28.929       20.378     2123.256      836.890      415.273        0.789        0.169      111.342       14.598        0.017      343.359       19.415      862.392
09/05/2013  23:58:00      -64.001      -47.742       -6.970       41.905       51.101       26.830     1756.004     2611.314      719.871        0.575        0.254       79.846       25.676        0.103      343.373       19.439      862.413
09/05/2013  23:59:00      -74.423      -74.229       -0.941       26.833       25.312       19.243      719.986      640.691      370.286        0.639        0.087      105.113       15.723        0.022      343.677       19.958      862.402
